GFSSGP_prec_precacc24_096.txt.gz
Total_Precipitation_Accumulation
0.00 0.00 0.00 0.00 0.00 0.00 0.00 0.00 0.00 0.00 0.00 0.00 0.00 0.00 0.00 0.00 0.00 0.00 0.00 0.00 0.00 0.00 0.00 0.00 0.00 0.00 0.00 0.00 0.00 0.00 0.00 0.00 0.00 0.00 0.00 0.00 0.00 0.00 0.01 0.01 0.00 0.00 0.02 0.03 0.02 0.02 0.04 0.01 0.01
0.00 0.00 0.00 0.00 0.00 0.00 0.00 0.00 0.00 0.00 0.00 0.00 0.00 0.00 0.00 0.00 0.00 0.00 0.00 0.00 0.00 0.00 0.00 0.00 0.00 0.01 0.00 0.00 0.00 0.00 0.00 0.00 0.00 0.00 0.03 0.03 0.03 0.06 0.04 0.03 0.01 0.02 0.04 0.05 0.02 0.05 0.04 0.02 0.00
0.00 0.00 0.00 0.00 0.00 0.00 0.00 0.00 0.00 0.00 0.00 0.00 0.00 0.00 0.00 0.00 0.00 0.00 0.00 0.00 0.00 0.00 0.00 0.00 0.00 0.01 0.01 0.00 0.00 0.01 0.05 0.03 0.00 0.00 0.02 0.00 0.03 0.04 0.09 0.12 0.01 0.03 0.08 0.13 0.12 0.16 0.06 0.01 0.00
0.00 0.00 0.00 0.00 0.00 0.00 0.00 0.00 0.00 0.00 0.00 0.00 0.00 0.00 0.00 0.00 0.00 0.00 0.00 0.00 0.00 0.00 0.00 0.00 0.00 0.01 0.01 0.01 0.00 0.03 0.08 0.04 0.02 0.02 0.01 0.03 0.05 0.14 0.36 0.34 0.17 0.18 0.19 0.27 0.25 0.22 0.04 0.00 0.00
0.00 0.00 0.00 0.00 0.00 0.00 0.00 0.00 0.00 0.00 0.00 0.00 0.00 0.00 0.00 0.00 0.00 0.00 0.00 0.00 0.00 0.00 0.00 0.00 0.00 0.01 0.11 0.12 0.12 0.35 0.47 0.56 0.43 0.47 0.62 0.44 0.31 0.67 0.56 0.31 0.29 0.34 0.30 0.27 0.29 0.15 0.04 0.00 0.00
0.00 0.00 0.00 0.00 0.00 0.00 0.00 0.00 0.00 0.00 0.00 0.00 0.00 0.00 0.00 0.00 0.00 0.00 0.00 0.00 0.00 0.00 0.00 0.00 0.01 0.00 0.06 0.21 0.61 1.80 2.53 1.90 1.31 1.14 1.14 1.13 0.95 0.69 0.41 0.27 0.31 0.18 0.14 0.19 0.17 0.07 0.02 0.00 0.00
0.00 0.00 0.00 0.00 0.00 0.00 0.00 0.00 0.00 0.00 0.00 0.00 0.00 0.00 0.00 0.00 0.00 0.00 0.00 0.00 0.00 0.00 0.00 0.00 0.02 0.06 0.03 0.07 0.38 0.86 1.60 2.61 2.77 2.59 1.79 2.34 1.72 1.17 0.57 0.35 0.34 0.45 0.31 0.19 0.08 0.03 0.04 0.03 0.04
0.00 0.00 0.00 0.00 0.00 0.00 0.00 0.00 0.00 0.00 0.00 0.00 0.00 0.00 0.00 0.00 0.00 0.00 0.00 0.00 0.00 0.00 0.00 0.00 0.02 0.07 0.07 0.15 0.23 0.53 0.58 0.72 1.36 2.82 2.68 2.10 1.52 1.15 0.91 0.70 0.61 0.48 0.41 0.45 0.49 0.43 0.31 0.14 0.06
0.00 0.00 0.00 0.00 0.00 0.00 0.00 0.00 0.00 0.00 0.00 0.00 0.00 0.00 0.00 0.00 0.00 0.00 0.00 0.00 0.00 0.00 0.00 0.00 0.01 0.06 0.05 0.14 0.22 0.36 0.30 0.40 0.58 0.84 1.71 2.01 1.49 1.16 1.05 0.97 1.01 1.20 1.02 0.86 0.65 0.46 0.28 0.21 0.14
0.00 0.00 0.00 0.00 0.00 0.00 0.00 0.00 0.00 0.00 0.00 0.00 0.00 0.00 0.00 0.00 0.00 0.00 0.00 0.00 0.00 0.00 0.00 0.01 0.11 0.16 0.12 0.12 0.32 0.35 0.37 0.35 0.70 0.82 0.73 1.24 1.10 0.76 0.58 0.69 0.69 0.72 0.87 0.77 0.68 0.46 0.35 0.30 0.19
0.00 0.00 0.00 0.00 0.00 0.00 0.00 0.00 0.00 0.00 0.00 0.00 0.00 0.00 0.00 0.00 0.00 0.00 0.00 0.00 0.00 0.00 0.00 0.01 0.04 0.17 0.17 0.15 0.39 0.25 0.19 0.28 0.78 1.09 0.60 0.82 0.88 0.69 0.44 0.38 0.48 0.49 0.71 0.72 0.85 0.53 0.42 0.26 0.18
0.00 0.00 0.00 0.00 0.00 0.00 0.00 0.00 0.00 0.00 0.00 0.00 0.00 0.00 0.00 0.00 0.00 0.00 0.00 0.00 0.00 0.00 0.00 0.00 0.01 0.06 0.09 0.11 0.25 0.16 0.10 0.12 0.51 1.35 0.51 0.66 0.57 0.72 0.18 0.11 0.19 0.31 0.28 0.37 0.73 0.65 0.46 0.37 0.28
0.00 0.00 0.00 0.00 0.00 0.00 0.00 0.00 0.00 0.00 0.00 0.00 0.00 0.00 0.00 0.00 0.00 0.00 0.00 0.00 0.00 0.00 0.00 0.00 0.00 0.00 0.02 0.05 0.18 0.20 0.11 0.11 0.31 1.38 0.51 0.28 0.28 0.47 0.22 0.10 0.14 0.17 0.10 0.19 0.34 0.56 0.47 0.39 0.31
0.00 0.00 0.00 0.00 0.00 0.00 0.00 0.00 0.00 0.00 0.00 0.00 0.00 0.00 0.00 0.00 0.00 0.00 0.00 0.00 0.00 0.00 0.00 0.00 0.00 0.00 0.01 0.15 0.26 0.41 0.20 0.15 0.31 0.97 0.63 0.23 0.19 0.22 0.19 0.12 0.13 0.11 0.09 0.16 0.29 0.53 0.51 0.46 0.28
0.00 0.00 0.00 0.00 0.00 0.00 0.00 0.00 0.00 0.00 0.00 0.00 0.00 0.00 0.00 0.00 0.00 0.00 0.00 0.00 0.00 0.00 0.00 0.00 0.00 0.00 0.01 0.03 0.12 0.30 0.31 0.20 0.15 0.45 0.59 0.26 0.23 0.14 0.17 0.19 0.20 0.10 0.08 0.17 0.36 0.52 0.65 0.50 0.32
0.00 0.00 0.00 0.00 0.00 0.00 0.00 0.00 0.00 0.00 0.00 0.00 0.00 0.00 0.00 0.00 0.00 0.00 0.00 0.00 0.00 0.00 0.00 0.00 0.00 0.00 0.00 0.02 0.05 0.12 0.27 0.25 0.14 0.19 0.38 0.25 0.31 0.17 0.16 0.23 0.40 0.30 0.14 0.13 0.24 0.41 0.73 0.44 0.21
0.00 0.00 0.00 0.00 0.00 0.00 0.00 0.00 0.00 0.00 0.00 0.00 0.00 0.00 0.00 0.00 0.00 0.00 0.00 0.00 0.00 0.00 0.00 0.00 0.00 0.00 0.00 0.01 0.06 0.16 0.24 0.40 0.21 0.29 0.33 0.31 0.37 0.22 0.15 0.23 0.32 0.38 0.32 0.24 0.19 0.31 0.45 0.36 0.21
0.00 0.00 0.00 0.00 0.00 0.00 0.00 0.00 0.00 0.00 0.00 0.00 0.00 0.00 0.00 0.00 0.00 0.00 0.00 0.00 0.00 0.00 0.00 0.00 0.00 0.00 0.00 0.01 0.07 0.18 0.29 0.38 0.41 0.41 0.31 0.41 0.44 0.30 0.17 0.24 0.47 0.34 0.33 0.26 0.16 0.23 0.35 0.24 0.18
0.00 0.00 0.00 0.00 0.00 0.00 0.00 0.00 0.00 0.00 0.00 0.00 0.00 0.00 0.00 0.00 0.00 0.00 0.00 0.00 0.00 0.00 0.00 0.00 0.00 0.01 0.00 0.02 0.05 0.15 0.23 0.28 0.53 0.55 0.33 0.43 0.57 0.42 0.26 0.14 0.31 0.60 0.49 0.31 0.14 0.17 0.29 0.33 0.15
0.00 0.00 0.00 0.00 0.00 0.00 0.00 0.00 0.00 0.00 0.00 0.00 0.00 0.00 0.00 0.00 0.00 0.00 0.00 0.00 0.00 0.00 0.00 0.00 0.00 0.00 0.00 0.01 0.01 0.04 0.08 0.18 0.47 0.73 0.47 0.53 0.58 0.50 0.43 0.16 0.12 0.30 0.56 0.62 0.29 0.16 0.22 0.25 0.18
0.00 0.00 0.00 0.00 0.00 0.00 0.00 0.00 0.00 0.00 0.00 0.00 0.00 0.00 0.00 0.00 0.00 0.00 0.00 0.00 0.00 0.00 0.00 0.00 0.00 0.00 0.00 0.01 0.01 0.02 0.06 0.17 0.82 1.18 0.84 0.62 0.60 0.48 0.46 0.31 0.21 0.15 0.31 0.41 0.28 0.15 0.12 0.13 0.15
0.00 0.00 0.00 0.00 0.00 0.00 0.00 0.00 0.00 0.00 0.00 0.00 0.00 0.00 0.00 0.00 0.00 0.00 0.00 0.00 0.00 0.00 0.00 0.00 0.00 0.00 0.01 0.00 0.00 0.01 0.03 0.08 0.45 0.97 0.88 0.65 0.76 0.63 0.37 0.40 0.36 0.20 0.16 0.32 0.27 0.16 0.13 0.12 0.09
0.00 0.00 0.00 0.00 0.00 0.00 0.00 0.00 0.00 0.00 0.00 0.00 0.00 0.00 0.00 0.00 0.00 0.00 0.00 0.00 0.00 0.00 0.00 0.00 0.00 0.00 0.00 0.01 0.00 0.00 0.01 0.01 0.11 0.82 1.13 0.90 0.79 0.79 0.54 0.42 0.40 0.28 0.18 0.16 0.28 0.23 0.18 0.16 0.09
0.00 0.01 0.02 0.00 0.01 0.02 0.00 0.00 0.00 0.00 0.00 0.00 0.00 0.00 0.00 0.00 0.00 0.00 0.00 0.00 0.00 0.00 0.00 0.00 0.00 0.00 0.00 0.01 0.01 0.00 0.00 0.01 0.04 0.36 0.81 1.08 0.83 0.76 0.66 0.60 0.53 0.32 0.19 0.14 0.19 0.21 0.18 0.17 0.12
0.01 0.09 0.17 0.13 0.05 0.02 0.00 0.00 0.00 0.00 0.00 0.00 0.00 0.00 0.00 0.00 0.00 0.00 0.00 0.00 0.00 0.00 0.00 0.00 0.00 0.00 0.00 0.00 0.00 0.00 0.01 0.01 0.01 0.06 0.35 0.70 0.78 0.61 0.55 0.60 0.62 0.53 0.28 0.16 0.17 0.21 0.24 0.21 0.14
0.03 0.11 0.16 0.12 0.05 0.02 0.00 0.00 0.00 0.00 0.00 0.00 0.00 0.00 0.00 0.00 0.00 0.00 0.00 0.00 0.00 0.00 0.01 0.00 0.00 0.00 0.00 0.00 0.01 0.01 0.02 0.01 0.02 0.02 0.19 0.55 0.63 0.55 0.43 0.62 0.68 0.62 0.47 0.33 0.21 0.25 0.19 0.18 0.16
0.13 0.11 0.04 0.24 0.14 0.14 0.05 0.01 0.01 0.00 0.00 0.00 0.00 0.00 0.00 0.00 0.00 0.00 0.00 0.00 0.00 0.00 0.01 0.01 0.00 0.00 0.01 0.01 0.01 0.01 0.01 0.01 0.01 0.01 0.03 0.31 0.51 0.55 0.51 0.63 0.67 0.70 0.60 0.39 0.25 0.18 0.18 0.17 0.16
0.09 0.16 0.30 0.40 0.24 0.13 0.04 0.03 0.14 0.10 0.00 0.00 0.00 0.00 0.00 0.00 0.00 0.00 0.00 0.00 0.02 0.00 0.01 0.01 0.00 0.00 0.01 0.02 0.02 0.02 0.01 0.01 0.01 0.01 0.01 0.09 0.30 0.44 0.45 0.59 0.60 0.59 0.54 0.43 0.27 0.15 0.13 0.13 0.14
0.12 0.25 0.33 0.33 0.12 0.12 0.11 0.25 0.25 0.13 0.02 0.00 0.00 0.00 0.00 0.00 0.00 0.00 0.00 0.00 0.01 0.01 0.02 0.02 0.00 0.02 0.03 0.02 0.01 0.01 0.00 0.01 0.01 0.01 0.01 0.02 0.11 0.35 0.31 0.47 0.58 0.52 0.47 0.40 0.38 0.18 0.10 0.09 0.09
0.12 0.14 0.23 0.36 0.23 0.09 0.13 0.36 0.33 0.04 0.00 0.00 0.00 0.00 0.00 0.00 0.00 0.00 0.01 0.00 0.01 0.03 0.02 0.03 0.02 0.03 0.03 0.01 0.01 0.01 0.00 0.01 0.01 0.00 0.01 0.00 0.02 0.14 0.16 0.27 0.45 0.43 0.51 0.45 0.38 0.31 0.13 0.08 0.07

GFSSGP_prec_precacc24_099.txt.gz
Total_Precipitation_Accumulation
0.00 0.00 0.00 0.00 0.00 0.00 0.00 0.00 0.00 0.00 0.00 0.00 0.00 0.00 0.00 0.00 0.00 0.00 0.00 0.00 0.00 0.00 0.00 0.00 0.00 0.00 0.00 0.00 0.00 0.00 0.00 0.00 0.00 0.00 0.00 0.00 0.00 0.00 0.01 0.01 0.00 0.00 0.01 0.02 0.00 0.02 0.03 0.01 0.01
0.00 0.00 0.00 0.00 0.00 0.00 0.00 0.00 0.00 0.00 0.00 0.00 0.00 0.00 0.00 0.00 0.00 0.00 0.00 0.00 0.00 0.00 0.00 0.00 0.00 0.01 0.00 0.00 0.00 0.00 0.00 0.00 0.00 0.00 0.03 0.03 0.04 0.06 0.04 0.02 0.00 0.01 0.04 0.06 0.01 0.05 0.04 0.02 0.00
0.00 0.00 0.00 0.00 0.00 0.00 0.00 0.00 0.00 0.00 0.00 0.00 0.00 0.00 0.00 0.00 0.00 0.00 0.00 0.00 0.00 0.00 0.00 0.00 0.00 0.01 0.01 0.00 0.00 0.00 0.02 0.02 0.00 0.00 0.02 0.00 0.03 0.04 0.10 0.12 0.01 0.02 0.10 0.17 0.13 0.16 0.06 0.01 0.00
0.00 0.00 0.00 0.00 0.00 0.00 0.00 0.00 0.00 0.00 0.00 0.00 0.00 0.00 0.00 0.00 0.00 0.00 0.00 0.00 0.00 0.00 0.00 0.00 0.00 0.01 0.01 0.01 0.00 0.00 0.02 0.03 0.02 0.01 0.01 0.03 0.05 0.15 0.39 0.39 0.19 0.20 0.23 0.30 0.29 0.24 0.04 0.00 0.00
0.00 0.00 0.00 0.00 0.00 0.00 0.00 0.00 0.00 0.00 0.00 0.00 0.00 0.00 0.00 0.00 0.00 0.00 0.00 0.00 0.00 0.00 0.00 0.00 0.00 0.00 0.02 0.02 0.01 0.04 0.10 0.17 0.22 0.41 0.58 0.44 0.31 0.68 0.58 0.32 0.33 0.34 0.30 0.28 0.40 0.31 0.04 0.00 0.00
0.00 0.00 0.00 0.00 0.00 0.00 0.00 0.00 0.00 0.00 0.00 0.00 0.00 0.00 0.00 0.00 0.00 0.00 0.00 0.00 0.00 0.00 0.00 0.00 0.00 0.00 0.02 0.07 0.28 0.85 0.56 0.48 0.37 0.56 0.86 1.07 0.95 0.70 0.41 0.28 0.43 0.23 0.15 0.23 0.22 0.09 0.02 0.00 0.00
0.00 0.00 0.00 0.00 0.00 0.00 0.00 0.00 0.00 0.00 0.00 0.00 0.00 0.00 0.00 0.00 0.00 0.00 0.00 0.00 0.00 0.00 0.00 0.00 0.00 0.00 0.02 0.07 0.22 0.34 0.87 1.39 1.41 1.03 1.10 2.04 1.72 1.18 0.58 0.37 0.39 0.52 0.39 0.32 0.11 0.09 0.09 0.04 0.07
0.00 0.00 0.00 0.00 0.00 0.00 0.00 0.00 0.00 0.00 0.00 0.00 0.00 0.00 0.00 0.00 0.00 0.00 0.00 0.00 0.00 0.00 0.00 0.00 0.00 0.01 0.02 0.11 0.18 0.38 0.49 0.57 0.74 1.10 1.27 1.56 1.48 1.16 0.93 0.77 0.73 0.60 0.48 0.61 0.81 0.81 0.68 0.38 0.28
0.00 0.00 0.00 0.00 0.00 0.00 0.00 0.00 0.00 0.00 0.00 0.00 0.00 0.00 0.00 0.00 0.00 0.00 0.00 0.00 0.00 0.00 0.00 0.00 0.00 0.01 0.03 0.07 0.17 0.32 0.28 0.40 0.33 0.27 0.47 1.58 1.46 1.16 1.05 0.99 1.07 1.30 1.13 0.99 0.74 0.54 0.35 0.33 0.29
0.00 0.00 0.00 0.00 0.00 0.00 0.00 0.00 0.00 0.00 0.00 0.00 0.00 0.00 0.00 0.00 0.00 0.00 0.00 0.00 0.00 0.00 0.00 0.00 0.00 0.02 0.05 0.08 0.22 0.31 0.36 0.33 0.30 0.20 0.20 0.95 1.07 0.76 0.59 0.71 0.74 0.75 0.89 0.78 0.72 0.61 0.42 0.33 0.27
0.00 0.00 0.00 0.00 0.00 0.00 0.00 0.00 0.00 0.00 0.00 0.00 0.00 0.00 0.00 0.00 0.00 0.00 0.00 0.00 0.00 0.00 0.00 0.00 0.00 0.01 0.05 0.08 0.25 0.20 0.18 0.24 0.22 0.19 0.16 0.64 0.84 0.68 0.44 0.38 0.49 0.49 0.72 0.74 0.91 0.61 0.45 0.27 0.20
0.00 0.00 0.00 0.00 0.00 0.00 0.00 0.00 0.00 0.00 0.00 0.00 0.00 0.00 0.00 0.00 0.00 0.00 0.00 0.00 0.00 0.00 0.00 0.00 0.00 0.00 0.01 0.08 0.17 0.11 0.10 0.10 0.15 0.25 0.23 0.51 0.54 0.71 0.17 0.11 0.20 0.31 0.29 0.42 0.84 0.76 0.53 0.42 0.35
0.00 0.00 0.00 0.00 0.00 0.00 0.00 0.00 0.00 0.00 0.00 0.00 0.00 0.00 0.00 0.00 0.00 0.00 0.00 0.00 0.00 0.00 0.00 0.00 0.00 0.00 0.00 0.02 0.13 0.15 0.07 0.06 0.09 0.60 0.33 0.24 0.27 0.46 0.18 0.09 0.14 0.17 0.10 0.21 0.38 0.60 0.51 0.41 0.35
0.00 0.00 0.00 0.00 0.00 0.00 0.00 0.00 0.00 0.00 0.00 0.00 0.00 0.00 0.00 0.00 0.00 0.00 0.00 0.00 0.00 0.00 0.00 0.00 0.00 0.00 0.01 0.02 0.07 0.26 0.11 0.06 0.06 0.35 0.41 0.21 0.19 0.21 0.17 0.11 0.13 0.11 0.11 0.19 0.33 0.57 0.55 0.49 0.34
0.00 0.00 0.00 0.00 0.00 0.00 0.00 0.00 0.00 0.00 0.00 0.00 0.00 0.00 0.00 0.00 0.00 0.00 0.00 0.00 0.00 0.00 0.00 0.00 0.00 0.00 0.01 0.02 0.04 0.15 0.20 0.11 0.06 0.22 0.41 0.24 0.23 0.14 0.16 0.19 0.20 0.11 0.11 0.21 0.40 0.56 0.68 0.55 0.44
0.00 0.00 0.00 0.00 0.00 0.00 0.00 0.00 0.00 0.00 0.00 0.00 0.00 0.00 0.00 0.00 0.00 0.00 0.00 0.00 0.00 0.00 0.00 0.00 0.00 0.00 0.00 0.01 0.04 0.08 0.19 0.17 0.12 0.16 0.34 0.24 0.31 0.17 0.16 0.23 0.40 0.31 0.18 0.18 0.27 0.43 0.74 0.50 0.34
0.00 0.00 0.00 0.00 0.00 0.00 0.00 0.00 0.00 0.00 0.00 0.00 0.00 0.00 0.00 0.00 0.00 0.00 0.00 0.00 0.00 0.00 0.00 0.00 0.00 0.00 0.00 0.01 0.04 0.12 0.16 0.25 0.16 0.26 0.32 0.30 0.37 0.22 0.15 0.23 0.30 0.38 0.34 0.28 0.24 0.34 0.47 0.47 0.36
0.00 0.00 0.00 0.00 0.00 0.00 0.00 0.00 0.00 0.00 0.00 0.00 0.00 0.00 0.00 0.00 0.00 0.00 0.00 0.00 0.00 0.00 0.00 0.00 0.00 0.00 0.01 0.01 0.04 0.11 0.22 0.25 0.34 0.36 0.29 0.40 0.44 0.30 0.17 0.23 0.39 0.29 0.31 0.24 0.19 0.31 0.43 0.33 0.36
0.00 0.00 0.00 0.00 0.00 0.00 0.00 0.00 0.00 0.00 0.00 0.00 0.00 0.00 0.00 0.00 0.00 0.00 0.00 0.00 0.00 0.00 0.00 0.00 0.00 0.01 0.01 0.02 0.05 0.13 0.20 0.23 0.48 0.52 0.31 0.43 0.57 0.42 0.25 0.14 0.27 0.53 0.37 0.27 0.17 0.26 0.44 0.49 0.28
0.00 0.00 0.00 0.00 0.00 0.00 0.00 0.00 0.00 0.00 0.00 0.00 0.00 0.00 0.00 0.00 0.00 0.00 0.00 0.00 0.00 0.00 0.00 0.00 0.00 0.00 0.00 0.01 0.01 0.04 0.08 0.18 0.48 0.74 0.47 0.53 0.58 0.50 0.43 0.16 0.12 0.28 0.52 0.61 0.33 0.24 0.39 0.44 0.32
0.00 0.00 0.00 0.00 0.00 0.00 0.00 0.00 0.00 0.00 0.00 0.00 0.00 0.00 0.00 0.00 0.00 0.00 0.00 0.00 0.00 0.00 0.00 0.00 0.00 0.00 0.01 0.00 0.01 0.02 0.06 0.17 0.82 1.19 0.86 0.62 0.61 0.49 0.46 0.31 0.21 0.15 0.31 0.55 0.49 0.25 0.19 0.29 0.31
0.00 0.00 0.00 0.00 0.00 0.00 0.00 0.00 0.00 0.00 0.00 0.00 0.00 0.00 0.00 0.00 0.00 0.00 0.00 0.00 0.00 0.00 0.00 0.00 0.00 0.00 0.01 0.00 0.00 0.01 0.03 0.08 0.44 0.97 0.89 0.66 0.77 0.64 0.38 0.41 0.38 0.22 0.16 0.33 0.35 0.25 0.21 0.21 0.22
0.00 0.00 0.00 0.00 0.00 0.00 0.00 0.00 0.00 0.00 0.00 0.00 0.00 0.00 0.00 0.00 0.00 0.00 0.00 0.00 0.00 0.00 0.00 0.00 0.00 0.00 0.00 0.00 0.00 0.00 0.01 0.01 0.11 0.83 1.13 0.90 0.80 0.79 0.55 0.42 0.41 0.30 0.19 0.18 0.29 0.25 0.22 0.22 0.14
0.00 0.00 0.02 0.01 0.01 0.01 0.00 0.00 0.00 0.00 0.00 0.00 0.00 0.00 0.00 0.00 0.00 0.00 0.00 0.00 0.00 0.00 0.00 0.00 0.00 0.00 0.00 0.00 0.00 0.00 0.00 0.01 0.04 0.36 0.81 1.08 0.83 0.76 0.67 0.61 0.54 0.33 0.20 0.15 0.20 0.24 0.22 0.15 0.15
0.01 0.06 0.15 0.11 0.04 0.01 0.00 0.00 0.00 0.00 0.03 0.05 0.04 0.01 0.01 0.00 0.00 0.00 0.00 0.00 0.00 0.00 0.00 0.00 0.00 0.00 0.00 0.00 0.00 0.00 0.01 0.03 0.01 0.06 0.35 0.70 0.78 0.61 0.55 0.61 0.63 0.54 0.29 0.17 0.20 0.27 0.26 0.21 0.17
0.02 0.11 0.16 0.12 0.09 0.03 0.00 0.01 0.00 0.00 0.01 0.18 0.14 0.04 0.01 0.01 0.00 0.00 0.00 0.00 0.00 0.00 0.01 0.00 0.00 0.00 0.01 0.00 0.02 0.02 0.03 0.03 0.02 0.02 0.19 0.55 0.63 0.55 0.43 0.62 0.69 0.64 0.49 0.40 0.29 0.30 0.27 0.24 0.20
0.15 0.12 0.07 0.30 0.19 0.12 0.06 0.02 0.04 0.02 0.08 0.08 0.05 0.01 0.01 0.00 0.00 0.00 0.00 0.00 0.00 0.01 0.01 0.01 0.00 0.01 0.04 0.03 0.02 0.02 0.03 0.03 0.04 0.02 0.03 0.31 0.51 0.56 0.52 0.63 0.68 0.72 0.66 0.52 0.45 0.34 0.27 0.24 0.26
0.16 0.18 0.31 0.35 0.29 0.12 0.14 0.05 0.42 0.35 0.25 0.39 0.04 0.00 0.00 0.00 0.00 0.00 0.00 0.00 0.03 0.03 0.06 0.06 0.03 0.02 0.03 0.05 0.04 0.03 0.05 0.03 0.03 0.02 0.01 0.09 0.30 0.44 0.45 0.59 0.60 0.66 0.71 0.64 0.49 0.38 0.28 0.23 0.23
0.15 0.30 0.26 0.26 0.11 0.16 0.21 0.48 0.61 0.78 0.16 0.15 0.01 0.00 0.00 0.00 0.00 0.00 0.01 0.04 0.06 0.05 0.05 0.04 0.02 0.04 0.06 0.06 0.03 0.04 0.05 0.03 0.04 0.03 0.01 0.02 0.11 0.35 0.31 0.47 0.59 0.62 0.62 0.66 0.62 0.35 0.20 0.21 0.25
0.11 0.14 0.19 0.30 0.21 0.10 0.19 0.75 0.54 0.28 0.19 0.10 0.00 0.00 0.00 0.00 0.00 0.00 0.01 0.03 0.06 0.07 0.03 0.03 0.02 0.03 0.06 0.10 0.06 0.06 0.07 0.03 0.02 0.01 0.01 0.00 0.02 0.14 0.16 0.27 0.46 0.50 0.65 0.58 0.59 0.49 0.23 0.18 0.21

GFSSGP_prec_precacc24_102.txt.gz
Total_Precipitation_Accumulation
0.00 0.00 0.00 0.00 0.00 0.00 0.00 0.00 0.00 0.00 0.00 0.00 0.00 0.00 0.00 0.00 0.00 0.00 0.00 0.00 0.00 0.00 0.00 0.00 0.00 0.00 0.00 0.00 0.00 0.00 0.00 0.00 0.00 0.00 0.00 0.00 0.00 0.00 0.01 0.01 0.00 0.00 0.01 0.02 0.01 0.04 0.03 0.01 0.01
0.00 0.00 0.00 0.00 0.00 0.00 0.00 0.00 0.00 0.00 0.00 0.00 0.00 0.00 0.00 0.00 0.00 0.00 0.00 0.00 0.00 0.00 0.00 0.00 0.00 0.01 0.00 0.00 0.00 0.00 0.00 0.00 0.00 0.00 0.03 0.03 0.04 0.06 0.04 0.02 0.00 0.01 0.03 0.05 0.01 0.04 0.04 0.02 0.01
0.00 0.00 0.00 0.00 0.00 0.00 0.00 0.00 0.00 0.00 0.00 0.00 0.00 0.00 0.00 0.00 0.00 0.00 0.00 0.00 0.00 0.00 0.00 0.00 0.00 0.01 0.01 0.00 0.00 0.00 0.02 0.02 0.00 0.00 0.02 0.00 0.03 0.04 0.10 0.12 0.01 0.02 0.10 0.17 0.12 0.16 0.06 0.01 0.00
0.00 0.00 0.00 0.00 0.00 0.00 0.00 0.00 0.00 0.00 0.00 0.00 0.00 0.00 0.00 0.00 0.00 0.00 0.00 0.00 0.00 0.00 0.00 0.00 0.00 0.01 0.01 0.01 0.00 0.00 0.01 0.03 0.02 0.01 0.01 0.03 0.05 0.15 0.39 0.39 0.19 0.19 0.22 0.30 0.30 0.25 0.04 0.00 0.00
0.00 0.00 0.00 0.00 0.00 0.00 0.00 0.00 0.00 0.00 0.00 0.00 0.00 0.00 0.00 0.00 0.00 0.00 0.00 0.00 0.00 0.00 0.00 0.00 0.00 0.00 0.02 0.02 0.01 0.02 0.01 0.05 0.08 0.28 0.47 0.42 0.31 0.68 0.58 0.33 0.34 0.34 0.30 0.30 0.45 0.33 0.04 0.00 0.00
0.00 0.00 0.00 0.00 0.00 0.00 0.00 0.00 0.00 0.00 0.00 0.00 0.00 0.00 0.00 0.00 0.00 0.00 0.00 0.00 0.00 0.00 0.00 0.00 0.00 0.00 0.01 0.02 0.12 0.31 0.09 0.10 0.10 0.17 0.35 0.63 0.78 0.66 0.41 0.32 0.47 0.24 0.16 0.28 0.25 0.09 0.02 0.00 0.00
0.00 0.00 0.00 0.00 0.00 0.00 0.00 0.00 0.00 0.00 0.00 0.00 0.00 0.00 0.00 0.00 0.00 0.00 0.00 0.00 0.00 0.00 0.00 0.00 0.00 0.00 0.01 0.04 0.11 0.09 0.22 0.32 0.50 0.55 0.49 0.74 0.99 0.93 0.55 0.39 0.45 0.55 0.42 0.33 0.13 0.15 0.17 0.06 0.12
0.00 0.00 0.00 0.00 0.00 0.00 0.00 0.00 0.00 0.00 0.00 0.00 0.00 0.00 0.00 0.00 0.00 0.00 0.00 0.00 0.00 0.00 0.00 0.00 0.00 0.01 0.02 0.08 0.05 0.05 0.22 0.32 0.42 0.70 0.62 0.50 0.63 0.80 0.86 0.80 0.78 0.69 0.58 0.74 1.06 0.94 0.80 0.50 0.36
0.00 0.00 0.00 0.00 0.00 0.00 0.00 0.00 0.00 0.00 0.00 0.00 0.00 0.00 0.00 0.00 0.00 0.00 0.00 0.00 0.00 0.00 0.00 0.00 0.00 0.01 0.02 0.05 0.08 0.12 0.15 0.29 0.27 0.21 0.21 0.41 0.64 0.79 0.97 0.99 1.08 1.34 1.24 1.15 0.77 0.54 0.36 0.33 0.32
0.00 0.00 0.00 0.00 0.00 0.00 0.00 0.00 0.00 0.00 0.00 0.00 0.00 0.00 0.00 0.00 0.00 0.00 0.00 0.00 0.00 0.00 0.00 0.00 0.00 0.00 0.01 0.04 0.12 0.20 0.28 0.31 0.30 0.19 0.09 0.16 0.30 0.49 0.55 0.71 0.74 0.77 0.94 0.84 0.73 0.62 0.42 0.33 0.28
0.00 0.00 0.00 0.00 0.00 0.00 0.00 0.00 0.00 0.00 0.00 0.00 0.00 0.00 0.00 0.00 0.00 0.00 0.00 0.00 0.00 0.00 0.00 0.00 0.00 0.00 0.01 0.02 0.10 0.14 0.15 0.23 0.22 0.19 0.11 0.10 0.25 0.52 0.43 0.38 0.49 0.49 0.72 0.74 0.96 0.71 0.49 0.27 0.20
0.00 0.00 0.00 0.00 0.00 0.00 0.00 0.00 0.00 0.00 0.00 0.00 0.00 0.00 0.00 0.00 0.00 0.00 0.00 0.00 0.00 0.00 0.00 0.00 0.00 0.00 0.00 0.01 0.04 0.04 0.07 0.09 0.13 0.14 0.13 0.12 0.26 0.67 0.17 0.11 0.20 0.31 0.29 0.42 0.94 0.91 0.57 0.42 0.35
0.00 0.00 0.00 0.00 0.00 0.00 0.00 0.00 0.00 0.00 0.00 0.00 0.00 0.00 0.00 0.00 0.00 0.00 0.00 0.00 0.00 0.00 0.00 0.00 0.00 0.00 0.00 0.01 0.02 0.03 0.02 0.04 0.06 0.07 0.06 0.06 0.15 0.46 0.18 0.09 0.14 0.17 0.10 0.21 0.40 0.65 0.55 0.42 0.35
0.00 0.00 0.00 0.00 0.00 0.00 0.00 0.00 0.00 0.00 0.00 0.00 0.00 0.00 0.00 0.00 0.00 0.00 0.00 0.00 0.00 0.00 0.00 0.00 0.00 0.00 0.01 0.01 0.01 0.07 0.03 0.03 0.04 0.05 0.07 0.09 0.16 0.21 0.17 0.11 0.13 0.11 0.11 0.19 0.33 0.60 0.58 0.53 0.35
0.00 0.00 0.00 0.00 0.00 0.00 0.00 0.00 0.00 0.00 0.00 0.00 0.00 0.00 0.00 0.00 0.00 0.00 0.00 0.00 0.00 0.00 0.00 0.00 0.00 0.00 0.01 0.01 0.01 0.05 0.07 0.05 0.04 0.06 0.09 0.13 0.22 0.14 0.16 0.19 0.20 0.11 0.11 0.21 0.41 0.57 0.69 0.57 0.45
0.00 0.00 0.00 0.00 0.00 0.00 0.00 0.00 0.00 0.00 0.00 0.00 0.00 0.00 0.00 0.00 0.00 0.00 0.00 0.00 0.00 0.00 0.00 0.00 0.00 0.00 0.02 0.02 0.02 0.04 0.08 0.08 0.10 0.12 0.16 0.20 0.31 0.17 0.16 0.23 0.40 0.31 0.18 0.19 0.28 0.44 0.75 0.50 0.35
0.00 0.00 0.00 0.00 0.00 0.00 0.00 0.00 0.00 0.00 0.00 0.00 0.00 0.00 0.00 0.00 0.00 0.00 0.00 0.00 0.00 0.00 0.00 0.00 0.00 0.00 0.00 0.02 0.03 0.09 0.10 0.17 0.14 0.26 0.28 0.27 0.36 0.22 0.15 0.23 0.30 0.38 0.34 0.28 0.24 0.35 0.48 0.49 0.37
0.00 0.00 0.00 0.00 0.00 0.00 0.00 0.00 0.00 0.00 0.00 0.00 0.00 0.00 0.00 0.00 0.00 0.00 0.00 0.00 0.00 0.00 0.00 0.00 0.00 0.00 0.02 0.07 0.10 0.17 0.22 0.16 0.28 0.35 0.28 0.40 0.43 0.30 0.17 0.23 0.39 0.29 0.31 0.24 0.20 0.32 0.45 0.35 0.39
0.00 0.00 0.00 0.00 0.00 0.00 0.00 0.00 0.00 0.00 0.00 0.00 0.00 0.00 0.00 0.00 0.00 0.00 0.00 0.00 0.00 0.00 0.00 0.00 0.00 0.01 0.02 0.03 0.04 0.07 0.15 0.15 0.35 0.49 0.30 0.42 0.58 0.42 0.25 0.14 0.28 0.53 0.37 0.27 0.18 0.27 0.45 0.54 0.36
0.00 0.00 0.00 0.00 0.00 0.00 0.00 0.00 0.00 0.00 0.00 0.00 0.00 0.00 0.00 0.00 0.00 0.00 0.00 0.00 0.00 0.00 0.00 0.00 0.00 0.00 0.00 0.01 0.02 0.04 0.08 0.15 0.40 0.69 0.46 0.52 0.58 0.51 0.43 0.16 0.12 0.29 0.53 0.61 0.34 0.25 0.41 0.47 0.40
0.00 0.00 0.00 0.00 0.00 0.00 0.00 0.00 0.00 0.00 0.00 0.00 0.00 0.00 0.00 0.00 0.00 0.00 0.00 0.00 0.00 0.00 0.00 0.00 0.00 0.00 0.01 0.01 0.03 0.03 0.07 0.15 0.65 1.05 0.78 0.61 0.61 0.50 0.47 0.33 0.22 0.16 0.31 0.56 0.50 0.26 0.20 0.32 0.37
0.00 0.00 0.00 0.00 0.00 0.00 0.00 0.00 0.00 0.00 0.00 0.00 0.00 0.00 0.00 0.00 0.00 0.00 0.00 0.00 0.00 0.00 0.00 0.00 0.00 0.00 0.01 0.00 0.00 0.01 0.02 0.06 0.39 0.94 0.85 0.66 0.78 0.64 0.40 0.44 0.43 0.24 0.17 0.33 0.34 0.25 0.22 0.23 0.27
0.00 0.00 0.00 0.00 0.00 0.00 0.00 0.00 0.00 0.00 0.00 0.00 0.00 0.00 0.00 0.00 0.00 0.00 0.00 0.00 0.00 0.00 0.00 0.00 0.00 0.00 0.00 0.00 0.00 0.01 0.01 0.01 0.10 0.83 1.12 0.89 0.80 0.82 0.62 0.46 0.45 0.32 0.20 0.18 0.29 0.24 0.23 0.23 0.15
0.00 0.00 0.01 0.02 0.03 0.05 0.00 0.00 0.00 0.00 0.00 0.00 0.04 0.04 0.01 0.00 0.00 0.00 0.00 0.00 0.00 0.00 0.00 0.00 0.00 0.00 0.00 0.00 0.01 0.01 0.00 0.01 0.04 0.36 0.82 1.08 0.84 0.78 0.70 0.66 0.58 0.35 0.21 0.15 0.21 0.24 0.22 0.16 0.16
0.01 0.05 0.12 0.14 0.07 0.03 0.00 0.00 0.00 0.00 0.03 0.06 0.16 0.22 0.09 0.07 0.03 0.01 0.00 0.00 0.00 0.00 0.00 0.00 0.00 0.00 0.01 0.01 0.00 0.01 0.01 0.03 0.01 0.06 0.35 0.70 0.78 0.61 0.56 0.64 0.64 0.55 0.30 0.17 0.20 0.29 0.27 0.22 0.17
0.02 0.10 0.16 0.13 0.08 0.04 0.01 0.01 0.00 0.01 0.01 0.26 0.52 0.37 0.10 0.08 0.05 0.03 0.02 0.01 0.00 0.00 0.01 0.00 0.01 0.01 0.03 0.02 0.02 0.02 0.03 0.03 0.02 0.02 0.19 0.55 0.64 0.57 0.43 0.62 0.69 0.64 0.50 0.40 0.30 0.31 0.27 0.25 0.23
0.12 0.10 0.07 0.24 0.16 0.19 0.08 0.02 0.04 0.04 0.15 0.18 0.35 0.28 0.13 0.02 0.02 0.01 0.01 0.01 0.02 0.02 0.01 0.01 0.01 0.08 0.10 0.07 0.07 0.08 0.05 0.04 0.04 0.02 0.03 0.32 0.53 0.58 0.52 0.63 0.68 0.73 0.66 0.53 0.47 0.39 0.32 0.27 0.29
0.17 0.15 0.26 0.25 0.31 0.19 0.17 0.13 0.60 0.57 0.40 0.67 0.49 0.19 0.07 0.00 0.00 0.00 0.01 0.01 0.05 0.07 0.08 0.07 0.04 0.02 0.06 0.13 0.11 0.07 0.08 0.06 0.04 0.04 0.05 0.11 0.32 0.45 0.45 0.59 0.61 0.66 0.70 0.65 0.56 0.51 0.45 0.37 0.35
0.10 0.24 0.24 0.26 0.13 0.21 0.38 0.82 0.98 1.27 0.66 0.46 0.15 0.07 0.02 0.00 0.00 0.00 0.01 0.05 0.09 0.08 0.08 0.08 0.04 0.07 0.12 0.18 0.11 0.08 0.07 0.04 0.07 0.06 0.04 0.04 0.11 0.35 0.31 0.47 0.59 0.63 0.63 0.71 0.78 0.61 0.48 0.47 0.41
0.08 0.12 0.17 0.30 0.21 0.13 0.29 0.98 1.03 0.76 0.63 0.31 0.05 0.01 0.00 0.00 0.00 0.00 0.01 0.04 0.09 0.09 0.05 0.07 0.04 0.06 0.10 0.19 0.14 0.11 0.10 0.07 0.07 0.09 0.06 0.02 0.02 0.14 0.16 0.27 0.46 0.50 0.67 0.64 0.73 0.75 0.55 0.40 0.44

GFSSGP_prec_precacc24_105.txt.gz
Total_Precipitation_Accumulation
0.00 0.00 0.00 0.00 0.00 0.00 0.00 0.00 0.00 0.00 0.00 0.00 0.00 0.00 0.00 0.00 0.00 0.00 0.00 0.00 0.00 0.00 0.00 0.00 0.00 0.00 0.00 0.00 0.00 0.00 0.00 0.00 0.00 0.00 0.00 0.00 0.00 0.00 0.01 0.01 0.00 0.00 0.01 0.01 0.02 0.08 0.07 0.01 0.01
0.00 0.00 0.00 0.00 0.00 0.00 0.00 0.00 0.00 0.00 0.00 0.00 0.00 0.00 0.00 0.00 0.00 0.00 0.00 0.00 0.00 0.00 0.00 0.00 0.00 0.01 0.00 0.00 0.00 0.00 0.00 0.00 0.00 0.00 0.03 0.03 0.04 0.06 0.04 0.02 0.00 0.01 0.03 0.05 0.01 0.03 0.03 0.02 0.01
0.00 0.00 0.00 0.00 0.00 0.00 0.00 0.00 0.00 0.00 0.00 0.00 0.00 0.00 0.00 0.00 0.00 0.00 0.00 0.00 0.00 0.00 0.00 0.00 0.00 0.01 0.01 0.00 0.00 0.00 0.02 0.02 0.00 0.00 0.02 0.00 0.03 0.04 0.10 0.12 0.01 0.02 0.10 0.17 0.12 0.15 0.05 0.01 0.00
0.00 0.00 0.00 0.00 0.00 0.00 0.00 0.00 0.00 0.00 0.00 0.00 0.00 0.00 0.00 0.00 0.00 0.00 0.00 0.00 0.00 0.00 0.00 0.00 0.00 0.01 0.01 0.01 0.00 0.00 0.01 0.03 0.02 0.00 0.00 0.03 0.05 0.15 0.39 0.39 0.19 0.19 0.22 0.30 0.29 0.23 0.04 0.00 0.00
0.00 0.00 0.00 0.00 0.00 0.00 0.00 0.00 0.00 0.00 0.00 0.00 0.00 0.00 0.00 0.00 0.00 0.00 0.00 0.00 0.00 0.00 0.00 0.00 0.00 0.00 0.02 0.02 0.01 0.00 0.00 0.01 0.03 0.08 0.29 0.30 0.22 0.65 0.58 0.36 0.40 0.34 0.30 0.30 0.47 0.32 0.04 0.00 0.00
0.00 0.00 0.00 0.00 0.00 0.00 0.00 0.00 0.00 0.00 0.00 0.00 0.00 0.00 0.00 0.00 0.00 0.00 0.00 0.00 0.00 0.00 0.00 0.00 0.00 0.00 0.01 0.02 0.03 0.05 0.03 0.02 0.03 0.12 0.25 0.40 0.48 0.44 0.30 0.32 0.49 0.25 0.17 0.31 0.26 0.08 0.02 0.00 0.00
0.00 0.00 0.00 0.00 0.00 0.00 0.00 0.00 0.00 0.00 0.00 0.00 0.00 0.00 0.00 0.00 0.00 0.00 0.00 0.00 0.00 0.00 0.00 0.00 0.00 0.00 0.01 0.02 0.02 0.01 0.01 0.02 0.11 0.30 0.40 0.58 0.61 0.39 0.25 0.30 0.45 0.61 0.48 0.41 0.13 0.15 0.17 0.06 0.12
0.00 0.00 0.00 0.00 0.00 0.00 0.00 0.00 0.00 0.00 0.00 0.00 0.00 0.00 0.00 0.00 0.00 0.00 0.00 0.00 0.00 0.00 0.00 0.00 0.00 0.01 0.01 0.02 0.02 0.01 0.02 0.05 0.12 0.20 0.26 0.34 0.24 0.20 0.34 0.56 0.71 0.79 0.69 0.92 1.16 0.96 0.84 0.53 0.36
0.00 0.00 0.00 0.00 0.00 0.00 0.00 0.00 0.00 0.00 0.00 0.00 0.00 0.00 0.00 0.00 0.00 0.00 0.00 0.00 0.00 0.00 0.00 0.00 0.00 0.00 0.02 0.02 0.04 0.03 0.03 0.08 0.11 0.13 0.15 0.33 0.47 0.42 0.52 0.77 1.02 1.36 1.29 1.20 0.77 0.54 0.36 0.34 0.32
0.00 0.00 0.00 0.00 0.00 0.00 0.00 0.00 0.00 0.00 0.00 0.00 0.00 0.00 0.00 0.00 0.00 0.00 0.00 0.00 0.00 0.00 0.00 0.00 0.00 0.00 0.01 0.02 0.03 0.08 0.16 0.15 0.17 0.14 0.08 0.15 0.16 0.19 0.24 0.53 0.70 0.76 0.95 0.84 0.73 0.62 0.42 0.33 0.28
0.00 0.00 0.00 0.00 0.00 0.00 0.00 0.00 0.00 0.00 0.00 0.00 0.00 0.00 0.00 0.00 0.00 0.01 0.00 0.00 0.00 0.00 0.00 0.00 0.00 0.00 0.01 0.02 0.03 0.04 0.06 0.12 0.16 0.18 0.11 0.09 0.08 0.11 0.23 0.28 0.46 0.48 0.72 0.74 0.96 0.76 0.49 0.28 0.20
0.00 0.00 0.00 0.00 0.00 0.00 0.00 0.00 0.00 0.00 0.00 0.00 0.00 0.00 0.00 0.00 0.00 0.01 0.03 0.01 0.00 0.00 0.00 0.00 0.00 0.00 0.00 0.01 0.02 0.02 0.05 0.08 0.13 0.14 0.13 0.11 0.11 0.10 0.08 0.09 0.20 0.31 0.29 0.42 0.95 1.01 0.60 0.44 0.35
0.00 0.00 0.00 0.00 0.00 0.00 0.00 0.00 0.00 0.00 0.00 0.00 0.00 0.00 0.00 0.00 0.00 0.00 0.00 0.01 0.03 0.00 0.00 0.00 0.00 0.00 0.00 0.01 0.01 0.02 0.02 0.04 0.06 0.06 0.06 0.05 0.06 0.07 0.12 0.09 0.14 0.17 0.10 0.21 0.41 0.68 0.57 0.43 0.35
0.00 0.00 0.00 0.00 0.00 0.00 0.00 0.00 0.00 0.00 0.00 0.00 0.00 0.00 0.00 0.00 0.00 0.00 0.00 0.00 0.01 0.00 0.00 0.00 0.00 0.00 0.01 0.00 0.00 0.01 0.01 0.02 0.04 0.05 0.04 0.03 0.06 0.07 0.13 0.11 0.13 0.11 0.11 0.19 0.33 0.60 0.60 0.54 0.35
0.00 0.00 0.00 0.00 0.00 0.00 0.00 0.00 0.00 0.00 0.00 0.00 0.00 0.00 0.00 0.00 0.00 0.00 0.00 0.00 0.00 0.00 0.00 0.00 0.00 0.00 0.01 0.01 0.00 0.01 0.01 0.02 0.03 0.03 0.05 0.07 0.07 0.10 0.15 0.19 0.20 0.11 0.11 0.21 0.41 0.57 0.69 0.58 0.45
0.00 0.00 0.00 0.00 0.00 0.00 0.00 0.00 0.00 0.00 0.00 0.00 0.00 0.00 0.00 0.00 0.00 0.00 0.00 0.00 0.00 0.00 0.00 0.00 0.00 0.00 0.02 0.01 0.01 0.01 0.02 0.03 0.04 0.04 0.07 0.08 0.16 0.14 0.16 0.23 0.40 0.31 0.18 0.19 0.28 0.44 0.76 0.52 0.36
0.00 0.00 0.00 0.00 0.00 0.00 0.00 0.00 0.00 0.00 0.00 0.00 0.00 0.00 0.00 0.00 0.00 0.00 0.00 0.00 0.00 0.00 0.00 0.00 0.00 0.00 0.00 0.03 0.02 0.02 0.05 0.04 0.04 0.07 0.14 0.13 0.22 0.19 0.15 0.23 0.30 0.38 0.34 0.28 0.24 0.36 0.49 0.49 0.38
0.00 0.00 0.00 0.00 0.00 0.00 0.00 0.00 0.00 0.00 0.00 0.00 0.00 0.00 0.00 0.00 0.00 0.00 0.00 0.00 0.00 0.00 0.00 0.00 0.00 0.00 0.02 0.09 0.11 0.15 0.13 0.09 0.08 0.14 0.19 0.23 0.30 0.28 0.17 0.23 0.39 0.29 0.31 0.24 0.21 0.34 0.46 0.36 0.41
0.00 0.00 0.00 0.00 0.00 0.00 0.00 0.00 0.00 0.00 0.00 0.00 0.00 0.00 0.00 0.00 0.00 0.00 0.00 0.00 0.00 0.00 0.00 0.00 0.00 0.00 0.02 0.03 0.04 0.05 0.05 0.07 0.11 0.22 0.25 0.26 0.50 0.41 0.25 0.14 0.28 0.53 0.37 0.27 0.18 0.28 0.46 0.55 0.38
0.00 0.00 0.00 0.00 0.00 0.00 0.00 0.00 0.00 0.00 0.00 0.00 0.00 0.00 0.00 0.00 0.00 0.00 0.00 0.00 0.00 0.00 0.00 0.00 0.00 0.00 0.00 0.01 0.02 0.03 0.06 0.09 0.21 0.53 0.46 0.41 0.51 0.49 0.43 0.17 0.12 0.29 0.53 0.62 0.35 0.26 0.42 0.48 0.43
0.00 0.00 0.00 0.00 0.00 0.00 0.00 0.00 0.00 0.00 0.00 0.00 0.00 0.00 0.00 0.00 0.00 0.00 0.00 0.00 0.00 0.00 0.00 0.00 0.00 0.00 0.01 0.01 0.03 0.03 0.07 0.13 0.32 0.73 0.73 0.55 0.56 0.48 0.48 0.34 0.23 0.17 0.32 0.56 0.50 0.27 0.22 0.34 0.39
0.00 0.00 0.00 0.00 0.00 0.00 0.00 0.00 0.00 0.00 0.00 0.00 0.00 0.00 0.00 0.00 0.00 0.00 0.00 0.00 0.00 0.00 0.00 0.00 0.00 0.00 0.01 0.00 0.00 0.01 0.02 0.03 0.22 0.65 0.68 0.59 0.79 0.64 0.40 0.47 0.46 0.26 0.18 0.33 0.35 0.26 0.23 0.24 0.28
0.00 0.00 0.00 0.00 0.00 0.00 0.00 0.00 0.00 0.00 0.00 0.00 0.00 0.00 0.00 0.00 0.00 0.00 0.00 0.00 0.00 0.00 0.00 0.00 0.00 0.00 0.00 0.00 0.00 0.01 0.01 0.01 0.04 0.61 0.86 0.65 0.72 0.75 0.58 0.46 0.47 0.36 0.22 0.20 0.31 0.25 0.24 0.24 0.16
0.00 0.00 0.01 0.02 0.03 0.04 0.00 0.00 0.00 0.00 0.00 0.00 0.04 0.04 0.01 0.01 0.01 0.01 0.00 0.00 0.00 0.00 0.00 0.00 0.00 0.00 0.00 0.00 0.01 0.01 0.00 0.01 0.03 0.29 0.67 0.87 0.68 0.64 0.62 0.63 0.59 0.38 0.23 0.17 0.22 0.25 0.23 0.16 0.17
0.01 0.05 0.12 0.13 0.06 0.03 0.00 0.00 0.00 0.02 0.06 0.08 0.17 0.22 0.12 0.09 0.09 0.06 0.05 0.04 0.03 0.00 0.00 0.00 0.00 0.00 0.01 0.01 0.00 0.01 0.02 0.03 0.02 0.06 0.34 0.66 0.73 0.56 0.52 0.62 0.65 0.57 0.32 0.19 0.21 0.30 0.28 0.22 0.18
0.02 0.10 0.15 0.11 0.08 0.04 0.01 0.01 0.02 0.07 0.09 0.28 0.53 0.42 0.36 0.22 0.10 0.13 0.10 0.07 0.04 0.01 0.01 0.00 0.01 0.02 0.03 0.03 0.04 0.05 0.06 0.07 0.05 0.04 0.19 0.55 0.64 0.57 0.43 0.62 0.70 0.65 0.52 0.42 0.30 0.31 0.28 0.26 0.24
0.11 0.08 0.06 0.17 0.14 0.18 0.08 0.04 0.10 0.15 0.26 0.20 0.36 0.36 0.31 0.26 0.15 0.11 0.10 0.11 0.07 0.05 0.02 0.01 0.01 0.09 0.12 0.09 0.08 0.11 0.11 0.09 0.08 0.06 0.05 0.32 0.53 0.58 0.52 0.63 0.68 0.73 0.67 0.54 0.47 0.38 0.31 0.27 0.29
0.16 0.10 0.22 0.24 0.30 0.19 0.19 0.27 0.90 0.90 0.59 0.85 0.73 0.36 0.22 0.15 0.15 0.11 0.07 0.07 0.10 0.13 0.12 0.08 0.05 0.04 0.10 0.16 0.16 0.14 0.16 0.12 0.11 0.09 0.07 0.12 0.33 0.45 0.45 0.59 0.61 0.66 0.70 0.65 0.57 0.52 0.46 0.40 0.39
0.12 0.22 0.17 0.23 0.12 0.19 0.44 1.20 1.26 1.59 0.97 0.72 0.38 0.21 0.16 0.07 0.06 0.02 0.01 0.06 0.10 0.10 0.13 0.13 0.07 0.10 0.18 0.25 0.18 0.15 0.15 0.13 0.16 0.14 0.12 0.07 0.12 0.36 0.32 0.49 0.61 0.63 0.64 0.71 0.79 0.62 0.50 0.52 0.49
0.08 0.14 0.20 0.25 0.19 0.16 0.34 1.16 1.24 1.07 0.95 0.49 0.08 0.01 0.03 0.06 0.01 0.00 0.01 0.05 0.09 0.09 0.07 0.10 0.09 0.12 0.16 0.26 0.20 0.16 0.17 0.14 0.14 0.16 0.12 0.06 0.03 0.14 0.18 0.28 0.47 0.51 0.68 0.65 0.75 0.77 0.60 0.53 0.59

GFSSGP_prec_precacc24_108.txt.gz
Total_Precipitation_Accumulation
0.00 0.00 0.00 0.00 0.00 0.00 0.00 0.00 0.00 0.00 0.00 0.00 0.00 0.00 0.00 0.00 0.00 0.00 0.00 0.00 0.00 0.00 0.00 0.00 0.00 0.00 0.00 0.00 0.00 0.00 0.00 0.00 0.00 0.00 0.00 0.00 0.00 0.00 0.01 0.01 0.00 0.00 0.01 0.01 0.02 0.08 0.06 0.02 0.01
0.00 0.00 0.00 0.00 0.00 0.00 0.00 0.00 0.00 0.00 0.00 0.00 0.00 0.00 0.00 0.00 0.00 0.00 0.00 0.00 0.00 0.00 0.00 0.00 0.00 0.00 0.00 0.00 0.00 0.00 0.00 0.00 0.00 0.00 0.03 0.03 0.04 0.06 0.04 0.02 0.00 0.01 0.03 0.05 0.01 0.06 0.04 0.01 0.00
0.00 0.00 0.00 0.00 0.00 0.00 0.00 0.00 0.00 0.00 0.00 0.00 0.00 0.00 0.00 0.00 0.00 0.00 0.00 0.00 0.00 0.00 0.00 0.00 0.00 0.00 0.01 0.00 0.00 0.00 0.02 0.01 0.00 0.00 0.02 0.00 0.03 0.04 0.09 0.11 0.01 0.02 0.09 0.16 0.12 0.16 0.04 0.00 0.00
0.00 0.00 0.00 0.00 0.00 0.00 0.00 0.00 0.00 0.00 0.00 0.00 0.00 0.00 0.00 0.00 0.00 0.00 0.00 0.00 0.00 0.00 0.00 0.00 0.00 0.00 0.01 0.00 0.00 0.00 0.01 0.03 0.01 0.00 0.00 0.02 0.04 0.13 0.38 0.38 0.17 0.17 0.21 0.29 0.28 0.22 0.03 0.00 0.00
0.00 0.00 0.00 0.00 0.00 0.00 0.00 0.00 0.00 0.00 0.00 0.00 0.00 0.00 0.00 0.00 0.00 0.00 0.00 0.00 0.00 0.00 0.00 0.00 0.00 0.00 0.01 0.01 0.00 0.00 0.00 0.01 0.03 0.01 0.04 0.10 0.05 0.49 0.49 0.34 0.38 0.32 0.29 0.28 0.45 0.31 0.03 0.00 0.00
0.00 0.00 0.00 0.00 0.00 0.00 0.00 0.00 0.00 0.00 0.00 0.00 0.00 0.00 0.00 0.00 0.00 0.00 0.00 0.00 0.00 0.00 0.00 0.00 0.00 0.00 0.01 0.01 0.00 0.00 0.00 0.00 0.02 0.11 0.16 0.22 0.36 0.29 0.17 0.24 0.44 0.23 0.18 0.30 0.25 0.07 0.02 0.00 0.00
0.00 0.00 0.00 0.00 0.00 0.00 0.00 0.00 0.00 0.00 0.00 0.00 0.00 0.00 0.00 0.00 0.00 0.00 0.00 0.00 0.00 0.00 0.00 0.00 0.00 0.00 0.01 0.01 0.01 0.00 0.00 0.01 0.08 0.27 0.38 0.56 0.57 0.29 0.11 0.19 0.36 0.61 0.56 0.42 0.12 0.14 0.17 0.06 0.12
0.00 0.00 0.00 0.00 0.00 0.00 0.00 0.00 0.00 0.00 0.00 0.00 0.00 0.00 0.00 0.00 0.00 0.00 0.00 0.00 0.00 0.00 0.00 0.00 0.00 0.00 0.00 0.01 0.01 0.01 0.00 0.00 0.06 0.13 0.15 0.13 0.15 0.14 0.23 0.35 0.49 0.65 0.65 0.94 1.16 0.96 0.84 0.53 0.36
0.00 0.00 0.00 0.00 0.00 0.00 0.00 0.00 0.00 0.00 0.00 0.00 0.00 0.00 0.00 0.00 0.00 0.00 0.00 0.00 0.00 0.00 0.00 0.00 0.00 0.00 0.00 0.01 0.02 0.01 0.01 0.01 0.02 0.05 0.09 0.18 0.27 0.29 0.42 0.61 0.78 1.08 1.17 1.18 0.77 0.54 0.36 0.34 0.32
0.00 0.00 0.00 0.00 0.00 0.00 0.00 0.00 0.00 0.00 0.00 0.00 0.00 0.00 0.00 0.00 0.00 0.00 0.00 0.00 0.00 0.00 0.00 0.00 0.00 0.00 0.01 0.01 0.01 0.01 0.03 0.03 0.03 0.03 0.02 0.11 0.12 0.16 0.18 0.38 0.47 0.52 0.81 0.84 0.73 0.62 0.42 0.33 0.28
0.00 0.00 0.00 0.00 0.00 0.00 0.00 0.00 0.00 0.00 0.00 0.00 0.00 0.00 0.00 0.00 0.00 0.02 0.01 0.00 0.00 0.00 0.00 0.00 0.00 0.00 0.01 0.02 0.02 0.02 0.02 0.02 0.03 0.04 0.05 0.05 0.07 0.10 0.18 0.16 0.27 0.29 0.62 0.73 0.96 0.76 0.49 0.28 0.20
0.00 0.00 0.00 0.00 0.00 0.00 0.00 0.00 0.00 0.00 0.00 0.00 0.00 0.00 0.00 0.00 0.00 0.01 0.04 0.03 0.01 0.00 0.00 0.00 0.00 0.00 0.00 0.01 0.02 0.02 0.03 0.02 0.02 0.04 0.07 0.09 0.11 0.10 0.06 0.05 0.14 0.21 0.27 0.41 0.95 1.01 0.61 0.44 0.35
0.00 0.00 0.00 0.00 0.00 0.00 0.00 0.00 0.00 0.00 0.00 0.00 0.00 0.00 0.00 0.00 0.00 0.00 0.00 0.02 0.07 0.01 0.00 0.00 0.00 0.00 0.00 0.01 0.01 0.01 0.02 0.03 0.02 0.04 0.05 0.05 0.05 0.06 0.06 0.06 0.11 0.15 0.10 0.21 0.41 0.68 0.57 0.43 0.36
0.00 0.00 0.00 0.00 0.00 0.00 0.00 0.00 0.00 0.00 0.00 0.00 0.00 0.00 0.00 0.00 0.00 0.00 0.00 0.00 0.01 0.00 0.00 0.00 0.00 0.00 0.01 0.00 0.00 0.01 0.01 0.01 0.03 0.04 0.03 0.03 0.05 0.05 0.03 0.07 0.11 0.11 0.11 0.19 0.33 0.60 0.60 0.55 0.35
0.00 0.00 0.00 0.00 0.00 0.00 0.00 0.00 0.00 0.00 0.00 0.00 0.00 0.00 0.00 0.00 0.00 0.00 0.00 0.00 0.00 0.00 0.00 0.00 0.00 0.02 0.02 0.05 0.02 0.01 0.01 0.02 0.03 0.03 0.05 0.07 0.07 0.08 0.05 0.14 0.18 0.10 0.11 0.21 0.41 0.57 0.74 0.61 0.47
0.00 0.00 0.00 0.00 0.00 0.00 0.00 0.00 0.00 0.00 0.00 0.00 0.00 0.00 0.00 0.00 0.00 0.00 0.00 0.00 0.00 0.00 0.00 0.00 0.00 0.00 0.02 0.04 0.03 0.02 0.02 0.04 0.04 0.04 0.06 0.08 0.10 0.11 0.08 0.17 0.37 0.31 0.18 0.19 0.28 0.44 0.77 0.57 0.37
0.00 0.00 0.00 0.00 0.00 0.00 0.00 0.00 0.00 0.00 0.00 0.00 0.00 0.00 0.00 0.00 0.00 0.00 0.00 0.00 0.00 0.00 0.00 0.00 0.00 0.00 0.00 0.05 0.06 0.07 0.07 0.04 0.04 0.05 0.07 0.08 0.11 0.10 0.12 0.21 0.29 0.38 0.34 0.28 0.24 0.36 0.50 0.50 0.39
0.00 0.00 0.00 0.00 0.00 0.00 0.00 0.00 0.00 0.00 0.00 0.00 0.00 0.00 0.00 0.00 0.00 0.00 0.00 0.00 0.00 0.00 0.00 0.00 0.00 0.00 0.02 0.11 0.17 0.16 0.13 0.07 0.02 0.03 0.03 0.04 0.08 0.11 0.13 0.22 0.39 0.29 0.31 0.24 0.21 0.35 0.46 0.37 0.42
0.00 0.00 0.00 0.00 0.00 0.00 0.00 0.00 0.00 0.00 0.00 0.00 0.00 0.00 0.00 0.00 0.00 0.00 0.00 0.00 0.00 0.00 0.00 0.00 0.00 0.00 0.02 0.03 0.04 0.04 0.03 0.04 0.04 0.03 0.09 0.07 0.14 0.23 0.22 0.13 0.27 0.53 0.37 0.27 0.18 0.29 0.46 0.56 0.39
0.00 0.00 0.00 0.00 0.00 0.00 0.00 0.00 0.00 0.00 0.00 0.00 0.00 0.00 0.00 0.00 0.00 0.00 0.00 0.00 0.00 0.00 0.00 0.00 0.00 0.00 0.00 0.01 0.02 0.03 0.05 0.06 0.09 0.13 0.16 0.18 0.19 0.37 0.42 0.17 0.13 0.29 0.53 0.62 0.35 0.26 0.43 0.49 0.44
0.00 0.00 0.00 0.00 0.00 0.00 0.00 0.00 0.00 0.00 0.00 0.00 0.00 0.00 0.00 0.00 0.00 0.00 0.00 0.00 0.00 0.00 0.00 0.00 0.00 0.00 0.01 0.01 0.03 0.04 0.08 0.10 0.14 0.19 0.33 0.33 0.31 0.41 0.47 0.36 0.27 0.21 0.35 0.57 0.52 0.28 0.23 0.35 0.40
0.00 0.00 0.00 0.00 0.00 0.00 0.00 0.00 0.00 0.00 0.00 0.00 0.00 0.00 0.00 0.00 0.00 0.00 0.00 0.00 0.00 0.00 0.00 0.00 0.00 0.00 0.01 0.00 0.00 0.01 0.01 0.02 0.06 0.23 0.33 0.45 0.64 0.57 0.38 0.47 0.48 0.29 0.19 0.35 0.37 0.28 0.25 0.25 0.28
0.00 0.00 0.00 0.00 0.00 0.00 0.00 0.00 0.00 0.00 0.00 0.00 0.00 0.00 0.00 0.00 0.00 0.00 0.00 0.00 0.00 0.00 0.00 0.00 0.00 0.00 0.00 0.00 0.00 0.01 0.01 0.01 0.02 0.28 0.51 0.44 0.60 0.69 0.54 0.45 0.47 0.37 0.23 0.22 0.33 0.28 0.26 0.25 0.17
0.00 0.00 0.01 0.02 0.03 0.04 0.00 0.00 0.00 0.00 0.00 0.01 0.05 0.04 0.01 0.01 0.01 0.01 0.01 0.01 0.00 0.00 0.00 0.00 0.00 0.00 0.00 0.00 0.00 0.01 0.00 0.01 0.01 0.16 0.36 0.59 0.51 0.57 0.56 0.58 0.56 0.38 0.24 0.18 0.24 0.28 0.24 0.17 0.18
0.01 0.05 0.12 0.13 0.05 0.02 0.00 0.00 0.01 0.04 0.11 0.15 0.21 0.24 0.13 0.10 0.09 0.07 0.06 0.05 0.04 0.01 0.00 0.00 0.00 0.00 0.01 0.01 0.00 0.01 0.02 0.03 0.02 0.04 0.15 0.32 0.44 0.38 0.39 0.52 0.55 0.53 0.32 0.20 0.23 0.32 0.30 0.24 0.19
0.02 0.09 0.15 0.11 0.07 0.04 0.01 0.02 0.04 0.12 0.20 0.37 0.60 0.45 0.36 0.22 0.11 0.15 0.15 0.12 0.07 0.05 0.04 0.02 0.02 0.03 0.04 0.04 0.04 0.06 0.06 0.07 0.05 0.04 0.17 0.43 0.38 0.43 0.34 0.48 0.53 0.53 0.47 0.41 0.31 0.32 0.30 0.27 0.25
0.11 0.07 0.06 0.14 0.13 0.17 0.08 0.04 0.11 0.23 0.33 0.29 0.42 0.40 0.33 0.27 0.17 0.17 0.19 0.18 0.14 0.11 0.08 0.06 0.05 0.11 0.15 0.11 0.11 0.14 0.12 0.10 0.09 0.10 0.10 0.37 0.52 0.56 0.52 0.60 0.61 0.67 0.64 0.55 0.51 0.40 0.33 0.28 0.29
0.15 0.08 0.18 0.22 0.30 0.18 0.19 0.29 0.95 0.97 0.65 0.94 0.82 0.47 0.32 0.24 0.21 0.19 0.22 0.26 0.21 0.22 0.19 0.16 0.09 0.05 0.13 0.20 0.20 0.16 0.19 0.19 0.15 0.12 0.10 0.14 0.34 0.45 0.45 0.58 0.58 0.66 0.71 0.68 0.61 0.54 0.47 0.40 0.38
0.12 0.22 0.21 0.20 0.09 0.19 0.43 1.22 1.34 1.71 1.10 0.82 0.45 0.33 0.34 0.20 0.21 0.31 0.27 0.25 0.28 0.18 0.21 0.25 0.16 0.13 0.24 0.28 0.22 0.18 0.17 0.14 0.16 0.15 0.15 0.11 0.16 0.36 0.32 0.50 0.61 0.65 0.65 0.72 0.81 0.62 0.50 0.52 0.49
0.08 0.14 0.25 0.39 0.20 0.15 0.35 1.21 1.28 1.18 1.09 0.55 0.09 0.01 0.05 0.13 0.11 0.20 0.23 0.11 0.14 0.12 0.10 0.16 0.22 0.23 0.21 0.31 0.26 0.24 0.19 0.15 0.15 0.16 0.16 0.11 0.08 0.17 0.19 0.30 0.50 0.53 0.69 0.67 0.77 0.79 0.62 0.55 0.61

GFSSGP_prec_precacc24_111.txt.gz
Total_Precipitation_Accumulation
0.00 0.00 0.00 0.00 0.00 0.00 0.00 0.00 0.00 0.00 0.00 0.00 0.00 0.00 0.00 0.00 0.00 0.00 0.00 0.00 0.00 0.00 0.00 0.00 0.00 0.00 0.00 0.00 0.00 0.00 0.00 0.00 0.00 0.00 0.00 0.00 0.00 0.00 0.01 0.01 0.00 0.00 0.01 0.01 0.02 0.08 0.06 0.03 0.01
0.00 0.00 0.00 0.00 0.00 0.00 0.00 0.00 0.00 0.00 0.00 0.00 0.00 0.00 0.00 0.00 0.00 0.00 0.00 0.00 0.00 0.00 0.00 0.00 0.00 0.00 0.00 0.00 0.00 0.00 0.00 0.00 0.00 0.00 0.03 0.03 0.04 0.06 0.04 0.01 0.00 0.01 0.03 0.04 0.01 0.06 0.03 0.00 0.00
0.00 0.00 0.00 0.00 0.00 0.00 0.00 0.00 0.00 0.00 0.00 0.00 0.00 0.00 0.00 0.00 0.00 0.00 0.00 0.00 0.00 0.00 0.00 0.00 0.00 0.00 0.00 0.00 0.00 0.00 0.00 0.00 0.00 0.00 0.02 0.00 0.03 0.04 0.04 0.06 0.01 0.01 0.08 0.15 0.11 0.15 0.03 0.00 0.00
0.00 0.00 0.00 0.00 0.00 0.00 0.00 0.00 0.00 0.00 0.00 0.00 0.00 0.00 0.00 0.00 0.00 0.00 0.00 0.00 0.00 0.00 0.00 0.00 0.00 0.00 0.00 0.00 0.00 0.00 0.00 0.00 0.00 0.00 0.00 0.02 0.04 0.09 0.23 0.22 0.09 0.10 0.19 0.25 0.23 0.18 0.02 0.00 0.00
0.00 0.00 0.00 0.00 0.00 0.00 0.00 0.00 0.00 0.00 0.00 0.00 0.00 0.00 0.00 0.00 0.00 0.00 0.00 0.00 0.00 0.00 0.00 0.00 0.00 0.00 0.00 0.00 0.00 0.00 0.00 0.01 0.01 0.00 0.00 0.02 0.03 0.31 0.29 0.17 0.23 0.20 0.22 0.26 0.43 0.28 0.02 0.00 0.00
0.00 0.00 0.00 0.00 0.00 0.00 0.00 0.00 0.00 0.00 0.00 0.00 0.00 0.00 0.00 0.00 0.00 0.00 0.00 0.00 0.00 0.00 0.00 0.00 0.00 0.00 0.00 0.00 0.00 0.00 0.00 0.00 0.02 0.09 0.09 0.06 0.19 0.21 0.13 0.18 0.36 0.17 0.14 0.25 0.24 0.06 0.01 0.00 0.00
0.00 0.00 0.00 0.00 0.00 0.00 0.00 0.00 0.00 0.00 0.00 0.00 0.00 0.00 0.00 0.00 0.00 0.00 0.00 0.00 0.00 0.00 0.00 0.00 0.00 0.00 0.00 0.00 0.00 0.00 0.00 0.00 0.05 0.20 0.35 0.55 0.56 0.27 0.09 0.16 0.32 0.57 0.54 0.40 0.09 0.14 0.17 0.06 0.12
0.00 0.00 0.00 0.00 0.00 0.00 0.00 0.00 0.00 0.00 0.00 0.00 0.00 0.00 0.00 0.00 0.00 0.00 0.00 0.00 0.00 0.00 0.00 0.00 0.00 0.00 0.00 0.00 0.00 0.00 0.00 0.00 0.05 0.11 0.14 0.11 0.14 0.13 0.19 0.30 0.43 0.59 0.61 0.91 1.12 0.95 0.84 0.53 0.36
0.00 0.00 0.00 0.00 0.00 0.00 0.00 0.00 0.00 0.00 0.00 0.00 0.00 0.00 0.00 0.00 0.00 0.00 0.00 0.00 0.00 0.00 0.00 0.00 0.00 0.00 0.00 0.00 0.00 0.01 0.01 0.01 0.01 0.04 0.08 0.18 0.25 0.23 0.33 0.48 0.68 0.93 0.98 1.12 0.74 0.51 0.36 0.34 0.32
0.00 0.00 0.00 0.00 0.00 0.00 0.00 0.00 0.00 0.00 0.00 0.00 0.00 0.00 0.00 0.00 0.00 0.00 0.00 0.00 0.01 0.00 0.00 0.00 0.00 0.00 0.00 0.00 0.00 0.01 0.02 0.02 0.02 0.01 0.02 0.10 0.09 0.13 0.14 0.30 0.36 0.34 0.48 0.62 0.66 0.60 0.42 0.33 0.27
0.00 0.00 0.00 0.00 0.00 0.00 0.00 0.00 0.00 0.00 0.00 0.00 0.00 0.00 0.00 0.00 0.00 0.02 0.01 0.00 0.00 0.00 0.00 0.00 0.00 0.00 0.00 0.00 0.01 0.01 0.01 0.02 0.02 0.02 0.03 0.04 0.05 0.08 0.17 0.12 0.18 0.15 0.41 0.53 0.85 0.74 0.49 0.28 0.20
0.00 0.00 0.00 0.00 0.00 0.00 0.00 0.00 0.00 0.00 0.00 0.00 0.00 0.00 0.00 0.00 0.00 0.01 0.04 0.04 0.02 0.00 0.00 0.00 0.00 0.00 0.00 0.01 0.01 0.00 0.01 0.01 0.01 0.01 0.02 0.05 0.07 0.06 0.05 0.03 0.07 0.11 0.16 0.32 0.90 1.01 0.61 0.44 0.35
0.00 0.00 0.00 0.00 0.00 0.00 0.00 0.00 0.00 0.00 0.00 0.00 0.00 0.00 0.00 0.00 0.00 0.00 0.00 0.02 0.07 0.01 0.00 0.00 0.00 0.00 0.00 0.00 0.01 0.00 0.00 0.01 0.01 0.02 0.01 0.02 0.04 0.04 0.05 0.03 0.06 0.08 0.05 0.16 0.39 0.68 0.57 0.43 0.36
0.00 0.00 0.00 0.00 0.00 0.00 0.00 0.00 0.00 0.00 0.00 0.00 0.00 0.00 0.00 0.00 0.00 0.00 0.00 0.00 0.01 0.00 0.00 0.00 0.00 0.00 0.01 0.00 0.00 0.00 0.01 0.00 0.01 0.02 0.02 0.02 0.04 0.03 0.03 0.04 0.08 0.09 0.08 0.16 0.33 0.60 0.60 0.55 0.35
0.00 0.00 0.00 0.00 0.00 0.00 0.00 0.00 0.00 0.00 0.00 0.00 0.00 0.00 0.00 0.00 0.00 0.00 0.00 0.00 0.00 0.00 0.00 0.00 0.00 0.02 0.02 0.07 0.02 0.01 0.00 0.01 0.01 0.01 0.03 0.05 0.06 0.06 0.04 0.11 0.16 0.08 0.08 0.20 0.40 0.57 0.74 0.61 0.47
0.00 0.00 0.00 0.00 0.00 0.00 0.00 0.00 0.00 0.00 0.00 0.00 0.00 0.00 0.00 0.00 0.00 0.00 0.00 0.00 0.00 0.00 0.00 0.00 0.00 0.00 0.02 0.04 0.04 0.02 0.02 0.02 0.02 0.02 0.04 0.07 0.09 0.09 0.06 0.11 0.32 0.26 0.14 0.18 0.28 0.44 0.78 0.57 0.38
0.00 0.00 0.00 0.00 0.00 0.00 0.00 0.00 0.00 0.00 0.00 0.00 0.00 0.00 0.00 0.00 0.00 0.00 0.00 0.00 0.00 0.00 0.00 0.00 0.00 0.00 0.00 0.05 0.05 0.07 0.07 0.04 0.02 0.02 0.04 0.06 0.08 0.08 0.10 0.12 0.19 0.30 0.30 0.27 0.24 0.36 0.50 0.50 0.40
0.00 0.00 0.00 0.00 0.00 0.00 0.00 0.00 0.00 0.00 0.00 0.00 0.00 0.00 0.00 0.00 0.00 0.00 0.00 0.00 0.00 0.00 0.00 0.00 0.00 0.00 0.02 0.10 0.16 0.17 0.14 0.07 0.02 0.02 0.03 0.04 0.06 0.06 0.10 0.18 0.28 0.18 0.28 0.24 0.21 0.35 0.46 0.37 0.43
0.00 0.00 0.00 0.00 0.00 0.00 0.00 0.00 0.00 0.00 0.00 0.00 0.00 0.00 0.00 0.00 0.00 0.00 0.00 0.00 0.00 0.00 0.00 0.00 0.00 0.00 0.02 0.02 0.03 0.03 0.03 0.03 0.03 0.02 0.05 0.03 0.04 0.05 0.08 0.10 0.25 0.48 0.36 0.28 0.18 0.29 0.47 0.58 0.41
0.00 0.00 0.00 0.00 0.00 0.00 0.00 0.00 0.00 0.00 0.00 0.00 0.00 0.00 0.00 0.00 0.00 0.00 0.00 0.00 0.00 0.00 0.00 0.00 0.00 0.00 0.00 0.01 0.02 0.02 0.04 0.06 0.09 0.10 0.09 0.06 0.05 0.12 0.21 0.12 0.11 0.28 0.52 0.62 0.35 0.26 0.44 0.50 0.46
0.00 0.00 0.00 0.00 0.00 0.00 0.00 0.00 0.00 0.00 0.00 0.00 0.00 0.00 0.00 0.00 0.00 0.00 0.00 0.00 0.00 0.00 0.00 0.00 0.00 0.00 0.01 0.01 0.03 0.04 0.08 0.10 0.13 0.07 0.09 0.09 0.09 0.17 0.32 0.30 0.24 0.21 0.35 0.57 0.52 0.29 0.23 0.35 0.41
0.00 0.00 0.00 0.00 0.00 0.00 0.00 0.00 0.00 0.00 0.00 0.00 0.00 0.00 0.00 0.00 0.00 0.00 0.00 0.00 0.00 0.00 0.00 0.00 0.00 0.00 0.01 0.00 0.00 0.01 0.01 0.01 0.01 0.03 0.06 0.20 0.43 0.34 0.29 0.40 0.45 0.30 0.19 0.35 0.39 0.30 0.26 0.26 0.30
0.00 0.00 0.00 0.00 0.00 0.00 0.00 0.00 0.00 0.00 0.00 0.00 0.00 0.00 0.00 0.00 0.00 0.00 0.00 0.00 0.00 0.00 0.00 0.00 0.00 0.00 0.00 0.00 0.00 0.01 0.01 0.01 0.01 0.04 0.12 0.17 0.40 0.56 0.54 0.42 0.48 0.38 0.23 0.22 0.33 0.29 0.28 0.26 0.18
0.00 0.00 0.01 0.02 0.03 0.04 0.00 0.00 0.00 0.00 0.00 0.01 0.05 0.04 0.02 0.02 0.01 0.01 0.01 0.01 0.01 0.00 0.00 0.00 0.00 0.00 0.00 0.00 0.00 0.01 0.00 0.01 0.01 0.03 0.09 0.22 0.31 0.47 0.57 0.61 0.61 0.41 0.25 0.18 0.26 0.29 0.26 0.19 0.20
0.01 0.05 0.12 0.13 0.05 0.02 0.00 0.00 0.01 0.05 0.12 0.16 0.22 0.26 0.14 0.11 0.10 0.08 0.06 0.06 0.05 0.03 0.01 0.01 0.00 0.00 0.01 0.01 0.00 0.01 0.02 0.03 0.01 0.01 0.03 0.10 0.24 0.24 0.31 0.49 0.56 0.54 0.34 0.21 0.24 0.32 0.31 0.25 0.21
0.02 0.09 0.15 0.11 0.07 0.04 0.01 0.02 0.04 0.13 0.20 0.37 0.61 0.47 0.38 0.23 0.11 0.16 0.16 0.16 0.13 0.12 0.09 0.06 0.05 0.05 0.04 0.04 0.04 0.06 0.07 0.07 0.05 0.04 0.07 0.16 0.18 0.25 0.23 0.42 0.57 0.52 0.48 0.41 0.32 0.34 0.31 0.28 0.26
0.11 0.07 0.06 0.14 0.12 0.16 0.08 0.04 0.11 0.23 0.33 0.29 0.43 0.43 0.38 0.32 0.20 0.18 0.20 0.23 0.21 0.18 0.14 0.12 0.12 0.19 0.21 0.14 0.12 0.15 0.14 0.11 0.09 0.10 0.09 0.23 0.29 0.29 0.28 0.52 0.55 0.57 0.56 0.53 0.52 0.41 0.35 0.29 0.31
0.15 0.08 0.17 0.22 0.31 0.19 0.19 0.29 0.95 0.97 0.65 0.94 0.83 0.49 0.35 0.30 0.30 0.26 0.25 0.28 0.27 0.28 0.22 0.22 0.16 0.14 0.19 0.28 0.28 0.20 0.22 0.24 0.18 0.13 0.10 0.14 0.27 0.31 0.29 0.54 0.54 0.62 0.68 0.67 0.62 0.57 0.48 0.43 0.41
0.11 0.22 0.21 0.21 0.08 0.19 0.43 1.22 1.32 1.71 1.11 0.84 0.46 0.37 0.40 0.30 0.36 0.49 0.51 0.39 0.47 0.40 0.33 0.26 0.19 0.19 0.34 0.39 0.32 0.26 0.22 0.20 0.20 0.18 0.16 0.12 0.16 0.35 0.25 0.38 0.50 0.56 0.63 0.72 0.81 0.65 0.53 0.53 0.50
0.07 0.14 0.27 0.42 0.21 0.16 0.36 1.23 1.27 1.18 1.11 0.56 0.10 0.03 0.08 0.23 0.24 0.35 0.75 0.62 0.53 0.39 0.32 0.23 0.26 0.29 0.28 0.42 0.34 0.31 0.24 0.19 0.21 0.23 0.21 0.14 0.12 0.21 0.23 0.30 0.46 0.48 0.60 0.65 0.75 0.80 0.64 0.56 0.61

GFSSGP_prec_precacc24_114.txt.gz
Total_Precipitation_Accumulation
0.00 0.00 0.00 0.00 0.00 0.00 0.00 0.00 0.00 0.00 0.00 0.00 0.00 0.00 0.00 0.00 0.00 0.00 0.00 0.00 0.00 0.00 0.00 0.00 0.00 0.00 0.00 0.00 0.00 0.00 0.00 0.00 0.00 0.00 0.00 0.00 0.00 0.00 0.01 0.01 0.00 0.00 0.01 0.01 0.02 0.08 0.06 0.03 0.01
0.00 0.00 0.00 0.00 0.00 0.00 0.00 0.00 0.00 0.00 0.00 0.00 0.00 0.00 0.00 0.00 0.00 0.00 0.00 0.00 0.00 0.00 0.00 0.00 0.00 0.00 0.00 0.00 0.00 0.00 0.00 0.00 0.00 0.00 0.03 0.03 0.04 0.06 0.04 0.01 0.00 0.01 0.03 0.04 0.01 0.05 0.05 0.01 0.00
0.00 0.00 0.00 0.00 0.00 0.00 0.00 0.00 0.00 0.00 0.00 0.00 0.00 0.00 0.00 0.00 0.00 0.00 0.00 0.00 0.00 0.00 0.00 0.00 0.00 0.00 0.00 0.00 0.00 0.00 0.00 0.00 0.00 0.00 0.02 0.00 0.03 0.04 0.04 0.06 0.00 0.01 0.07 0.14 0.08 0.12 0.03 0.00 0.00
0.00 0.00 0.00 0.00 0.00 0.00 0.00 0.00 0.00 0.00 0.00 0.00 0.00 0.00 0.00 0.00 0.00 0.00 0.00 0.00 0.00 0.00 0.00 0.00 0.00 0.00 0.00 0.00 0.00 0.00 0.00 0.00 0.00 0.00 0.00 0.02 0.04 0.09 0.22 0.21 0.06 0.07 0.16 0.21 0.18 0.13 0.01 0.00 0.00
0.00 0.00 0.00 0.00 0.00 0.00 0.00 0.00 0.00 0.00 0.00 0.00 0.00 0.00 0.00 0.00 0.00 0.00 0.00 0.00 0.00 0.00 0.00 0.00 0.00 0.00 0.00 0.00 0.00 0.00 0.00 0.00 0.01 0.00 0.00 0.02 0.02 0.22 0.21 0.16 0.18 0.06 0.09 0.17 0.37 0.26 0.00 0.00 0.00
0.00 0.00 0.00 0.00 0.00 0.00 0.00 0.00 0.00 0.00 0.00 0.00 0.00 0.00 0.00 0.00 0.00 0.00 0.00 0.00 0.00 0.00 0.00 0.00 0.00 0.00 0.00 0.00 0.00 0.00 0.00 0.00 0.01 0.04 0.06 0.00 0.07 0.12 0.06 0.16 0.36 0.13 0.08 0.18 0.21 0.06 0.00 0.00 0.00
0.00 0.00 0.00 0.00 0.00 0.00 0.00 0.00 0.00 0.00 0.00 0.00 0.00 0.00 0.00 0.00 0.00 0.00 0.00 0.00 0.00 0.00 0.00 0.00 0.00 0.00 0.00 0.00 0.00 0.00 0.00 0.00 0.02 0.08 0.14 0.35 0.43 0.24 0.08 0.15 0.32 0.55 0.49 0.36 0.08 0.13 0.17 0.06 0.12
0.00 0.00 0.00 0.00 0.00 0.00 0.00 0.00 0.00 0.00 0.00 0.00 0.00 0.00 0.00 0.00 0.00 0.00 0.00 0.00 0.00 0.00 0.00 0.00 0.00 0.00 0.00 0.00 0.00 0.00 0.00 0.00 0.02 0.06 0.11 0.09 0.08 0.12 0.16 0.27 0.38 0.54 0.58 0.88 1.10 0.93 0.84 0.53 0.36
0.00 0.00 0.00 0.00 0.00 0.00 0.00 0.00 0.00 0.00 0.00 0.00 0.00 0.00 0.00 0.00 0.00 0.00 0.00 0.00 0.00 0.00 0.00 0.00 0.00 0.00 0.00 0.00 0.00 0.00 0.00 0.00 0.01 0.03 0.04 0.09 0.15 0.16 0.28 0.38 0.55 0.75 0.80 1.02 0.68 0.47 0.35 0.34 0.32
0.00 0.00 0.00 0.00 0.00 0.00 0.00 0.00 0.00 0.00 0.00 0.00 0.00 0.00 0.00 0.00 0.00 0.00 0.00 0.00 0.01 0.00 0.00 0.00 0.00 0.00 0.00 0.00 0.00 0.00 0.00 0.00 0.00 0.01 0.01 0.06 0.08 0.13 0.13 0.26 0.32 0.25 0.28 0.36 0.43 0.47 0.36 0.31 0.25
0.00 0.00 0.00 0.00 0.00 0.00 0.00 0.00 0.00 0.00 0.00 0.00 0.00 0.00 0.00 0.00 0.00 0.02 0.01 0.00 0.00 0.00 0.00 0.00 0.00 0.00 0.00 0.00 0.00 0.00 0.01 0.01 0.00 0.01 0.02 0.03 0.05 0.08 0.18 0.12 0.16 0.09 0.20 0.26 0.37 0.51 0.40 0.26 0.18
0.00 0.00 0.00 0.00 0.00 0.00 0.00 0.00 0.00 0.00 0.00 0.00 0.00 0.00 0.00 0.00 0.00 0.01 0.04 0.04 0.02 0.00 0.00 0.00 0.00 0.00 0.00 0.00 0.00 0.00 0.00 0.01 0.01 0.01 0.02 0.04 0.06 0.06 0.05 0.03 0.05 0.04 0.11 0.21 0.56 0.75 0.52 0.43 0.34
0.00 0.00 0.00 0.00 0.00 0.00 0.00 0.00 0.00 0.00 0.00 0.00 0.00 0.00 0.00 0.00 0.00 0.00 0.00 0.02 0.07 0.01 0.00 0.00 0.00 0.00 0.00 0.00 0.00 0.00 0.00 0.00 0.01 0.01 0.01 0.02 0.03 0.04 0.03 0.02 0.01 0.02 0.03 0.10 0.25 0.49 0.51 0.41 0.35
0.00 0.00 0.00 0.00 0.00 0.00 0.00 0.00 0.00 0.00 0.00 0.00 0.00 0.00 0.00 0.00 0.00 0.00 0.00 0.00 0.01 0.00 0.00 0.00 0.00 0.00 0.00 0.00 0.00 0.00 0.00 0.00 0.01 0.01 0.02 0.01 0.03 0.03 0.02 0.01 0.01 0.03 0.05 0.11 0.25 0.51 0.56 0.53 0.35
0.00 0.00 0.00 0.00 0.00 0.00 0.00 0.00 0.00 0.00 0.00 0.00 0.00 0.00 0.00 0.00 0.00 0.00 0.00 0.00 0.00 0.00 0.00 0.00 0.00 0.02 0.02 0.07 0.02 0.01 0.00 0.00 0.00 0.00 0.01 0.02 0.03 0.05 0.03 0.04 0.02 0.04 0.07 0.10 0.27 0.47 0.70 0.59 0.47
0.00 0.00 0.00 0.00 0.00 0.00 0.00 0.00 0.00 0.00 0.00 0.00 0.00 0.00 0.00 0.00 0.00 0.00 0.00 0.00 0.00 0.00 0.00 0.00 0.00 0.00 0.02 0.04 0.04 0.02 0.02 0.02 0.01 0.01 0.00 0.01 0.03 0.05 0.04 0.05 0.12 0.20 0.14 0.12 0.17 0.36 0.74 0.56 0.39
0.00 0.00 0.00 0.00 0.00 0.00 0.00 0.00 0.00 0.00 0.00 0.00 0.00 0.00 0.00 0.00 0.00 0.00 0.00 0.00 0.00 0.00 0.00 0.00 0.00 0.00 0.00 0.05 0.05 0.07 0.07 0.03 0.02 0.01 0.01 0.01 0.01 0.03 0.06 0.09 0.13 0.28 0.28 0.21 0.19 0.31 0.48 0.51 0.41
0.00 0.00 0.00 0.00 0.00 0.00 0.00 0.00 0.00 0.00 0.00 0.00 0.00 0.00 0.00 0.00 0.00 0.00 0.00 0.00 0.00 0.00 0.00 0.00 0.00 0.00 0.02 0.10 0.16 0.16 0.14 0.07 0.02 0.02 0.01 0.01 0.01 0.03 0.05 0.12 0.22 0.12 0.21 0.15 0.17 0.32 0.45 0.37 0.44
0.00 0.00 0.00 0.00 0.00 0.00 0.00 0.00 0.00 0.00 0.00 0.00 0.00 0.00 0.00 0.00 0.00 0.00 0.00 0.00 0.00 0.00 0.00 0.00 0.00 0.00 0.02 0.02 0.03 0.02 0.02 0.03 0.03 0.02 0.04 0.01 0.01 0.02 0.03 0.07 0.19 0.31 0.24 0.18 0.16 0.28 0.46 0.57 0.41
0.00 0.00 0.00 0.00 0.00 0.00 0.00 0.00 0.00 0.00 0.00 0.00 0.00 0.00 0.00 0.00 0.00 0.00 0.00 0.00 0.00 0.00 0.00 0.00 0.00 0.00 0.00 0.01 0.01 0.02 0.04 0.06 0.08 0.09 0.08 0.05 0.02 0.02 0.03 0.04 0.07 0.15 0.38 0.50 0.32 0.25 0.43 0.49 0.47
0.00 0.00 0.00 0.00 0.00 0.00 0.00 0.00 0.00 0.00 0.00 0.00 0.00 0.00 0.00 0.00 0.00 0.00 0.00 0.00 0.00 0.00 0.00 0.00 0.00 0.00 0.01 0.01 0.02 0.04 0.07 0.09 0.12 0.06 0.06 0.04 0.04 0.07 0.07 0.11 0.11 0.14 0.22 0.49 0.50 0.28 0.23 0.36 0.42
0.00 0.00 0.00 0.00 0.00 0.00 0.00 0.00 0.00 0.00 0.00 0.00 0.00 0.00 0.00 0.00 0.00 0.00 0.00 0.00 0.00 0.00 0.00 0.00 0.00 0.00 0.01 0.00 0.00 0.01 0.01 0.01 0.01 0.02 0.02 0.05 0.11 0.10 0.10 0.16 0.27 0.20 0.17 0.32 0.38 0.30 0.25 0.26 0.30
0.00 0.00 0.00 0.00 0.00 0.00 0.00 0.00 0.00 0.00 0.00 0.00 0.00 0.00 0.00 0.00 0.00 0.00 0.00 0.00 0.00 0.00 0.00 0.00 0.00 0.00 0.00 0.00 0.00 0.01 0.00 0.00 0.00 0.03 0.05 0.05 0.09 0.23 0.32 0.18 0.26 0.28 0.21 0.22 0.33 0.29 0.28 0.26 0.18
0.00 0.00 0.01 0.02 0.03 0.04 0.00 0.00 0.00 0.00 0.00 0.01 0.05 0.04 0.02 0.02 0.01 0.01 0.01 0.01 0.01 0.00 0.00 0.00 0.00 0.00 0.00 0.00 0.00 0.00 0.00 0.00 0.00 0.01 0.04 0.04 0.08 0.23 0.36 0.41 0.42 0.30 0.22 0.18 0.25 0.30 0.26 0.19 0.19
0.01 0.05 0.12 0.13 0.05 0.02 0.00 0.00 0.01 0.06 0.12 0.16 0.22 0.26 0.14 0.11 0.10 0.08 0.06 0.06 0.05 0.03 0.01 0.01 0.00 0.00 0.01 0.01 0.00 0.01 0.02 0.03 0.01 0.01 0.02 0.02 0.05 0.10 0.19 0.33 0.41 0.42 0.31 0.28 0.28 0.36 0.32 0.26 0.21
0.02 0.09 0.15 0.11 0.07 0.04 0.01 0.02 0.04 0.13 0.20 0.37 0.61 0.47 0.38 0.23 0.11 0.16 0.16 0.16 0.13 0.13 0.09 0.07 0.06 0.06 0.05 0.04 0.04 0.06 0.07 0.06 0.04 0.04 0.03 0.03 0.06 0.11 0.16 0.28 0.48 0.50 0.52 0.46 0.33 0.37 0.35 0.31 0.27
0.11 0.07 0.06 0.14 0.12 0.16 0.08 0.04 0.11 0.23 0.33 0.29 0.43 0.43 0.38 0.32 0.20 0.18 0.20 0.23 0.21 0.19 0.16 0.15 0.16 0.23 0.23 0.16 0.13 0.15 0.14 0.11 0.10 0.10 0.09 0.09 0.13 0.18 0.17 0.36 0.51 0.55 0.54 0.53 0.53 0.44 0.38 0.32 0.33
0.15 0.07 0.17 0.22 0.30 0.19 0.19 0.29 0.95 0.96 0.65 0.94 0.83 0.49 0.36 0.31 0.30 0.27 0.27 0.29 0.28 0.29 0.25 0.29 0.22 0.20 0.26 0.34 0.33 0.21 0.22 0.26 0.20 0.15 0.11 0.09 0.12 0.16 0.13 0.31 0.46 0.57 0.65 0.66 0.63 0.61 0.55 0.46 0.43
0.11 0.21 0.21 0.21 0.08 0.19 0.44 1.23 1.31 1.71 1.12 0.85 0.47 0.37 0.40 0.30 0.37 0.52 0.60 0.48 0.54 0.50 0.41 0.34 0.25 0.25 0.41 0.49 0.43 0.33 0.25 0.25 0.25 0.22 0.18 0.13 0.17 0.23 0.14 0.22 0.45 0.56 0.65 0.73 0.83 0.68 0.58 0.58 0.51
0.07 0.13 0.28 0.43 0.22 0.18 0.37 1.25 1.28 1.19 1.12 0.57 0.10 0.03 0.08 0.24 0.27 0.39 0.89 1.01 0.86 0.79 0.76 0.41 0.38 0.35 0.32 0.49 0.46 0.43 0.35 0.29 0.29 0.30 0.26 0.20 0.20 0.24 0.20 0.24 0.42 0.46 0.62 0.70 0.83 0.84 0.66 0.59 0.63

GFSSGP_prec_precacc24_117.txt.gz
Total_Precipitation_Accumulation
0.00 0.00 0.00 0.00 0.00 0.00 0.00 0.00 0.00 0.00 0.00 0.00 0.00 0.00 0.00 0.00 0.00 0.00 0.00 0.00 0.00 0.00 0.00 0.00 0.00 0.00 0.00 0.00 0.00 0.00 0.00 0.00 0.00 0.00 0.00 0.00 0.00 0.00 0.01 0.01 0.00 0.00 0.00 0.00 0.01 0.07 0.06 0.03 0.01
0.00 0.00 0.00 0.00 0.00 0.00 0.00 0.00 0.00 0.00 0.00 0.00 0.00 0.00 0.00 0.00 0.00 0.00 0.00 0.00 0.00 0.00 0.00 0.00 0.00 0.00 0.00 0.00 0.00 0.00 0.00 0.00 0.00 0.00 0.00 0.01 0.04 0.06 0.04 0.01 0.00 0.01 0.02 0.02 0.00 0.03 0.05 0.01 0.00
0.00 0.00 0.00 0.00 0.00 0.00 0.00 0.00 0.00 0.00 0.00 0.00 0.00 0.00 0.00 0.00 0.00 0.00 0.00 0.00 0.00 0.00 0.00 0.00 0.00 0.00 0.00 0.00 0.00 0.00 0.00 0.00 0.00 0.00 0.00 0.00 0.03 0.03 0.03 0.05 0.00 0.01 0.05 0.10 0.05 0.05 0.01 0.00 0.00
0.00 0.00 0.00 0.00 0.00 0.00 0.00 0.00 0.00 0.00 0.00 0.00 0.00 0.00 0.00 0.00 0.00 0.00 0.00 0.00 0.00 0.00 0.00 0.00 0.00 0.00 0.00 0.00 0.00 0.00 0.00 0.00 0.00 0.00 0.00 0.01 0.03 0.04 0.14 0.17 0.06 0.06 0.12 0.12 0.12 0.06 0.01 0.00 0.00
0.00 0.00 0.00 0.00 0.00 0.00 0.00 0.00 0.00 0.00 0.00 0.00 0.00 0.00 0.00 0.00 0.00 0.00 0.00 0.00 0.00 0.00 0.00 0.00 0.00 0.00 0.00 0.00 0.00 0.00 0.00 0.00 0.01 0.00 0.00 0.00 0.01 0.07 0.11 0.13 0.17 0.05 0.07 0.09 0.26 0.22 0.00 0.00 0.00
0.00 0.00 0.00 0.00 0.00 0.00 0.00 0.00 0.00 0.00 0.00 0.00 0.00 0.00 0.00 0.00 0.00 0.00 0.00 0.00 0.00 0.00 0.00 0.00 0.00 0.00 0.00 0.00 0.00 0.00 0.00 0.00 0.01 0.01 0.00 0.00 0.02 0.04 0.03 0.12 0.27 0.12 0.07 0.17 0.14 0.03 0.00 0.00 0.00
0.00 0.00 0.00 0.00 0.00 0.00 0.00 0.00 0.00 0.00 0.00 0.00 0.00 0.00 0.00 0.00 0.00 0.00 0.00 0.00 0.00 0.00 0.00 0.00 0.00 0.00 0.00 0.00 0.00 0.00 0.00 0.00 0.01 0.01 0.01 0.04 0.10 0.09 0.04 0.10 0.24 0.43 0.44 0.33 0.06 0.13 0.15 0.03 0.09
0.00 0.00 0.00 0.00 0.00 0.00 0.00 0.00 0.00 0.00 0.00 0.00 0.00 0.00 0.00 0.00 0.00 0.00 0.00 0.00 0.00 0.00 0.00 0.00 0.00 0.00 0.00 0.00 0.00 0.00 0.00 0.00 0.01 0.01 0.03 0.04 0.02 0.06 0.09 0.21 0.35 0.48 0.50 0.76 0.97 0.89 0.80 0.47 0.32
0.00 0.00 0.00 0.00 0.00 0.00 0.00 0.00 0.00 0.00 0.00 0.00 0.00 0.00 0.00 0.00 0.00 0.00 0.00 0.00 0.00 0.00 0.00 0.00 0.00 0.00 0.00 0.00 0.00 0.00 0.00 0.00 0.01 0.01 0.00 0.01 0.04 0.03 0.06 0.15 0.31 0.55 0.56 0.67 0.44 0.34 0.29 0.29 0.27
0.00 0.00 0.00 0.00 0.00 0.00 0.00 0.00 0.00 0.00 0.00 0.00 0.00 0.00 0.00 0.00 0.00 0.00 0.00 0.00 0.01 0.00 0.00 0.00 0.00 0.00 0.00 0.00 0.00 0.00 0.00 0.00 0.00 0.00 0.00 0.01 0.01 0.03 0.02 0.07 0.17 0.23 0.23 0.15 0.16 0.30 0.21 0.21 0.23
0.00 0.00 0.00 0.00 0.00 0.00 0.00 0.00 0.00 0.00 0.00 0.00 0.00 0.00 0.00 0.00 0.00 0.02 0.01 0.00 0.00 0.00 0.00 0.00 0.01 0.00 0.00 0.00 0.00 0.00 0.00 0.00 0.00 0.00 0.00 0.00 0.00 0.02 0.09 0.09 0.10 0.07 0.13 0.15 0.23 0.30 0.18 0.14 0.14
0.00 0.00 0.00 0.00 0.00 0.00 0.00 0.00 0.00 0.00 0.00 0.00 0.00 0.00 0.00 0.00 0.00 0.01 0.04 0.04 0.02 0.00 0.00 0.00 0.00 0.00 0.00 0.00 0.00 0.00 0.00 0.00 0.00 0.00 0.00 0.01 0.01 0.02 0.03 0.02 0.03 0.04 0.07 0.13 0.41 0.53 0.24 0.24 0.29
0.00 0.00 0.00 0.00 0.00 0.00 0.00 0.00 0.00 0.00 0.00 0.00 0.00 0.00 0.00 0.00 0.00 0.00 0.00 0.02 0.07 0.01 0.00 0.00 0.00 0.00 0.00 0.00 0.00 0.00 0.00 0.00 0.00 0.00 0.01 0.01 0.01 0.01 0.02 0.01 0.00 0.02 0.03 0.07 0.12 0.17 0.16 0.14 0.26
0.00 0.00 0.00 0.00 0.00 0.00 0.00 0.00 0.00 0.00 0.00 0.00 0.00 0.00 0.00 0.00 0.00 0.00 0.00 0.00 0.01 0.00 0.00 0.00 0.00 0.01 0.02 0.02 0.00 0.00 0.00 0.00 0.00 0.00 0.00 0.00 0.02 0.02 0.02 0.01 0.00 0.01 0.03 0.06 0.10 0.16 0.20 0.27 0.22
0.00 0.00 0.00 0.00 0.00 0.00 0.00 0.00 0.00 0.00 0.00 0.00 0.00 0.00 0.00 0.00 0.00 0.00 0.00 0.00 0.00 0.00 0.00 0.00 0.00 0.02 0.05 0.11 0.03 0.01 0.00 0.00 0.00 0.00 0.00 0.00 0.02 0.03 0.02 0.01 0.00 0.01 0.04 0.06 0.07 0.18 0.41 0.37 0.37
0.00 0.00 0.00 0.00 0.00 0.00 0.00 0.00 0.00 0.00 0.00 0.00 0.00 0.00 0.00 0.00 0.00 0.00 0.00 0.00 0.00 0.00 0.00 0.00 0.00 0.00 0.02 0.04 0.04 0.02 0.02 0.01 0.00 0.00 0.00 0.00 0.01 0.02 0.02 0.02 0.02 0.07 0.08 0.08 0.07 0.18 0.57 0.41 0.31
0.00 0.00 0.00 0.00 0.00 0.00 0.00 0.00 0.00 0.00 0.00 0.00 0.00 0.00 0.00 0.00 0.00 0.00 0.00 0.00 0.00 0.00 0.00 0.00 0.00 0.00 0.00 0.05 0.05 0.07 0.07 0.03 0.01 0.00 0.00 0.00 0.00 0.01 0.01 0.02 0.03 0.08 0.16 0.16 0.12 0.11 0.32 0.38 0.37
0.00 0.00 0.00 0.00 0.00 0.00 0.00 0.00 0.00 0.00 0.00 0.00 0.00 0.00 0.00 0.00 0.00 0.00 0.00 0.00 0.00 0.00 0.00 0.00 0.00 0.00 0.02 0.10 0.16 0.16 0.13 0.07 0.01 0.01 0.01 0.00 0.00 0.01 0.02 0.03 0.05 0.05 0.08 0.10 0.12 0.18 0.28 0.28 0.43
0.00 0.00 0.00 0.00 0.00 0.00 0.00 0.00 0.00 0.00 0.00 0.00 0.00 0.00 0.00 0.00 0.00 0.00 0.00 0.00 0.00 0.00 0.00 0.00 0.00 0.00 0.02 0.02 0.02 0.02 0.02 0.02 0.02 0.01 0.04 0.01 0.00 0.00 0.01 0.03 0.07 0.23 0.18 0.08 0.12 0.22 0.36 0.45 0.41
0.00 0.00 0.00 0.00 0.00 0.00 0.00 0.00 0.00 0.00 0.00 0.00 0.00 0.00 0.00 0.00 0.00 0.00 0.00 0.00 0.00 0.00 0.00 0.00 0.00 0.00 0.00 0.00 0.01 0.02 0.03 0.06 0.08 0.08 0.07 0.04 0.02 0.01 0.02 0.02 0.02 0.08 0.29 0.35 0.19 0.18 0.35 0.41 0.45
0.00 0.00 0.00 0.00 0.00 0.00 0.00 0.00 0.00 0.00 0.00 0.00 0.00 0.00 0.00 0.00 0.00 0.00 0.00 0.00 0.00 0.00 0.00 0.00 0.00 0.00 0.01 0.01 0.02 0.04 0.07 0.09 0.11 0.05 0.05 0.03 0.03 0.06 0.04 0.07 0.08 0.08 0.09 0.33 0.39 0.23 0.17 0.32 0.40
0.00 0.00 0.00 0.00 0.00 0.00 0.00 0.00 0.00 0.00 0.00 0.00 0.00 0.00 0.00 0.00 0.00 0.00 0.00 0.00 0.00 0.00 0.00 0.00 0.00 0.00 0.00 0.00 0.00 0.01 0.00 0.00 0.00 0.01 0.01 0.05 0.11 0.07 0.05 0.08 0.13 0.11 0.06 0.12 0.25 0.24 0.21 0.23 0.29
0.00 0.00 0.00 0.00 0.00 0.00 0.00 0.00 0.00 0.00 0.00 0.00 0.00 0.00 0.00 0.00 0.00 0.00 0.00 0.00 0.00 0.00 0.00 0.00 0.00 0.00 0.00 0.00 0.00 0.01 0.00 0.00 0.00 0.01 0.03 0.03 0.06 0.09 0.15 0.08 0.11 0.15 0.11 0.12 0.20 0.21 0.22 0.23 0.17
0.00 0.00 0.01 0.02 0.03 0.04 0.00 0.00 0.00 0.00 0.00 0.01 0.05 0.04 0.02 0.02 0.01 0.01 0.01 0.01 0.01 0.00 0.00 0.00 0.00 0.00 0.00 0.00 0.00 0.00 0.00 0.00 0.00 0.00 0.03 0.04 0.04 0.13 0.14 0.19 0.22 0.18 0.12 0.11 0.18 0.23 0.21 0.17 0.18
0.01 0.04 0.11 0.13 0.05 0.02 0.00 0.00 0.01 0.06 0.12 0.16 0.22 0.26 0.14 0.11 0.10 0.08 0.06 0.06 0.05 0.03 0.01 0.01 0.00 0.00 0.01 0.01 0.00 0.01 0.02 0.03 0.00 0.00 0.02 0.04 0.06 0.04 0.06 0.14 0.21 0.22 0.18 0.21 0.22 0.31 0.28 0.25 0.20
0.02 0.09 0.14 0.10 0.07 0.04 0.01 0.02 0.04 0.13 0.20 0.37 0.61 0.47 0.38 0.23 0.11 0.16 0.16 0.16 0.13 0.13 0.09 0.07 0.06 0.06 0.05 0.04 0.04 0.06 0.07 0.06 0.04 0.03 0.03 0.03 0.05 0.07 0.07 0.14 0.31 0.31 0.33 0.36 0.29 0.32 0.34 0.31 0.26
0.10 0.07 0.06 0.13 0.11 0.16 0.08 0.04 0.11 0.23 0.33 0.29 0.43 0.43 0.38 0.32 0.20 0.18 0.20 0.23 0.22 0.19 0.16 0.15 0.16 0.23 0.23 0.16 0.13 0.15 0.14 0.11 0.09 0.10 0.10 0.09 0.11 0.13 0.10 0.19 0.31 0.35 0.27 0.39 0.49 0.43 0.37 0.34 0.32
0.14 0.07 0.15 0.21 0.30 0.18 0.19 0.29 0.92 0.95 0.65 0.94 0.83 0.49 0.36 0.31 0.30 0.27 0.27 0.30 0.29 0.29 0.26 0.29 0.23 0.21 0.26 0.35 0.33 0.21 0.22 0.26 0.20 0.16 0.15 0.13 0.12 0.13 0.11 0.16 0.25 0.35 0.45 0.50 0.58 0.62 0.56 0.49 0.45
0.10 0.17 0.18 0.19 0.08 0.19 0.44 1.21 1.27 1.71 1.12 0.85 0.47 0.37 0.40 0.31 0.37 0.52 0.60 0.49 0.55 0.51 0.43 0.34 0.30 0.30 0.43 0.50 0.45 0.35 0.27 0.26 0.29 0.28 0.25 0.21 0.31 0.27 0.18 0.13 0.20 0.40 0.52 0.62 0.77 0.68 0.62 0.64 0.54
0.06 0.12 0.27 0.42 0.22 0.22 0.38 1.23 1.27 1.19 1.12 0.57 0.10 0.03 0.08 0.24 0.27 0.39 0.91 1.05 0.94 0.87 0.84 0.47 0.45 0.51 0.53 0.56 0.50 0.50 0.44 0.33 0.36 0.49 0.48 0.43 0.40 0.37 0.30 0.28 0.29 0.37 0.58 0.67 0.84 0.86 0.72 0.69 0.71

GFSSGP_prec_precacc24_120.txt.gz
Total_Precipitation_Accumulation
0.00 0.00 0.00 0.00 0.00 0.00 0.00 0.00 0.00 0.00 0.00 0.00 0.00 0.00 0.00 0.00 0.00 0.00 0.00 0.00 0.00 0.00 0.00 0.00 0.00 0.00 0.00 0.00 0.00 0.00 0.00 0.00 0.00 0.00 0.00 0.00 0.00 0.00 0.00 0.00 0.00 0.00 0.00 0.00 0.01 0.07 0.06 0.03 0.01
0.00 0.00 0.00 0.00 0.00 0.00 0.00 0.00 0.00 0.00 0.00 0.00 0.00 0.00 0.00 0.00 0.00 0.00 0.00 0.00 0.00 0.00 0.00 0.00 0.00 0.00 0.00 0.00 0.00 0.00 0.00 0.00 0.00 0.00 0.00 0.00 0.00 0.00 0.00 0.00 0.00 0.02 0.01 0.01 0.00 0.03 0.05 0.01 0.00
0.00 0.00 0.00 0.00 0.00 0.00 0.00 0.00 0.00 0.00 0.00 0.00 0.00 0.00 0.00 0.00 0.00 0.00 0.00 0.00 0.00 0.00 0.00 0.00 0.00 0.00 0.00 0.00 0.00 0.00 0.00 0.00 0.00 0.00 0.00 0.00 0.00 0.00 0.01 0.01 0.00 0.00 0.03 0.06 0.02 0.03 0.01 0.00 0.00
0.00 0.00 0.00 0.00 0.00 0.00 0.00 0.00 0.00 0.00 0.00 0.00 0.00 0.00 0.00 0.00 0.00 0.00 0.00 0.00 0.00 0.00 0.00 0.00 0.00 0.00 0.00 0.00 0.00 0.00 0.00 0.00 0.00 0.00 0.00 0.00 0.00 0.01 0.03 0.05 0.02 0.02 0.05 0.06 0.06 0.06 0.01 0.00 0.00
0.00 0.00 0.00 0.00 0.00 0.00 0.00 0.00 0.00 0.00 0.00 0.00 0.00 0.00 0.00 0.00 0.00 0.00 0.00 0.00 0.00 0.00 0.00 0.00 0.00 0.00 0.00 0.00 0.00 0.00 0.00 0.00 0.00 0.00 0.00 0.00 0.00 0.01 0.02 0.09 0.13 0.01 0.01 0.05 0.20 0.19 0.00 0.00 0.00
0.00 0.00 0.00 0.00 0.00 0.00 0.00 0.00 0.00 0.00 0.00 0.00 0.00 0.00 0.00 0.00 0.00 0.00 0.00 0.00 0.00 0.00 0.00 0.00 0.00 0.00 0.00 0.00 0.00 0.00 0.00 0.00 0.00 0.00 0.00 0.00 0.00 0.01 0.01 0.10 0.21 0.09 0.06 0.14 0.09 0.01 0.00 0.00 0.00
0.00 0.00 0.00 0.00 0.00 0.00 0.00 0.00 0.00 0.00 0.00 0.00 0.00 0.00 0.00 0.00 0.00 0.00 0.00 0.00 0.00 0.00 0.00 0.00 0.00 0.00 0.00 0.00 0.00 0.00 0.00 0.00 0.00 0.00 0.00 0.00 0.01 0.01 0.01 0.06 0.17 0.25 0.31 0.26 0.05 0.11 0.13 0.03 0.09
0.00 0.00 0.00 0.00 0.00 0.00 0.00 0.00 0.00 0.00 0.00 0.00 0.00 0.00 0.00 0.00 0.00 0.00 0.00 0.00 0.00 0.00 0.00 0.01 0.00 0.00 0.00 0.00 0.00 0.00 0.00 0.00 0.00 0.00 0.00 0.00 0.00 0.00 0.02 0.12 0.21 0.36 0.35 0.51 0.67 0.54 0.54 0.40 0.30
0.00 0.00 0.00 0.00 0.00 0.00 0.00 0.00 0.00 0.00 0.00 0.00 0.00 0.00 0.00 0.00 0.00 0.00 0.00 0.00 0.00 0.00 0.00 0.01 0.00 0.00 0.00 0.00 0.00 0.00 0.00 0.00 0.00 0.01 0.00 0.00 0.00 0.00 0.00 0.02 0.08 0.22 0.30 0.34 0.12 0.09 0.09 0.12 0.18
0.00 0.00 0.00 0.00 0.00 0.00 0.00 0.00 0.00 0.00 0.00 0.00 0.00 0.00 0.00 0.00 0.00 0.00 0.00 0.00 0.01 0.00 0.00 0.00 0.02 0.01 0.00 0.00 0.00 0.00 0.00 0.00 0.00 0.00 0.00 0.00 0.00 0.01 0.01 0.03 0.06 0.11 0.16 0.11 0.05 0.16 0.07 0.03 0.09
0.00 0.00 0.00 0.00 0.00 0.00 0.00 0.00 0.00 0.00 0.00 0.00 0.00 0.00 0.00 0.00 0.00 0.02 0.01 0.00 0.00 0.00 0.01 0.00 0.02 0.03 0.01 0.01 0.00 0.00 0.00 0.00 0.00 0.00 0.00 0.00 0.00 0.01 0.01 0.04 0.04 0.05 0.05 0.06 0.11 0.22 0.07 0.02 0.02
0.00 0.00 0.00 0.00 0.00 0.00 0.00 0.00 0.00 0.00 0.00 0.00 0.00 0.00 0.00 0.00 0.00 0.01 0.04 0.04 0.02 0.00 0.00 0.04 0.01 0.02 0.01 0.03 0.10 0.01 0.00 0.00 0.00 0.00 0.00 0.00 0.00 0.01 0.01 0.02 0.03 0.04 0.05 0.09 0.24 0.36 0.15 0.07 0.08
0.00 0.00 0.00 0.00 0.00 0.00 0.00 0.00 0.00 0.00 0.00 0.00 0.00 0.00 0.00 0.00 0.00 0.00 0.00 0.02 0.07 0.01 0.00 0.02 0.05 0.05 0.07 0.06 0.22 0.10 0.01 0.00 0.00 0.00 0.00 0.00 0.00 0.00 0.00 0.00 0.00 0.01 0.03 0.06 0.10 0.13 0.10 0.04 0.05
0.00 0.00 0.00 0.00 0.00 0.00 0.00 0.00 0.00 0.00 0.00 0.00 0.00 0.00 0.00 0.00 0.00 0.00 0.00 0.00 0.01 0.00 0.00 0.00 0.01 0.08 0.17 0.16 0.16 0.07 0.08 0.03 0.01 0.00 0.00 0.00 0.00 0.00 0.00 0.00 0.00 0.00 0.02 0.04 0.08 0.09 0.09 0.10 0.08
0.00 0.00 0.00 0.00 0.00 0.00 0.00 0.00 0.00 0.00 0.00 0.00 0.00 0.00 0.00 0.00 0.00 0.00 0.00 0.00 0.00 0.00 0.00 0.00 0.00 0.02 0.10 0.21 0.20 0.15 0.09 0.06 0.05 0.00 0.00 0.00 0.00 0.01 0.00 0.00 0.00 0.01 0.03 0.04 0.06 0.08 0.11 0.13 0.18
0.00 0.00 0.00 0.00 0.00 0.00 0.00 0.00 0.00 0.00 0.00 0.00 0.00 0.00 0.00 0.00 0.00 0.00 0.00 0.00 0.00 0.00 0.00 0.00 0.00 0.00 0.02 0.04 0.11 0.22 0.16 0.09 0.02 0.03 0.00 0.00 0.00 0.01 0.01 0.00 0.00 0.01 0.05 0.06 0.06 0.05 0.07 0.15 0.19
0.00 0.00 0.00 0.00 0.00 0.00 0.00 0.00 0.00 0.00 0.00 0.00 0.00 0.00 0.00 0.00 0.00 0.00 0.00 0.00 0.00 0.00 0.00 0.00 0.00 0.00 0.00 0.05 0.05 0.08 0.12 0.10 0.05 0.01 0.01 0.00 0.00 0.01 0.01 0.01 0.01 0.01 0.03 0.05 0.05 0.06 0.08 0.17 0.21
0.00 0.00 0.00 0.00 0.00 0.00 0.00 0.00 0.00 0.00 0.00 0.00 0.00 0.00 0.00 0.00 0.00 0.00 0.00 0.00 0.00 0.00 0.00 0.00 0.00 0.00 0.02 0.10 0.16 0.16 0.13 0.07 0.03 0.03 0.01 0.00 0.00 0.00 0.01 0.01 0.01 0.02 0.04 0.03 0.06 0.13 0.13 0.15 0.27
0.00 0.00 0.00 0.00 0.00 0.00 0.00 0.00 0.00 0.00 0.00 0.00 0.00 0.00 0.00 0.00 0.00 0.00 0.00 0.00 0.00 0.00 0.00 0.00 0.00 0.00 0.02 0.01 0.02 0.01 0.02 0.02 0.02 0.02 0.04 0.02 0.01 0.00 0.01 0.01 0.01 0.01 0.02 0.03 0.06 0.14 0.19 0.27 0.30
0.00 0.00 0.00 0.00 0.00 0.00 0.00 0.00 0.00 0.00 0.00 0.00 0.00 0.00 0.00 0.00 0.00 0.00 0.00 0.00 0.00 0.00 0.00 0.00 0.00 0.00 0.00 0.00 0.01 0.02 0.03 0.05 0.08 0.08 0.08 0.04 0.01 0.01 0.02 0.02 0.01 0.02 0.03 0.07 0.08 0.11 0.23 0.27 0.32
0.00 0.00 0.00 0.00 0.00 0.00 0.00 0.00 0.00 0.00 0.00 0.00 0.00 0.00 0.00 0.00 0.00 0.00 0.00 0.00 0.00 0.00 0.00 0.00 0.00 0.00 0.00 0.01 0.02 0.03 0.06 0.09 0.11 0.05 0.05 0.03 0.03 0.09 0.09 0.08 0.07 0.08 0.06 0.19 0.26 0.14 0.12 0.26 0.32
0.00 0.00 0.00 0.00 0.00 0.00 0.00 0.00 0.00 0.00 0.00 0.00 0.00 0.00 0.00 0.00 0.00 0.00 0.00 0.00 0.00 0.00 0.00 0.00 0.00 0.00 0.00 0.00 0.00 0.00 0.00 0.00 0.00 0.01 0.01 0.05 0.11 0.09 0.12 0.15 0.14 0.11 0.08 0.05 0.14 0.14 0.14 0.16 0.22
0.00 0.00 0.00 0.00 0.00 0.00 0.00 0.00 0.00 0.00 0.00 0.00 0.00 0.00 0.00 0.00 0.00 0.00 0.00 0.00 0.00 0.00 0.00 0.00 0.00 0.00 0.00 0.00 0.00 0.01 0.00 0.00 0.00 0.01 0.02 0.04 0.07 0.15 0.31 0.20 0.19 0.20 0.29 0.15 0.08 0.07 0.11 0.15 0.13
0.00 0.00 0.01 0.02 0.03 0.04 0.00 0.00 0.00 0.00 0.00 0.01 0.05 0.04 0.02 0.02 0.01 0.01 0.01 0.01 0.01 0.00 0.00 0.00 0.00 0.00 0.00 0.00 0.00 0.00 0.00 0.00 0.00 0.00 0.02 0.05 0.09 0.17 0.19 0.21 0.25 0.24 0.23 0.19 0.13 0.16 0.12 0.11 0.13
0.00 0.02 0.07 0.08 0.04 0.02 0.00 0.00 0.00 0.05 0.12 0.16 0.22 0.26 0.14 0.11 0.10 0.08 0.06 0.06 0.05 0.03 0.01 0.01 0.00 0.00 0.01 0.01 0.00 0.01 0.01 0.02 0.00 0.00 0.01 0.04 0.10 0.10 0.08 0.18 0.16 0.15 0.17 0.18 0.19 0.27 0.19 0.16 0.14
0.01 0.07 0.09 0.07 0.05 0.03 0.01 0.01 0.04 0.13 0.20 0.37 0.61 0.47 0.38 0.23 0.11 0.16 0.16 0.16 0.13 0.13 0.09 0.07 0.06 0.06 0.05 0.04 0.03 0.05 0.05 0.06 0.04 0.03 0.02 0.03 0.08 0.11 0.12 0.16 0.25 0.23 0.29 0.28 0.22 0.21 0.25 0.21 0.18
0.08 0.06 0.05 0.11 0.10 0.10 0.04 0.02 0.10 0.23 0.33 0.29 0.43 0.43 0.38 0.32 0.20 0.19 0.20 0.23 0.22 0.19 0.16 0.15 0.16 0.23 0.24 0.16 0.12 0.15 0.14 0.11 0.09 0.10 0.10 0.09 0.11 0.18 0.17 0.22 0.26 0.23 0.19 0.31 0.36 0.32 0.27 0.25 0.23
0.13 0.06 0.15 0.20 0.27 0.16 0.16 0.27 0.83 0.88 0.65 0.94 0.83 0.49 0.36 0.31 0.30 0.27 0.27 0.30 0.28 0.29 0.26 0.29 0.24 0.21 0.26 0.33 0.32 0.20 0.22 0.26 0.20 0.16 0.15 0.13 0.12 0.16 0.25 0.32 0.33 0.40 0.38 0.41 0.50 0.54 0.51 0.46 0.40
0.10 0.16 0.17 0.17 0.08 0.18 0.43 1.14 1.17 1.61 1.10 0.85 0.47 0.37 0.40 0.31 0.37 0.52 0.61 0.50 0.54 0.52 0.43 0.35 0.31 0.29 0.41 0.49 0.44 0.35 0.27 0.27 0.30 0.28 0.24 0.21 0.32 0.31 0.21 0.28 0.54 0.54 0.53 0.53 0.59 0.57 0.57 0.62 0.52
0.06 0.12 0.24 0.40 0.20 0.22 0.38 1.06 1.00 1.17 1.12 0.57 0.10 0.03 0.08 0.24 0.27 0.40 0.93 1.07 0.98 0.91 0.87 0.50 0.49 0.53 0.53 0.58 0.51 0.51 0.47 0.36 0.39 0.53 0.52 0.50 0.50 0.50 0.44 0.43 0.39 0.44 0.48 0.50 0.59 0.65 0.67 0.68 0.71

GFSSGP_prec_precacc24_126.txt.gz
Total_Precipitation_Accumulation
0.00 0.00 0.00 0.00 0.00 0.00 0.00 0.00 0.00 0.00 0.00 0.00 0.00 0.00 0.00 0.00 0.00 0.00 0.00 0.00 0.00 0.00 0.00 0.00 0.00 0.00 0.00 0.00 0.00 0.00 0.00 0.00 0.00 0.00 0.00 0.00 0.00 0.00 0.00 0.00 0.00 0.00 0.00 0.00 0.01 0.05 0.06 0.05 0.02
0.00 0.00 0.00 0.00 0.00 0.00 0.00 0.00 0.00 0.00 0.00 0.00 0.00 0.00 0.00 0.00 0.00 0.00 0.00 0.00 0.00 0.00 0.00 0.00 0.00 0.00 0.00 0.00 0.00 0.00 0.00 0.00 0.00 0.00 0.00 0.00 0.00 0.00 0.00 0.00 0.00 0.02 0.00 0.00 0.00 0.03 0.07 0.02 0.00
0.00 0.00 0.00 0.00 0.00 0.00 0.00 0.00 0.00 0.00 0.00 0.00 0.00 0.00 0.00 0.00 0.00 0.00 0.00 0.00 0.00 0.00 0.00 0.00 0.00 0.00 0.00 0.00 0.00 0.00 0.00 0.00 0.00 0.00 0.00 0.00 0.00 0.00 0.00 0.00 0.00 0.00 0.00 0.00 0.00 0.03 0.04 0.00 0.00
0.00 0.00 0.00 0.00 0.00 0.00 0.00 0.00 0.00 0.00 0.00 0.00 0.00 0.00 0.00 0.00 0.00 0.00 0.00 0.00 0.00 0.00 0.00 0.00 0.00 0.00 0.00 0.00 0.00 0.00 0.00 0.00 0.00 0.00 0.00 0.00 0.00 0.00 0.00 0.00 0.00 0.00 0.00 0.01 0.00 0.04 0.02 0.00 0.00
0.00 0.00 0.00 0.00 0.00 0.00 0.00 0.00 0.00 0.00 0.00 0.00 0.00 0.00 0.00 0.00 0.00 0.00 0.00 0.00 0.00 0.00 0.00 0.00 0.00 0.00 0.00 0.00 0.00 0.00 0.00 0.00 0.00 0.00 0.00 0.00 0.00 0.00 0.00 0.07 0.08 0.00 0.01 0.02 0.03 0.02 0.00 0.00 0.00
0.00 0.00 0.00 0.00 0.00 0.00 0.00 0.00 0.00 0.00 0.00 0.00 0.00 0.00 0.00 0.00 0.00 0.00 0.00 0.00 0.00 0.00 0.00 0.00 0.01 0.00 0.00 0.00 0.00 0.00 0.00 0.00 0.00 0.00 0.00 0.00 0.00 0.00 0.00 0.05 0.05 0.02 0.04 0.05 0.02 0.00 0.00 0.00 0.00
0.00 0.00 0.00 0.00 0.00 0.00 0.00 0.00 0.00 0.00 0.00 0.00 0.00 0.00 0.00 0.00 0.00 0.00 0.00 0.00 0.00 0.00 0.00 0.00 0.00 0.01 0.00 0.00 0.00 0.00 0.00 0.00 0.00 0.00 0.00 0.00 0.00 0.00 0.00 0.02 0.06 0.16 0.20 0.14 0.00 0.00 0.00 0.00 0.00
0.00 0.00 0.00 0.00 0.00 0.00 0.00 0.00 0.00 0.00 0.00 0.00 0.00 0.00 0.00 0.00 0.00 0.00 0.00 0.00 0.00 0.00 0.00 0.01 0.00 0.00 0.00 0.00 0.00 0.00 0.00 0.00 0.00 0.00 0.00 0.00 0.00 0.00 0.00 0.01 0.05 0.16 0.22 0.25 0.10 0.02 0.05 0.03 0.00
0.00 0.00 0.00 0.00 0.00 0.00 0.00 0.00 0.00 0.00 0.00 0.00 0.00 0.00 0.00 0.00 0.00 0.00 0.00 0.00 0.00 0.00 0.00 0.01 0.00 0.00 0.00 0.00 0.00 0.00 0.00 0.00 0.00 0.00 0.00 0.00 0.00 0.00 0.00 0.00 0.01 0.08 0.10 0.06 0.00 0.00 0.00 0.00 0.00
0.00 0.00 0.00 0.00 0.00 0.00 0.00 0.00 0.00 0.00 0.00 0.00 0.00 0.00 0.00 0.00 0.00 0.00 0.00 0.00 0.01 0.00 0.00 0.01 0.02 0.01 0.00 0.00 0.00 0.00 0.00 0.00 0.00 0.00 0.00 0.00 0.00 0.00 0.00 0.00 0.01 0.07 0.09 0.04 0.00 0.00 0.00 0.00 0.00
0.00 0.00 0.00 0.00 0.00 0.00 0.00 0.00 0.00 0.00 0.00 0.00 0.00 0.00 0.00 0.00 0.00 0.02 0.01 0.00 0.00 0.00 0.01 0.02 0.03 0.04 0.01 0.01 0.00 0.00 0.00 0.00 0.00 0.00 0.00 0.00 0.00 0.01 0.01 0.04 0.02 0.05 0.04 0.04 0.00 0.05 0.00 0.00 0.00
0.00 0.00 0.00 0.00 0.00 0.00 0.00 0.00 0.00 0.00 0.00 0.00 0.00 0.00 0.00 0.00 0.00 0.01 0.04 0.04 0.02 0.00 0.00 0.07 0.08 0.07 0.06 0.16 0.20 0.02 0.01 0.00 0.00 0.00 0.00 0.00 0.00 0.01 0.01 0.01 0.02 0.04 0.03 0.04 0.03 0.11 0.04 0.02 0.01
0.00 0.00 0.00 0.00 0.00 0.00 0.00 0.00 0.00 0.00 0.00 0.00 0.00 0.00 0.00 0.00 0.00 0.00 0.00 0.02 0.07 0.01 0.00 0.04 0.08 0.08 0.11 0.18 0.54 0.31 0.21 0.19 0.10 0.00 0.01 0.00 0.00 0.00 0.00 0.00 0.00 0.01 0.03 0.04 0.04 0.03 0.02 0.01 0.01
0.00 0.00 0.00 0.00 0.00 0.00 0.00 0.00 0.00 0.00 0.00 0.00 0.00 0.00 0.00 0.00 0.00 0.00 0.00 0.00 0.01 0.00 0.00 0.00 0.01 0.09 0.22 0.29 0.42 0.35 0.53 0.60 0.48 0.13 0.01 0.10 0.05 0.00 0.00 0.00 0.00 0.00 0.00 0.01 0.03 0.02 0.02 0.02 0.02
0.00 0.00 0.00 0.00 0.00 0.00 0.00 0.00 0.00 0.00 0.00 0.00 0.00 0.00 0.00 0.00 0.00 0.00 0.00 0.00 0.00 0.00 0.00 0.00 0.00 0.01 0.10 0.23 0.30 0.32 0.34 0.59 0.77 0.59 0.28 0.20 0.19 0.09 0.04 0.01 0.00 0.00 0.00 0.01 0.01 0.03 0.08 0.06 0.06
0.00 0.00 0.00 0.00 0.00 0.00 0.00 0.00 0.00 0.00 0.00 0.00 0.00 0.00 0.00 0.00 0.00 0.00 0.00 0.00 0.00 0.00 0.00 0.00 0.00 0.00 0.01 0.04 0.12 0.27 0.32 0.40 0.48 0.48 0.62 0.73 0.62 0.37 0.17 0.04 0.00 0.00 0.01 0.01 0.02 0.02 0.06 0.08 0.06
0.00 0.00 0.00 0.00 0.00 0.00 0.00 0.00 0.00 0.00 0.00 0.00 0.00 0.00 0.00 0.00 0.00 0.00 0.00 0.00 0.00 0.00 0.00 0.00 0.00 0.00 0.00 0.04 0.04 0.08 0.13 0.19 0.16 0.23 0.36 0.62 1.07 1.09 0.47 0.16 0.07 0.05 0.03 0.02 0.02 0.02 0.04 0.05 0.05
0.00 0.00 0.00 0.00 0.00 0.00 0.00 0.00 0.00 0.00 0.00 0.00 0.00 0.00 0.00 0.00 0.00 0.00 0.00 0.00 0.00 0.00 0.00 0.00 0.00 0.00 0.00 0.04 0.09 0.05 0.05 0.09 0.06 0.09 0.31 0.40 0.52 0.66 0.77 0.61 0.27 0.18 0.13 0.06 0.05 0.03 0.03 0.04 0.06
0.00 0.00 0.00 0.00 0.00 0.00 0.00 0.00 0.00 0.00 0.00 0.00 0.00 0.00 0.00 0.00 0.00 0.00 0.00 0.00 0.00 0.00 0.00 0.00 0.00 0.00 0.00 0.00 0.01 0.00 0.01 0.01 0.06 0.08 0.10 0.25 0.30 0.43 0.47 0.58 0.59 0.35 0.18 0.13 0.13 0.12 0.06 0.08 0.10
0.00 0.00 0.00 0.00 0.00 0.00 0.00 0.00 0.00 0.00 0.00 0.00 0.00 0.00 0.00 0.00 0.00 0.00 0.00 0.00 0.00 0.00 0.00 0.00 0.00 0.00 0.00 0.00 0.00 0.00 0.00 0.01 0.04 0.10 0.15 0.13 0.12 0.17 0.38 0.42 0.48 0.41 0.29 0.33 0.28 0.25 0.27 0.26 0.27
0.00 0.00 0.00 0.00 0.00 0.00 0.00 0.00 0.00 0.00 0.00 0.00 0.00 0.00 0.00 0.00 0.00 0.00 0.00 0.00 0.00 0.00 0.00 0.00 0.00 0.00 0.00 0.00 0.00 0.01 0.03 0.05 0.09 0.04 0.04 0.04 0.10 0.17 0.21 0.30 0.33 0.38 0.59 0.43 0.20 0.17 0.27 0.24 0.28
0.00 0.00 0.00 0.00 0.00 0.00 0.00 0.00 0.00 0.00 0.00 0.00 0.00 0.00 0.00 0.00 0.00 0.00 0.00 0.00 0.00 0.00 0.00 0.00 0.00 0.00 0.00 0.00 0.00 0.00 0.00 0.00 0.00 0.01 0.00 0.03 0.18 0.23 0.26 0.29 0.35 0.41 0.24 0.22 0.15 0.17 0.22 0.28 0.19
0.00 0.00 0.00 0.00 0.00 0.00 0.00 0.00 0.00 0.00 0.00 0.00 0.00 0.00 0.00 0.00 0.00 0.00 0.00 0.00 0.00 0.00 0.00 0.00 0.00 0.00 0.00 0.00 0.00 0.00 0.00 0.00 0.00 0.01 0.02 0.02 0.07 0.17 0.36 0.40 0.49 0.63 0.82 0.39 0.44 0.31 0.29 0.27 0.23
0.00 0.00 0.00 0.00 0.00 0.00 0.00 0.00 0.00 0.00 0.00 0.01 0.01 0.01 0.01 0.01 0.01 0.01 0.01 0.01 0.01 0.00 0.00 0.00 0.00 0.00 0.00 0.00 0.00 0.00 0.00 0.00 0.00 0.00 0.02 0.05 0.08 0.16 0.17 0.20 0.31 0.38 0.54 0.72 0.78 0.97 0.74 0.70 0.52
0.00 0.00 0.00 0.00 0.00 0.00 0.00 0.00 0.01 0.05 0.09 0.09 0.06 0.04 0.05 0.04 0.06 0.07 0.06 0.06 0.05 0.03 0.01 0.01 0.00 0.00 0.00 0.00 0.00 0.00 0.01 0.01 0.00 0.00 0.01 0.04 0.10 0.10 0.07 0.18 0.19 0.19 0.19 0.40 0.69 0.97 1.14 1.42 1.40
0.00 0.00 0.00 0.01 0.01 0.00 0.01 0.01 0.04 0.12 0.19 0.12 0.08 0.10 0.29 0.16 0.06 0.13 0.15 0.15 0.13 0.13 0.09 0.07 0.06 0.05 0.02 0.02 0.02 0.04 0.04 0.04 0.03 0.03 0.02 0.02 0.06 0.09 0.12 0.16 0.26 0.27 0.36 0.43 0.45 0.58 0.66 0.72 1.02
0.00 0.00 0.00 0.01 0.00 0.00 0.00 0.01 0.07 0.19 0.19 0.11 0.08 0.15 0.25 0.30 0.18 0.18 0.20 0.22 0.20 0.17 0.15 0.16 0.16 0.16 0.15 0.10 0.06 0.08 0.09 0.08 0.06 0.08 0.10 0.08 0.09 0.16 0.16 0.21 0.25 0.26 0.24 0.36 0.38 0.38 0.46 0.52 0.48
0.00 0.01 0.04 0.06 0.04 0.03 0.03 0.17 0.38 0.41 0.26 0.28 0.34 0.30 0.28 0.30 0.30 0.27 0.26 0.29 0.24 0.23 0.19 0.24 0.20 0.19 0.21 0.24 0.24 0.17 0.16 0.22 0.18 0.15 0.11 0.11 0.11 0.15 0.25 0.31 0.31 0.35 0.34 0.39 0.46 0.46 0.44 0.56 0.48
0.02 0.05 0.11 0.09 0.04 0.06 0.13 0.51 0.43 0.46 0.47 0.39 0.31 0.30 0.38 0.31 0.37 0.52 0.60 0.45 0.47 0.47 0.40 0.40 0.38 0.35 0.37 0.35 0.37 0.31 0.25 0.26 0.26 0.25 0.22 0.21 0.33 0.31 0.21 0.28 0.54 0.44 0.56 0.53 0.47 0.51 0.47 0.48 0.51
0.00 0.04 0.20 0.33 0.16 0.18 0.19 0.34 0.29 0.44 0.49 0.26 0.05 0.03 0.08 0.24 0.27 0.40 0.94 1.06 0.96 0.93 1.01 0.69 0.56 0.57 0.50 0.45 0.41 0.44 0.41 0.33 0.36 0.47 0.51 0.52 0.52 0.52 0.45 0.47 0.44 0.39 0.37 0.53 0.43 0.33 0.42 0.53 0.57

GFSSGP_prec_precacc24_129.txt.gz
Total_Precipitation_Accumulation
0.00 0.00 0.00 0.00 0.00 0.00 0.00 0.00 0.00 0.00 0.00 0.00 0.00 0.00 0.00 0.00 0.00 0.00 0.00 0.00 0.00 0.00 0.00 0.00 0.00 0.00 0.00 0.00 0.00 0.00 0.00 0.00 0.00 0.00 0.00 0.00 0.00 0.00 0.00 0.00 0.00 0.00 0.00 0.00 0.00 0.00 0.01 0.04 0.01
0.00 0.00 0.00 0.00 0.00 0.00 0.00 0.00 0.00 0.00 0.00 0.00 0.00 0.00 0.00 0.00 0.00 0.00 0.00 0.00 0.00 0.00 0.00 0.00 0.00 0.00 0.00 0.00 0.00 0.00 0.00 0.00 0.00 0.00 0.00 0.00 0.00 0.00 0.00 0.00 0.01 0.02 0.01 0.00 0.00 0.03 0.07 0.02 0.00
0.00 0.00 0.00 0.00 0.00 0.00 0.00 0.00 0.00 0.00 0.00 0.00 0.00 0.00 0.00 0.00 0.00 0.00 0.00 0.00 0.00 0.00 0.00 0.00 0.00 0.00 0.00 0.00 0.00 0.00 0.00 0.00 0.00 0.00 0.00 0.00 0.00 0.00 0.00 0.00 0.00 0.00 0.00 0.00 0.00 0.04 0.04 0.00 0.00
0.00 0.00 0.00 0.00 0.00 0.00 0.00 0.00 0.00 0.00 0.00 0.00 0.00 0.00 0.00 0.00 0.00 0.00 0.00 0.00 0.00 0.00 0.00 0.00 0.00 0.00 0.00 0.00 0.00 0.00 0.00 0.00 0.00 0.00 0.00 0.00 0.00 0.00 0.00 0.00 0.00 0.00 0.00 0.00 0.00 0.05 0.02 0.00 0.00
0.00 0.00 0.00 0.00 0.00 0.00 0.00 0.00 0.00 0.00 0.00 0.00 0.00 0.00 0.00 0.00 0.00 0.00 0.00 0.00 0.00 0.00 0.00 0.00 0.00 0.00 0.00 0.00 0.00 0.00 0.00 0.00 0.00 0.00 0.00 0.00 0.00 0.00 0.00 0.04 0.02 0.00 0.00 0.01 0.01 0.02 0.00 0.00 0.00
0.00 0.00 0.00 0.00 0.00 0.00 0.00 0.00 0.00 0.00 0.00 0.00 0.00 0.00 0.00 0.00 0.00 0.00 0.00 0.00 0.00 0.00 0.00 0.00 0.01 0.00 0.00 0.00 0.00 0.00 0.00 0.00 0.00 0.00 0.00 0.00 0.00 0.00 0.00 0.02 0.03 0.02 0.02 0.01 0.00 0.00 0.00 0.00 0.00
0.00 0.00 0.00 0.00 0.00 0.00 0.00 0.00 0.00 0.00 0.00 0.00 0.00 0.00 0.00 0.00 0.00 0.00 0.00 0.00 0.00 0.00 0.00 0.00 0.00 0.01 0.00 0.00 0.00 0.00 0.00 0.00 0.00 0.00 0.00 0.00 0.00 0.00 0.00 0.01 0.03 0.10 0.14 0.06 0.00 0.00 0.00 0.00 0.00
0.00 0.00 0.00 0.00 0.00 0.00 0.00 0.00 0.00 0.00 0.00 0.00 0.00 0.00 0.00 0.00 0.00 0.00 0.00 0.00 0.00 0.00 0.00 0.01 0.00 0.00 0.00 0.00 0.00 0.00 0.00 0.00 0.00 0.00 0.00 0.00 0.00 0.00 0.00 0.01 0.01 0.04 0.10 0.06 0.00 0.00 0.00 0.00 0.00
0.00 0.00 0.00 0.00 0.00 0.00 0.00 0.00 0.00 0.00 0.00 0.00 0.00 0.00 0.00 0.00 0.00 0.00 0.00 0.00 0.00 0.00 0.00 0.01 0.00 0.00 0.00 0.00 0.00 0.00 0.00 0.00 0.00 0.00 0.00 0.00 0.00 0.00 0.00 0.00 0.00 0.05 0.05 0.02 0.00 0.00 0.00 0.00 0.00
0.00 0.00 0.00 0.00 0.00 0.00 0.00 0.00 0.00 0.00 0.00 0.00 0.00 0.00 0.00 0.00 0.00 0.00 0.00 0.00 0.01 0.00 0.01 0.03 0.04 0.02 0.01 0.00 0.00 0.00 0.00 0.00 0.00 0.00 0.00 0.00 0.00 0.00 0.00 0.00 0.01 0.06 0.08 0.04 0.00 0.00 0.00 0.00 0.00
0.00 0.00 0.00 0.00 0.00 0.00 0.00 0.00 0.00 0.00 0.00 0.00 0.00 0.00 0.00 0.00 0.00 0.01 0.01 0.00 0.00 0.00 0.01 0.04 0.05 0.07 0.03 0.01 0.00 0.00 0.00 0.00 0.01 0.00 0.00 0.00 0.00 0.01 0.01 0.04 0.02 0.05 0.04 0.04 0.00 0.00 0.00 0.00 0.00
0.00 0.00 0.00 0.00 0.00 0.00 0.00 0.00 0.00 0.00 0.00 0.00 0.00 0.00 0.00 0.00 0.00 0.00 0.01 0.03 0.02 0.00 0.00 0.07 0.08 0.08 0.08 0.17 0.20 0.03 0.04 0.02 0.01 0.00 0.01 0.01 0.01 0.01 0.01 0.01 0.02 0.04 0.03 0.04 0.01 0.00 0.00 0.00 0.01
0.00 0.00 0.00 0.00 0.00 0.00 0.00 0.00 0.00 0.00 0.00 0.00 0.00 0.00 0.00 0.00 0.00 0.00 0.00 0.01 0.04 0.00 0.00 0.04 0.08 0.08 0.11 0.18 0.54 0.32 0.26 0.30 0.18 0.01 0.02 0.03 0.04 0.01 0.00 0.00 0.00 0.01 0.03 0.04 0.04 0.01 0.00 0.00 0.01
0.00 0.00 0.00 0.00 0.00 0.00 0.00 0.00 0.00 0.00 0.00 0.00 0.00 0.00 0.00 0.00 0.00 0.00 0.00 0.00 0.00 0.00 0.00 0.00 0.01 0.09 0.22 0.29 0.42 0.35 0.53 0.62 0.58 0.26 0.07 0.27 0.23 0.20 0.09 0.01 0.01 0.00 0.00 0.02 0.03 0.02 0.01 0.02 0.02
0.00 0.00 0.00 0.00 0.00 0.00 0.00 0.00 0.00 0.00 0.00 0.00 0.00 0.00 0.00 0.00 0.00 0.00 0.00 0.00 0.00 0.00 0.00 0.00 0.00 0.01 0.10 0.23 0.30 0.32 0.34 0.60 0.82 0.78 0.49 0.34 0.47 0.31 0.27 0.15 0.07 0.04 0.02 0.01 0.02 0.03 0.07 0.06 0.05
0.00 0.00 0.00 0.00 0.00 0.00 0.00 0.00 0.00 0.00 0.00 0.00 0.00 0.00 0.00 0.00 0.00 0.00 0.00 0.00 0.00 0.00 0.00 0.00 0.00 0.00 0.01 0.04 0.12 0.27 0.32 0.40 0.50 0.52 0.70 0.87 0.81 0.78 0.58 0.22 0.08 0.14 0.16 0.10 0.06 0.03 0.04 0.07 0.05
0.00 0.00 0.00 0.00 0.00 0.00 0.00 0.00 0.00 0.00 0.00 0.00 0.00 0.00 0.00 0.00 0.00 0.00 0.00 0.00 0.00 0.00 0.00 0.00 0.00 0.00 0.00 0.03 0.04 0.08 0.11 0.18 0.16 0.23 0.37 0.66 1.17 1.43 1.13 0.85 0.61 0.38 0.25 0.17 0.14 0.09 0.08 0.04 0.04
0.00 0.00 0.00 0.00 0.00 0.00 0.00 0.00 0.00 0.00 0.00 0.00 0.00 0.00 0.00 0.00 0.00 0.00 0.00 0.00 0.00 0.00 0.00 0.00 0.00 0.00 0.00 0.02 0.07 0.04 0.03 0.04 0.05 0.09 0.31 0.40 0.53 0.70 0.94 1.04 0.87 0.73 0.55 0.31 0.20 0.11 0.12 0.08 0.06
0.00 0.00 0.00 0.00 0.00 0.00 0.00 0.00 0.00 0.00 0.00 0.00 0.00 0.00 0.00 0.00 0.00 0.00 0.00 0.00 0.00 0.00 0.00 0.00 0.00 0.00 0.00 0.00 0.01 0.00 0.00 0.00 0.05 0.07 0.06 0.24 0.30 0.44 0.53 0.89 1.55 1.32 0.67 0.45 0.46 0.38 0.25 0.23 0.23
0.00 0.00 0.00 0.00 0.00 0.00 0.00 0.00 0.00 0.00 0.00 0.00 0.00 0.00 0.00 0.00 0.00 0.00 0.00 0.00 0.00 0.00 0.00 0.00 0.00 0.00 0.00 0.00 0.00 0.00 0.00 0.00 0.01 0.04 0.10 0.10 0.12 0.17 0.38 0.44 0.62 0.99 0.98 0.70 0.53 0.52 0.55 0.46 0.50
0.00 0.00 0.00 0.00 0.00 0.00 0.00 0.00 0.00 0.00 0.00 0.00 0.00 0.00 0.00 0.00 0.00 0.00 0.00 0.00 0.00 0.00 0.00 0.00 0.00 0.00 0.00 0.00 0.00 0.01 0.02 0.02 0.04 0.02 0.02 0.04 0.09 0.16 0.20 0.29 0.34 0.54 0.99 0.85 0.49 0.35 0.43 0.44 0.47
0.00 0.00 0.00 0.00 0.00 0.00 0.00 0.00 0.00 0.00 0.00 0.00 0.00 0.00 0.00 0.00 0.00 0.00 0.00 0.00 0.00 0.00 0.00 0.00 0.00 0.00 0.00 0.00 0.00 0.00 0.00 0.00 0.00 0.00 0.00 0.02 0.13 0.20 0.24 0.26 0.32 0.42 0.41 0.64 0.58 0.43 0.36 0.41 0.30
0.00 0.00 0.00 0.00 0.00 0.00 0.00 0.00 0.00 0.00 0.00 0.00 0.00 0.00 0.00 0.00 0.00 0.00 0.00 0.00 0.00 0.00 0.00 0.00 0.00 0.00 0.00 0.00 0.00 0.00 0.00 0.00 0.00 0.00 0.00 0.02 0.04 0.17 0.35 0.39 0.46 0.59 0.82 0.43 0.72 0.68 0.59 0.48 0.39
0.00 0.00 0.00 0.00 0.00 0.00 0.00 0.00 0.00 0.00 0.00 0.01 0.01 0.01 0.01 0.01 0.00 0.00 0.00 0.00 0.00 0.00 0.00 0.00 0.00 0.00 0.00 0.00 0.00 0.00 0.00 0.00 0.00 0.00 0.01 0.04 0.08 0.15 0.16 0.19 0.29 0.35 0.52 0.71 0.80 1.06 0.91 0.93 0.68
0.00 0.00 0.00 0.00 0.00 0.00 0.00 0.00 0.00 0.03 0.06 0.07 0.05 0.03 0.02 0.02 0.01 0.01 0.02 0.02 0.03 0.02 0.01 0.01 0.00 0.00 0.00 0.00 0.00 0.00 0.00 0.00 0.00 0.00 0.01 0.04 0.10 0.10 0.06 0.17 0.18 0.17 0.16 0.37 0.67 0.97 1.18 1.49 1.47
0.00 0.00 0.00 0.00 0.00 0.00 0.00 0.00 0.02 0.06 0.12 0.10 0.08 0.05 0.02 0.01 0.01 0.03 0.07 0.09 0.09 0.12 0.09 0.07 0.06 0.05 0.02 0.01 0.01 0.01 0.01 0.01 0.01 0.01 0.02 0.02 0.06 0.09 0.12 0.16 0.26 0.26 0.34 0.40 0.43 0.56 0.65 0.74 1.06
0.00 0.00 0.00 0.01 0.00 0.00 0.00 0.00 0.02 0.09 0.07 0.09 0.07 0.06 0.07 0.06 0.05 0.08 0.10 0.12 0.14 0.14 0.14 0.16 0.16 0.16 0.13 0.08 0.05 0.05 0.04 0.04 0.03 0.05 0.09 0.08 0.09 0.16 0.17 0.22 0.26 0.26 0.23 0.35 0.36 0.37 0.45 0.52 0.51
0.00 0.00 0.02 0.04 0.02 0.01 0.00 0.02 0.07 0.08 0.07 0.10 0.09 0.13 0.13 0.16 0.15 0.16 0.20 0.23 0.19 0.17 0.15 0.23 0.20 0.21 0.22 0.22 0.19 0.10 0.10 0.16 0.13 0.11 0.10 0.12 0.12 0.16 0.26 0.32 0.32 0.35 0.34 0.39 0.46 0.45 0.42 0.53 0.44
0.00 0.01 0.06 0.08 0.03 0.05 0.03 0.10 0.14 0.14 0.15 0.13 0.09 0.16 0.25 0.24 0.32 0.51 0.59 0.44 0.47 0.45 0.36 0.39 0.43 0.39 0.34 0.29 0.30 0.25 0.18 0.19 0.19 0.19 0.18 0.22 0.35 0.32 0.22 0.28 0.53 0.45 0.56 0.53 0.47 0.50 0.46 0.43 0.44
0.00 0.00 0.10 0.26 0.15 0.15 0.12 0.16 0.08 0.13 0.17 0.08 0.02 0.02 0.05 0.17 0.26 0.40 0.94 1.06 0.95 0.94 1.02 0.72 0.53 0.52 0.45 0.38 0.35 0.41 0.38 0.30 0.32 0.45 0.49 0.52 0.55 0.54 0.45 0.48 0.45 0.39 0.37 0.52 0.42 0.32 0.36 0.41 0.44

GFSSGP_prec_precacc24_132.txt.gz
Total_Precipitation_Accumulation
0.00 0.00 0.00 0.00 0.00 0.00 0.00 0.00 0.00 0.00 0.00 0.00 0.00 0.00 0.00 0.00 0.00 0.00 0.00 0.00 0.00 0.00 0.00 0.00 0.00 0.00 0.00 0.00 0.00 0.00 0.00 0.00 0.00 0.00 0.00 0.00 0.00 0.00 0.00 0.00 0.00 0.00 0.00 0.00 0.00 0.00 0.01 0.03 0.01
0.00 0.00 0.00 0.00 0.00 0.00 0.00 0.00 0.00 0.00 0.00 0.00 0.00 0.00 0.00 0.00 0.00 0.00 0.00 0.00 0.00 0.00 0.00 0.00 0.00 0.00 0.00 0.00 0.00 0.00 0.00 0.00 0.00 0.00 0.00 0.00 0.00 0.00 0.00 0.00 0.01 0.02 0.01 0.00 0.00 0.00 0.05 0.02 0.00
0.00 0.00 0.00 0.00 0.00 0.00 0.00 0.00 0.00 0.00 0.00 0.00 0.00 0.00 0.00 0.00 0.00 0.00 0.00 0.00 0.00 0.00 0.00 0.00 0.00 0.00 0.00 0.00 0.00 0.00 0.00 0.00 0.00 0.00 0.00 0.00 0.00 0.00 0.00 0.00 0.00 0.00 0.00 0.00 0.00 0.01 0.04 0.00 0.00
0.00 0.00 0.00 0.00 0.00 0.00 0.00 0.00 0.00 0.00 0.00 0.00 0.00 0.00 0.00 0.00 0.00 0.00 0.00 0.00 0.00 0.00 0.00 0.00 0.00 0.00 0.00 0.00 0.00 0.00 0.00 0.00 0.00 0.00 0.00 0.00 0.00 0.00 0.00 0.00 0.00 0.00 0.00 0.00 0.00 0.05 0.02 0.00 0.00
0.00 0.00 0.00 0.00 0.00 0.00 0.00 0.00 0.00 0.00 0.00 0.00 0.00 0.00 0.00 0.00 0.00 0.00 0.00 0.00 0.00 0.00 0.00 0.00 0.00 0.00 0.00 0.00 0.00 0.00 0.00 0.00 0.00 0.00 0.00 0.00 0.00 0.00 0.00 0.00 0.00 0.00 0.00 0.01 0.01 0.02 0.00 0.00 0.00
0.00 0.00 0.00 0.00 0.00 0.00 0.00 0.00 0.00 0.00 0.00 0.00 0.00 0.00 0.00 0.00 0.00 0.00 0.00 0.00 0.00 0.00 0.00 0.00 0.01 0.00 0.00 0.00 0.00 0.00 0.00 0.00 0.00 0.00 0.00 0.00 0.00 0.00 0.00 0.00 0.00 0.00 0.00 0.01 0.00 0.00 0.00 0.00 0.00
0.00 0.00 0.00 0.00 0.00 0.00 0.00 0.00 0.00 0.00 0.00 0.00 0.00 0.00 0.00 0.00 0.00 0.00 0.00 0.00 0.00 0.00 0.00 0.00 0.00 0.01 0.00 0.00 0.00 0.00 0.00 0.00 0.00 0.00 0.00 0.00 0.00 0.00 0.00 0.00 0.00 0.01 0.03 0.02 0.00 0.00 0.00 0.00 0.00
0.00 0.00 0.00 0.00 0.00 0.00 0.00 0.00 0.00 0.00 0.00 0.00 0.00 0.00 0.00 0.00 0.00 0.00 0.00 0.00 0.00 0.00 0.00 0.01 0.00 0.00 0.00 0.00 0.01 0.03 0.04 0.01 0.00 0.00 0.00 0.00 0.00 0.00 0.00 0.01 0.00 0.03 0.06 0.03 0.00 0.00 0.00 0.00 0.00
0.00 0.00 0.00 0.00 0.00 0.00 0.00 0.00 0.00 0.00 0.00 0.00 0.00 0.00 0.00 0.00 0.00 0.00 0.00 0.00 0.00 0.00 0.00 0.01 0.01 0.00 0.00 0.00 0.01 0.01 0.07 0.07 0.00 0.00 0.00 0.00 0.00 0.00 0.00 0.00 0.00 0.05 0.04 0.02 0.00 0.00 0.00 0.00 0.00
0.00 0.00 0.00 0.00 0.00 0.00 0.00 0.00 0.00 0.00 0.00 0.00 0.00 0.00 0.00 0.00 0.00 0.00 0.00 0.00 0.01 0.00 0.01 0.04 0.05 0.03 0.01 0.01 0.00 0.00 0.01 0.05 0.03 0.03 0.01 0.00 0.00 0.00 0.00 0.00 0.01 0.06 0.08 0.04 0.00 0.00 0.00 0.00 0.00
0.00 0.00 0.00 0.00 0.00 0.00 0.00 0.00 0.00 0.00 0.00 0.00 0.00 0.00 0.00 0.00 0.00 0.00 0.00 0.00 0.00 0.00 0.01 0.04 0.05 0.07 0.03 0.01 0.00 0.00 0.00 0.02 0.05 0.06 0.08 0.04 0.03 0.03 0.01 0.04 0.02 0.05 0.04 0.04 0.00 0.00 0.00 0.00 0.00
0.00 0.00 0.00 0.00 0.00 0.00 0.00 0.00 0.00 0.00 0.00 0.00 0.00 0.00 0.00 0.00 0.00 0.00 0.00 0.01 0.01 0.00 0.00 0.07 0.08 0.08 0.08 0.17 0.20 0.03 0.05 0.04 0.04 0.04 0.06 0.10 0.09 0.09 0.06 0.02 0.03 0.04 0.03 0.04 0.02 0.00 0.00 0.00 0.01
0.00 0.00 0.00 0.00 0.00 0.00 0.00 0.00 0.00 0.00 0.00 0.00 0.00 0.00 0.00 0.00 0.00 0.00 0.00 0.00 0.00 0.00 0.00 0.04 0.08 0.08 0.11 0.18 0.54 0.32 0.27 0.32 0.22 0.10 0.12 0.12 0.12 0.09 0.08 0.05 0.03 0.02 0.03 0.05 0.05 0.01 0.00 0.00 0.01
0.00 0.00 0.00 0.00 0.00 0.00 0.00 0.00 0.00 0.00 0.00 0.00 0.00 0.00 0.00 0.00 0.00 0.00 0.00 0.00 0.00 0.00 0.00 0.00 0.01 0.09 0.21 0.29 0.42 0.35 0.53 0.62 0.59 0.30 0.16 0.40 0.37 0.30 0.19 0.10 0.08 0.06 0.03 0.02 0.04 0.04 0.02 0.01 0.02
0.00 0.00 0.00 0.00 0.00 0.00 0.00 0.00 0.00 0.00 0.00 0.00 0.00 0.00 0.00 0.00 0.00 0.00 0.00 0.00 0.00 0.00 0.00 0.00 0.00 0.00 0.09 0.19 0.29 0.32 0.34 0.60 0.82 0.79 0.53 0.42 0.54 0.43 0.42 0.31 0.19 0.17 0.14 0.06 0.04 0.07 0.09 0.05 0.05
0.00 0.00 0.00 0.00 0.00 0.00 0.00 0.00 0.00 0.00 0.00 0.00 0.00 0.00 0.00 0.00 0.00 0.00 0.00 0.00 0.00 0.00 0.00 0.00 0.00 0.00 0.00 0.01 0.09 0.25 0.31 0.39 0.49 0.52 0.70 0.87 0.83 0.84 0.67 0.38 0.28 0.42 0.45 0.27 0.13 0.07 0.11 0.10 0.07
0.00 0.00 0.00 0.00 0.00 0.00 0.00 0.00 0.00 0.00 0.00 0.00 0.00 0.00 0.00 0.00 0.00 0.00 0.00 0.00 0.00 0.00 0.00 0.00 0.00 0.00 0.00 0.00 0.00 0.02 0.08 0.17 0.15 0.23 0.37 0.66 1.17 1.42 1.14 0.93 0.91 0.80 0.87 0.86 0.52 0.20 0.15 0.11 0.10
0.00 0.00 0.00 0.00 0.00 0.00 0.00 0.00 0.00 0.00 0.00 0.00 0.00 0.00 0.00 0.00 0.00 0.00 0.00 0.00 0.00 0.00 0.00 0.00 0.00 0.00 0.00 0.00 0.00 0.01 0.02 0.04 0.05 0.08 0.30 0.40 0.53 0.70 0.93 1.05 1.00 1.06 1.01 0.86 0.74 0.45 0.26 0.21 0.20
0.00 0.00 0.00 0.00 0.00 0.00 0.00 0.00 0.00 0.00 0.00 0.00 0.00 0.00 0.00 0.00 0.00 0.00 0.00 0.00 0.00 0.00 0.00 0.00 0.00 0.00 0.00 0.00 0.00 0.00 0.00 0.00 0.05 0.07 0.06 0.24 0.30 0.44 0.53 0.89 1.56 1.34 0.73 0.51 0.71 0.87 0.63 0.44 0.47
0.00 0.00 0.00 0.00 0.00 0.00 0.00 0.00 0.00 0.00 0.00 0.00 0.00 0.00 0.00 0.00 0.00 0.00 0.00 0.00 0.00 0.00 0.00 0.00 0.00 0.00 0.00 0.00 0.00 0.00 0.00 0.00 0.00 0.03 0.09 0.10 0.11 0.17 0.38 0.44 0.62 1.00 1.02 0.83 0.71 0.79 0.87 0.71 0.71
0.00 0.00 0.00 0.00 0.00 0.00 0.00 0.00 0.00 0.00 0.00 0.00 0.00 0.00 0.00 0.00 0.00 0.00 0.00 0.00 0.00 0.00 0.00 0.00 0.00 0.00 0.00 0.00 0.00 0.00 0.00 0.01 0.02 0.01 0.02 0.04 0.09 0.14 0.19 0.26 0.31 0.50 0.97 0.89 0.59 0.51 0.67 0.76 0.79
0.00 0.00 0.00 0.00 0.00 0.00 0.00 0.00 0.00 0.00 0.00 0.00 0.00 0.00 0.00 0.00 0.00 0.00 0.00 0.00 0.00 0.00 0.00 0.00 0.00 0.00 0.00 0.00 0.00 0.00 0.00 0.00 0.00 0.00 0.00 0.01 0.12 0.19 0.24 0.26 0.29 0.39 0.40 0.63 0.63 0.53 0.50 0.55 0.57
0.00 0.00 0.00 0.00 0.00 0.00 0.00 0.00 0.00 0.00 0.00 0.00 0.00 0.00 0.00 0.00 0.00 0.00 0.00 0.00 0.00 0.00 0.00 0.00 0.00 0.00 0.00 0.00 0.00 0.00 0.00 0.00 0.00 0.00 0.00 0.02 0.04 0.16 0.34 0.38 0.45 0.58 0.81 0.41 0.71 0.74 0.69 0.62 0.52
0.00 0.00 0.00 0.00 0.00 0.00 0.00 0.00 0.00 0.00 0.00 0.00 0.00 0.00 0.00 0.00 0.00 0.00 0.00 0.00 0.00 0.00 0.00 0.00 0.00 0.00 0.00 0.00 0.00 0.00 0.00 0.00 0.00 0.00 0.01 0.04 0.07 0.12 0.15 0.18 0.28 0.34 0.51 0.69 0.78 1.05 0.92 0.96 0.78
0.00 0.00 0.00 0.00 0.00 0.00 0.00 0.00 0.00 0.01 0.01 0.01 0.01 0.02 0.01 0.01 0.00 0.00 0.00 0.00 0.01 0.02 0.01 0.01 0.00 0.00 0.00 0.00 0.00 0.00 0.00 0.00 0.00 0.00 0.01 0.04 0.08 0.09 0.05 0.15 0.17 0.16 0.15 0.35 0.65 0.94 1.17 1.50 1.58
0.00 0.00 0.00 0.00 0.00 0.00 0.00 0.00 0.00 0.01 0.00 0.00 0.01 0.02 0.02 0.01 0.00 0.00 0.01 0.05 0.06 0.07 0.06 0.06 0.05 0.03 0.01 0.00 0.00 0.00 0.01 0.02 0.01 0.01 0.01 0.02 0.05 0.08 0.10 0.15 0.25 0.25 0.32 0.38 0.40 0.53 0.63 0.73 1.06
0.00 0.00 0.00 0.01 0.00 0.00 0.00 0.00 0.00 0.00 0.00 0.00 0.01 0.02 0.04 0.04 0.03 0.01 0.01 0.05 0.08 0.09 0.09 0.11 0.13 0.13 0.10 0.06 0.03 0.03 0.03 0.04 0.03 0.02 0.04 0.03 0.05 0.14 0.16 0.22 0.26 0.26 0.22 0.31 0.31 0.34 0.42 0.49 0.49
0.00 0.00 0.01 0.02 0.01 0.01 0.00 0.00 0.02 0.01 0.01 0.01 0.01 0.02 0.04 0.07 0.09 0.08 0.05 0.04 0.09 0.08 0.08 0.15 0.17 0.19 0.20 0.19 0.16 0.08 0.07 0.11 0.11 0.09 0.09 0.11 0.13 0.18 0.28 0.34 0.33 0.36 0.34 0.36 0.41 0.42 0.41 0.51 0.43
0.00 0.00 0.01 0.04 0.02 0.04 0.03 0.08 0.05 0.02 0.02 0.02 0.01 0.04 0.06 0.10 0.16 0.22 0.33 0.25 0.28 0.37 0.27 0.28 0.36 0.36 0.29 0.26 0.26 0.22 0.18 0.24 0.25 0.25 0.20 0.22 0.35 0.36 0.26 0.31 0.55 0.46 0.57 0.54 0.47 0.50 0.45 0.42 0.43
0.00 0.00 0.04 0.07 0.09 0.14 0.12 0.10 0.02 0.02 0.03 0.02 0.01 0.02 0.03 0.11 0.16 0.21 0.72 0.99 0.90 0.91 0.99 0.67 0.41 0.40 0.40 0.33 0.31 0.38 0.44 0.41 0.41 0.54 0.53 0.52 0.56 0.57 0.48 0.50 0.45 0.40 0.38 0.52 0.43 0.31 0.35 0.39 0.42

GFSSGP_prec_precacc24_135.txt.gz
Total_Precipitation_Accumulation
0.00 0.00 0.00 0.00 0.00 0.00 0.00 0.00 0.00 0.00 0.00 0.00 0.00 0.00 0.00 0.00 0.00 0.00 0.00 0.00 0.00 0.00 0.00 0.00 0.00 0.00 0.00 0.00 0.00 0.00 0.00 0.00 0.00 0.00 0.00 0.00 0.00 0.00 0.00 0.00 0.00 0.00 0.00 0.00 0.00 0.00 0.00 0.02 0.01
0.00 0.00 0.00 0.00 0.00 0.00 0.00 0.00 0.00 0.00 0.00 0.00 0.00 0.00 0.00 0.00 0.00 0.00 0.00 0.00 0.00 0.00 0.00 0.00 0.00 0.00 0.00 0.00 0.00 0.00 0.00 0.00 0.00 0.00 0.00 0.00 0.00 0.00 0.00 0.00 0.01 0.02 0.01 0.00 0.00 0.00 0.05 0.02 0.00
0.00 0.00 0.00 0.00 0.00 0.00 0.00 0.00 0.00 0.00 0.00 0.00 0.00 0.00 0.00 0.00 0.00 0.00 0.00 0.00 0.00 0.00 0.00 0.00 0.00 0.00 0.00 0.00 0.00 0.00 0.00 0.00 0.00 0.00 0.00 0.00 0.00 0.00 0.00 0.00 0.00 0.00 0.00 0.00 0.00 0.01 0.04 0.00 0.00
0.00 0.00 0.00 0.00 0.00 0.00 0.00 0.00 0.00 0.00 0.00 0.00 0.00 0.00 0.00 0.00 0.00 0.00 0.00 0.00 0.00 0.00 0.00 0.00 0.00 0.00 0.00 0.00 0.00 0.00 0.00 0.00 0.00 0.00 0.00 0.00 0.00 0.00 0.00 0.00 0.00 0.00 0.00 0.00 0.00 0.05 0.02 0.00 0.00
0.00 0.00 0.00 0.00 0.00 0.00 0.00 0.00 0.00 0.00 0.00 0.00 0.00 0.00 0.00 0.00 0.00 0.00 0.00 0.00 0.00 0.00 0.00 0.00 0.01 0.00 0.00 0.00 0.00 0.00 0.00 0.00 0.00 0.00 0.00 0.00 0.00 0.00 0.00 0.00 0.00 0.00 0.00 0.00 0.00 0.02 0.00 0.00 0.00
0.00 0.00 0.00 0.00 0.00 0.00 0.00 0.00 0.00 0.00 0.00 0.00 0.00 0.00 0.00 0.00 0.00 0.00 0.00 0.00 0.00 0.00 0.00 0.00 0.01 0.00 0.00 0.00 0.00 0.00 0.00 0.00 0.00 0.00 0.00 0.00 0.01 0.03 0.01 0.00 0.00 0.00 0.00 0.01 0.00 0.00 0.00 0.00 0.00
0.00 0.00 0.00 0.00 0.00 0.00 0.00 0.00 0.00 0.00 0.00 0.00 0.00 0.00 0.00 0.00 0.00 0.00 0.00 0.00 0.00 0.00 0.00 0.00 0.00 0.01 0.00 0.00 0.00 0.01 0.05 0.05 0.02 0.00 0.00 0.01 0.04 0.02 0.00 0.00 0.01 0.05 0.05 0.03 0.00 0.00 0.00 0.00 0.00
0.00 0.00 0.00 0.00 0.00 0.00 0.00 0.00 0.00 0.00 0.00 0.00 0.00 0.00 0.00 0.00 0.00 0.00 0.00 0.00 0.00 0.00 0.00 0.01 0.00 0.00 0.00 0.01 0.02 0.06 0.08 0.11 0.12 0.07 0.02 0.01 0.05 0.04 0.00 0.01 0.02 0.06 0.06 0.05 0.01 0.00 0.00 0.00 0.00
0.00 0.00 0.00 0.00 0.00 0.00 0.00 0.00 0.00 0.00 0.00 0.00 0.00 0.00 0.00 0.00 0.00 0.00 0.00 0.00 0.00 0.00 0.00 0.02 0.01 0.00 0.00 0.01 0.01 0.01 0.08 0.12 0.09 0.09 0.08 0.03 0.01 0.01 0.02 0.00 0.01 0.06 0.05 0.02 0.00 0.00 0.00 0.00 0.00
0.00 0.00 0.00 0.00 0.00 0.00 0.00 0.00 0.00 0.00 0.00 0.00 0.00 0.00 0.00 0.00 0.00 0.00 0.00 0.00 0.00 0.00 0.01 0.04 0.05 0.03 0.01 0.01 0.00 0.00 0.02 0.06 0.07 0.11 0.09 0.07 0.05 0.02 0.03 0.06 0.05 0.10 0.11 0.06 0.02 0.00 0.00 0.00 0.00
0.00 0.00 0.00 0.00 0.00 0.00 0.00 0.00 0.00 0.00 0.00 0.00 0.00 0.00 0.00 0.00 0.00 0.00 0.00 0.00 0.00 0.00 0.01 0.04 0.05 0.07 0.03 0.01 0.00 0.00 0.00 0.02 0.05 0.09 0.13 0.13 0.16 0.12 0.05 0.05 0.05 0.06 0.07 0.06 0.02 0.00 0.00 0.00 0.00
0.00 0.00 0.00 0.00 0.00 0.00 0.00 0.00 0.00 0.00 0.00 0.00 0.00 0.00 0.00 0.00 0.00 0.00 0.00 0.00 0.00 0.00 0.00 0.07 0.08 0.08 0.08 0.17 0.20 0.03 0.05 0.04 0.04 0.05 0.08 0.15 0.14 0.15 0.10 0.06 0.05 0.06 0.05 0.05 0.02 0.01 0.00 0.00 0.01
0.00 0.00 0.00 0.00 0.00 0.00 0.00 0.00 0.00 0.00 0.00 0.00 0.00 0.00 0.00 0.00 0.00 0.00 0.00 0.00 0.00 0.00 0.00 0.04 0.08 0.08 0.11 0.18 0.54 0.32 0.27 0.32 0.22 0.11 0.16 0.21 0.18 0.13 0.11 0.10 0.07 0.06 0.06 0.08 0.07 0.04 0.01 0.00 0.01
0.00 0.00 0.00 0.00 0.00 0.00 0.00 0.00 0.00 0.00 0.00 0.00 0.00 0.00 0.00 0.00 0.00 0.00 0.00 0.00 0.00 0.00 0.00 0.00 0.01 0.09 0.21 0.29 0.42 0.35 0.53 0.62 0.59 0.30 0.16 0.40 0.39 0.34 0.26 0.20 0.16 0.13 0.10 0.13 0.16 0.12 0.05 0.03 0.03
0.00 0.00 0.00 0.00 0.00 0.00 0.00 0.00 0.00 0.00 0.00 0.00 0.00 0.00 0.00 0.00 0.00 0.00 0.00 0.00 0.00 0.00 0.00 0.00 0.00 0.00 0.09 0.17 0.28 0.31 0.34 0.60 0.82 0.79 0.53 0.42 0.54 0.43 0.44 0.39 0.31 0.31 0.29 0.21 0.20 0.22 0.16 0.10 0.10
0.00 0.00 0.00 0.00 0.00 0.00 0.00 0.00 0.00 0.00 0.00 0.00 0.00 0.00 0.00 0.00 0.00 0.00 0.00 0.00 0.00 0.00 0.00 0.00 0.00 0.00 0.00 0.01 0.09 0.25 0.30 0.39 0.49 0.52 0.70 0.87 0.83 0.84 0.67 0.37 0.28 0.46 0.53 0.48 0.53 0.59 0.68 0.32 0.14
0.00 0.00 0.00 0.00 0.00 0.00 0.00 0.00 0.00 0.00 0.00 0.00 0.00 0.00 0.00 0.00 0.00 0.00 0.00 0.00 0.00 0.00 0.00 0.00 0.00 0.00 0.00 0.00 0.00 0.02 0.08 0.16 0.15 0.23 0.37 0.66 1.17 1.42 1.14 0.93 0.91 0.80 0.88 1.06 1.36 1.44 1.42 0.94 0.46
0.00 0.00 0.00 0.00 0.00 0.00 0.00 0.00 0.00 0.00 0.00 0.00 0.00 0.00 0.00 0.00 0.00 0.00 0.00 0.00 0.00 0.00 0.00 0.00 0.00 0.00 0.00 0.00 0.00 0.00 0.00 0.03 0.05 0.08 0.30 0.40 0.53 0.70 0.93 1.04 1.00 1.06 1.01 0.86 0.76 0.70 0.76 0.85 0.62
0.00 0.00 0.00 0.00 0.00 0.00 0.00 0.00 0.00 0.00 0.00 0.00 0.00 0.00 0.00 0.00 0.00 0.00 0.00 0.00 0.00 0.00 0.00 0.00 0.00 0.00 0.00 0.00 0.00 0.00 0.00 0.00 0.05 0.07 0.06 0.24 0.30 0.44 0.53 0.89 1.55 1.34 0.73 0.51 0.71 0.89 0.71 0.49 0.53
0.00 0.00 0.00 0.00 0.00 0.00 0.00 0.00 0.00 0.00 0.00 0.00 0.00 0.00 0.00 0.00 0.00 0.00 0.00 0.00 0.00 0.00 0.00 0.00 0.00 0.00 0.00 0.00 0.00 0.00 0.00 0.00 0.00 0.03 0.09 0.09 0.11 0.17 0.37 0.43 0.62 0.99 1.02 0.83 0.71 0.79 0.86 0.71 0.70
0.00 0.00 0.00 0.00 0.00 0.00 0.00 0.00 0.00 0.00 0.00 0.00 0.00 0.00 0.00 0.00 0.00 0.00 0.00 0.00 0.00 0.00 0.00 0.00 0.00 0.00 0.00 0.00 0.00 0.00 0.00 0.00 0.00 0.00 0.02 0.04 0.09 0.14 0.19 0.26 0.30 0.50 0.96 0.89 0.58 0.50 0.67 0.76 0.79
0.00 0.00 0.00 0.00 0.00 0.00 0.00 0.00 0.00 0.00 0.00 0.00 0.00 0.00 0.00 0.00 0.00 0.00 0.00 0.00 0.00 0.00 0.00 0.00 0.00 0.00 0.00 0.00 0.00 0.00 0.00 0.00 0.00 0.00 0.00 0.01 0.10 0.18 0.24 0.26 0.29 0.38 0.40 0.63 0.61 0.51 0.50 0.55 0.56
0.00 0.00 0.00 0.00 0.00 0.00 0.00 0.00 0.00 0.00 0.00 0.00 0.00 0.00 0.00 0.00 0.00 0.00 0.00 0.00 0.00 0.00 0.00 0.00 0.00 0.00 0.00 0.00 0.00 0.00 0.00 0.00 0.00 0.00 0.00 0.01 0.03 0.14 0.30 0.38 0.44 0.57 0.80 0.41 0.70 0.73 0.67 0.62 0.53
0.00 0.00 0.00 0.00 0.00 0.00 0.00 0.00 0.00 0.00 0.00 0.00 0.00 0.00 0.00 0.00 0.00 0.00 0.00 0.00 0.00 0.00 0.00 0.00 0.00 0.00 0.00 0.00 0.00 0.00 0.00 0.00 0.00 0.00 0.01 0.03 0.05 0.05 0.09 0.13 0.22 0.30 0.50 0.69 0.77 1.04 0.91 0.95 0.78
0.00 0.00 0.00 0.00 0.00 0.00 0.00 0.00 0.00 0.00 0.00 0.00 0.00 0.00 0.00 0.00 0.00 0.00 0.00 0.00 0.00 0.00 0.00 0.00 0.00 0.00 0.00 0.00 0.00 0.00 0.00 0.00 0.01 0.01 0.01 0.04 0.07 0.07 0.03 0.13 0.14 0.14 0.12 0.33 0.64 0.94 1.16 1.49 1.58
0.00 0.00 0.00 0.00 0.00 0.00 0.00 0.00 0.00 0.00 0.00 0.00 0.00 0.00 0.00 0.00 0.00 0.00 0.00 0.00 0.00 0.01 0.01 0.02 0.02 0.02 0.00 0.00 0.00 0.00 0.00 0.02 0.02 0.02 0.03 0.03 0.05 0.05 0.07 0.09 0.12 0.17 0.26 0.35 0.38 0.51 0.62 0.71 1.05
0.00 0.00 0.00 0.01 0.00 0.00 0.00 0.00 0.00 0.00 0.00 0.00 0.00 0.00 0.00 0.00 0.00 0.00 0.00 0.00 0.00 0.01 0.02 0.05 0.05 0.05 0.03 0.02 0.01 0.01 0.02 0.04 0.04 0.03 0.05 0.05 0.06 0.12 0.13 0.15 0.19 0.22 0.20 0.28 0.29 0.32 0.40 0.47 0.47
0.00 0.00 0.01 0.01 0.00 0.00 0.00 0.00 0.01 0.00 0.01 0.01 0.00 0.00 0.00 0.00 0.01 0.01 0.02 0.02 0.02 0.02 0.04 0.09 0.09 0.11 0.13 0.10 0.08 0.04 0.04 0.08 0.10 0.12 0.14 0.15 0.16 0.21 0.29 0.33 0.33 0.34 0.33 0.36 0.39 0.40 0.38 0.49 0.39
0.00 0.00 0.00 0.02 0.02 0.03 0.03 0.07 0.04 0.02 0.01 0.00 0.00 0.00 0.00 0.01 0.02 0.03 0.10 0.11 0.10 0.14 0.15 0.25 0.33 0.30 0.18 0.14 0.16 0.16 0.18 0.26 0.27 0.30 0.27 0.28 0.38 0.39 0.30 0.35 0.59 0.48 0.58 0.54 0.47 0.50 0.44 0.40 0.40
0.00 0.00 0.01 0.03 0.05 0.08 0.08 0.08 0.02 0.01 0.00 0.01 0.00 0.00 0.00 0.01 0.03 0.06 0.20 0.48 0.51 0.62 0.76 0.58 0.36 0.34 0.33 0.22 0.26 0.41 0.51 0.43 0.40 0.55 0.56 0.56 0.57 0.57 0.49 0.51 0.48 0.42 0.40 0.53 0.44 0.31 0.36 0.41 0.44

GFSSGP_prec_precacc24_138.txt.gz
Total_Precipitation_Accumulation
0.00 0.00 0.00 0.00 0.00 0.00 0.00 0.00 0.00 0.00 0.00 0.00 0.00 0.00 0.00 0.00 0.00 0.00 0.00 0.00 0.00 0.00 0.00 0.00 0.00 0.00 0.00 0.00 0.00 0.00 0.00 0.00 0.00 0.00 0.00 0.00 0.00 0.00 0.00 0.00 0.00 0.00 0.00 0.00 0.00 0.00 0.00 0.02 0.01
0.00 0.00 0.00 0.00 0.00 0.00 0.00 0.00 0.00 0.00 0.00 0.00 0.00 0.00 0.00 0.00 0.00 0.00 0.00 0.00 0.00 0.00 0.00 0.00 0.00 0.00 0.00 0.00 0.00 0.00 0.00 0.00 0.00 0.00 0.00 0.00 0.00 0.00 0.00 0.00 0.01 0.02 0.01 0.00 0.00 0.00 0.02 0.01 0.00
0.00 0.00 0.00 0.00 0.00 0.00 0.00 0.00 0.00 0.00 0.00 0.00 0.00 0.00 0.00 0.00 0.00 0.00 0.00 0.00 0.00 0.00 0.00 0.00 0.00 0.00 0.00 0.00 0.00 0.00 0.00 0.00 0.00 0.00 0.00 0.00 0.00 0.00 0.00 0.00 0.00 0.00 0.00 0.00 0.00 0.01 0.04 0.00 0.00
0.00 0.00 0.00 0.00 0.00 0.00 0.00 0.00 0.00 0.00 0.00 0.00 0.00 0.00 0.00 0.00 0.00 0.00 0.00 0.00 0.00 0.00 0.00 0.00 0.00 0.00 0.00 0.00 0.00 0.00 0.00 0.00 0.00 0.00 0.00 0.01 0.03 0.02 0.00 0.00 0.00 0.00 0.00 0.00 0.00 0.05 0.02 0.00 0.00
0.00 0.00 0.00 0.00 0.00 0.00 0.00 0.00 0.00 0.00 0.00 0.00 0.00 0.00 0.00 0.00 0.00 0.00 0.00 0.00 0.00 0.00 0.00 0.00 0.01 0.00 0.00 0.00 0.00 0.00 0.00 0.00 0.00 0.00 0.00 0.00 0.03 0.05 0.03 0.01 0.00 0.00 0.00 0.00 0.00 0.02 0.00 0.00 0.00
0.00 0.00 0.00 0.00 0.00 0.00 0.00 0.00 0.00 0.00 0.00 0.00 0.00 0.00 0.00 0.00 0.00 0.00 0.00 0.00 0.00 0.00 0.00 0.00 0.01 0.00 0.00 0.00 0.00 0.00 0.00 0.00 0.00 0.00 0.00 0.00 0.05 0.06 0.06 0.03 0.01 0.03 0.02 0.01 0.01 0.01 0.00 0.00 0.00
0.00 0.00 0.00 0.00 0.00 0.00 0.00 0.00 0.00 0.00 0.00 0.00 0.00 0.00 0.00 0.00 0.00 0.00 0.00 0.00 0.00 0.00 0.00 0.00 0.00 0.02 0.00 0.00 0.00 0.02 0.05 0.06 0.02 0.01 0.00 0.02 0.08 0.05 0.05 0.05 0.07 0.08 0.07 0.05 0.03 0.02 0.01 0.00 0.00
0.00 0.00 0.00 0.00 0.00 0.00 0.00 0.00 0.00 0.00 0.00 0.00 0.00 0.00 0.00 0.00 0.00 0.00 0.00 0.00 0.00 0.00 0.00 0.01 0.00 0.00 0.00 0.02 0.02 0.06 0.08 0.11 0.13 0.12 0.06 0.05 0.09 0.05 0.03 0.02 0.06 0.08 0.09 0.06 0.04 0.02 0.00 0.00 0.00
0.00 0.00 0.00 0.00 0.00 0.00 0.00 0.00 0.00 0.00 0.00 0.00 0.00 0.00 0.00 0.00 0.00 0.00 0.00 0.00 0.00 0.00 0.00 0.02 0.01 0.00 0.00 0.01 0.02 0.02 0.09 0.13 0.11 0.13 0.16 0.12 0.07 0.08 0.05 0.01 0.06 0.10 0.07 0.06 0.05 0.04 0.01 0.00 0.00
0.00 0.00 0.00 0.00 0.00 0.00 0.00 0.00 0.00 0.00 0.00 0.00 0.00 0.00 0.00 0.00 0.00 0.00 0.00 0.00 0.00 0.00 0.01 0.04 0.05 0.03 0.01 0.01 0.00 0.00 0.02 0.06 0.11 0.15 0.14 0.11 0.14 0.14 0.11 0.14 0.10 0.16 0.17 0.12 0.07 0.05 0.03 0.00 0.00
0.00 0.00 0.00 0.00 0.00 0.00 0.00 0.00 0.00 0.00 0.00 0.00 0.00 0.00 0.00 0.00 0.00 0.00 0.00 0.00 0.00 0.00 0.01 0.04 0.04 0.07 0.03 0.01 0.00 0.00 0.00 0.02 0.06 0.10 0.14 0.15 0.19 0.19 0.13 0.15 0.15 0.14 0.15 0.12 0.05 0.02 0.01 0.00 0.00
0.00 0.00 0.00 0.00 0.00 0.00 0.00 0.00 0.00 0.00 0.00 0.00 0.00 0.00 0.00 0.00 0.00 0.00 0.00 0.00 0.00 0.00 0.00 0.07 0.08 0.08 0.08 0.17 0.20 0.03 0.05 0.04 0.04 0.05 0.09 0.15 0.15 0.20 0.21 0.17 0.13 0.18 0.17 0.16 0.15 0.12 0.07 0.04 0.02
0.00 0.00 0.00 0.00 0.00 0.00 0.00 0.00 0.00 0.00 0.00 0.00 0.00 0.00 0.00 0.00 0.00 0.00 0.00 0.00 0.00 0.00 0.00 0.04 0.08 0.08 0.11 0.18 0.54 0.32 0.27 0.32 0.22 0.10 0.16 0.21 0.18 0.13 0.13 0.16 0.18 0.16 0.18 0.18 0.18 0.12 0.08 0.07 0.07
0.00 0.00 0.00 0.00 0.00 0.00 0.00 0.00 0.00 0.00 0.00 0.00 0.00 0.00 0.00 0.00 0.00 0.00 0.00 0.00 0.00 0.00 0.00 0.00 0.01 0.09 0.21 0.29 0.42 0.35 0.53 0.62 0.59 0.30 0.16 0.40 0.39 0.34 0.26 0.20 0.21 0.22 0.24 0.26 0.30 0.26 0.16 0.12 0.15
0.00 0.00 0.00 0.00 0.00 0.00 0.00 0.00 0.00 0.00 0.00 0.00 0.00 0.00 0.00 0.00 0.00 0.00 0.00 0.00 0.00 0.00 0.00 0.00 0.00 0.00 0.09 0.17 0.28 0.31 0.34 0.60 0.82 0.79 0.52 0.42 0.54 0.43 0.44 0.39 0.31 0.31 0.36 0.34 0.41 0.45 0.40 0.27 0.28
0.00 0.00 0.00 0.00 0.00 0.00 0.00 0.00 0.00 0.00 0.00 0.00 0.00 0.00 0.00 0.00 0.00 0.00 0.00 0.00 0.00 0.00 0.00 0.00 0.00 0.00 0.00 0.01 0.09 0.25 0.30 0.39 0.49 0.52 0.70 0.87 0.82 0.84 0.67 0.37 0.28 0.46 0.53 0.48 0.53 0.61 0.82 0.88 0.64
0.00 0.00 0.00 0.00 0.00 0.00 0.00 0.00 0.00 0.00 0.00 0.00 0.00 0.00 0.00 0.00 0.00 0.00 0.00 0.00 0.00 0.00 0.00 0.00 0.00 0.00 0.00 0.00 0.00 0.02 0.08 0.16 0.15 0.23 0.37 0.66 1.17 1.42 1.13 0.93 0.91 0.80 0.88 1.06 1.36 1.44 1.42 1.02 0.81
0.00 0.00 0.00 0.00 0.00 0.00 0.00 0.00 0.00 0.00 0.00 0.00 0.00 0.00 0.00 0.00 0.00 0.00 0.00 0.00 0.00 0.00 0.00 0.00 0.00 0.00 0.00 0.00 0.00 0.00 0.00 0.03 0.05 0.08 0.30 0.40 0.53 0.70 0.93 1.04 1.00 1.06 1.00 0.86 0.76 0.70 0.76 0.85 0.63
0.00 0.00 0.00 0.00 0.00 0.00 0.00 0.00 0.00 0.00 0.00 0.00 0.00 0.00 0.00 0.00 0.00 0.00 0.00 0.00 0.00 0.00 0.00 0.00 0.00 0.00 0.00 0.00 0.00 0.00 0.00 0.00 0.05 0.07 0.06 0.24 0.30 0.44 0.53 0.88 1.55 1.34 0.73 0.50 0.71 0.88 0.71 0.48 0.53
0.00 0.00 0.00 0.00 0.00 0.00 0.00 0.00 0.00 0.00 0.00 0.00 0.00 0.00 0.00 0.00 0.00 0.00 0.00 0.00 0.00 0.00 0.00 0.00 0.00 0.00 0.00 0.00 0.00 0.00 0.00 0.00 0.00 0.03 0.09 0.09 0.11 0.17 0.37 0.43 0.62 0.99 1.02 0.82 0.71 0.79 0.87 0.71 0.69
0.00 0.00 0.00 0.00 0.00 0.00 0.00 0.00 0.00 0.00 0.00 0.00 0.00 0.00 0.00 0.00 0.00 0.00 0.00 0.00 0.00 0.00 0.00 0.00 0.00 0.00 0.00 0.00 0.00 0.00 0.00 0.00 0.00 0.00 0.01 0.04 0.09 0.14 0.19 0.26 0.30 0.50 0.96 0.88 0.58 0.50 0.67 0.75 0.78
0.00 0.00 0.00 0.00 0.00 0.00 0.00 0.00 0.00 0.00 0.00 0.00 0.00 0.00 0.00 0.00 0.00 0.00 0.00 0.00 0.00 0.00 0.00 0.00 0.00 0.00 0.00 0.00 0.00 0.00 0.00 0.00 0.00 0.00 0.00 0.01 0.10 0.18 0.24 0.26 0.29 0.38 0.39 0.63 0.61 0.51 0.50 0.55 0.56
0.00 0.00 0.00 0.00 0.00 0.00 0.00 0.00 0.00 0.00 0.00 0.00 0.00 0.00 0.00 0.00 0.00 0.00 0.00 0.00 0.00 0.00 0.00 0.00 0.00 0.00 0.00 0.00 0.00 0.00 0.00 0.00 0.00 0.00 0.00 0.01 0.03 0.14 0.30 0.38 0.44 0.57 0.80 0.41 0.70 0.72 0.67 0.62 0.53
0.00 0.00 0.00 0.00 0.00 0.00 0.00 0.00 0.00 0.00 0.00 0.00 0.00 0.00 0.00 0.00 0.00 0.00 0.00 0.00 0.00 0.00 0.00 0.00 0.00 0.00 0.00 0.00 0.00 0.00 0.00 0.00 0.00 0.00 0.01 0.03 0.05 0.05 0.08 0.13 0.22 0.29 0.49 0.69 0.77 1.03 0.91 0.95 0.78
0.00 0.00 0.00 0.00 0.00 0.00 0.00 0.00 0.00 0.00 0.00 0.00 0.00 0.00 0.00 0.00 0.00 0.00 0.00 0.00 0.00 0.00 0.00 0.00 0.00 0.00 0.00 0.00 0.00 0.00 0.00 0.00 0.01 0.01 0.01 0.04 0.07 0.07 0.03 0.13 0.14 0.12 0.11 0.27 0.60 0.91 1.15 1.48 1.58
0.00 0.00 0.00 0.00 0.00 0.00 0.00 0.00 0.00 0.00 0.00 0.00 0.00 0.00 0.00 0.00 0.00 0.00 0.00 0.00 0.00 0.00 0.00 0.00 0.00 0.00 0.00 0.00 0.00 0.00 0.00 0.02 0.02 0.02 0.03 0.03 0.06 0.06 0.08 0.09 0.10 0.12 0.19 0.30 0.36 0.48 0.58 0.69 1.04
0.00 0.00 0.00 0.01 0.00 0.00 0.00 0.00 0.00 0.00 0.00 0.00 0.00 0.00 0.00 0.00 0.00 0.00 0.00 0.00 0.00 0.00 0.00 0.02 0.02 0.01 0.01 0.01 0.01 0.01 0.01 0.04 0.04 0.03 0.05 0.04 0.06 0.13 0.14 0.15 0.15 0.19 0.20 0.27 0.28 0.30 0.38 0.44 0.46
0.00 0.00 0.00 0.00 0.00 0.00 0.00 0.00 0.01 0.00 0.01 0.01 0.00 0.00 0.00 0.00 0.00 0.00 0.00 0.01 0.01 0.01 0.01 0.02 0.03 0.05 0.06 0.04 0.03 0.03 0.04 0.07 0.10 0.12 0.14 0.15 0.16 0.22 0.30 0.34 0.32 0.33 0.32 0.35 0.39 0.36 0.31 0.46 0.38
0.00 0.00 0.00 0.01 0.01 0.02 0.02 0.06 0.03 0.01 0.00 0.00 0.00 0.00 0.00 0.00 0.00 0.01 0.01 0.02 0.03 0.04 0.06 0.17 0.26 0.24 0.11 0.05 0.06 0.10 0.17 0.25 0.26 0.29 0.27 0.27 0.34 0.38 0.32 0.38 0.62 0.48 0.55 0.54 0.46 0.47 0.39 0.38 0.42
0.00 0.00 0.00 0.01 0.03 0.06 0.06 0.05 0.01 0.00 0.00 0.00 0.00 0.00 0.00 0.00 0.00 0.01 0.06 0.09 0.18 0.23 0.31 0.40 0.24 0.28 0.29 0.15 0.14 0.30 0.42 0.38 0.35 0.52 0.53 0.53 0.54 0.57 0.53 0.54 0.49 0.42 0.34 0.46 0.37 0.28 0.35 0.39 0.43

GFSSGP_prec_precacc24_141.txt.gz
Total_Precipitation_Accumulation
0.00 0.00 0.00 0.00 0.00 0.00 0.00 0.00 0.00 0.00 0.00 0.00 0.00 0.00 0.00 0.00 0.00 0.01 0.00 0.00 0.00 0.00 0.00 0.00 0.00 0.00 0.00 0.00 0.00 0.00 0.00 0.00 0.00 0.00 0.00 0.00 0.00 0.00 0.00 0.00 0.00 0.00 0.00 0.00 0.00 0.00 0.00 0.02 0.01
0.00 0.00 0.00 0.00 0.00 0.00 0.00 0.00 0.00 0.00 0.00 0.00 0.00 0.00 0.00 0.00 0.00 0.00 0.00 0.00 0.00 0.00 0.00 0.00 0.00 0.00 0.00 0.00 0.00 0.00 0.00 0.00 0.00 0.00 0.00 0.00 0.00 0.00 0.00 0.00 0.01 0.02 0.01 0.00 0.00 0.00 0.02 0.01 0.00
0.00 0.00 0.00 0.00 0.00 0.00 0.00 0.00 0.00 0.00 0.00 0.00 0.00 0.00 0.00 0.00 0.00 0.00 0.00 0.00 0.00 0.00 0.00 0.00 0.00 0.00 0.00 0.00 0.00 0.00 0.00 0.00 0.00 0.00 0.00 0.00 0.02 0.01 0.00 0.00 0.00 0.00 0.01 0.00 0.00 0.01 0.04 0.00 0.00
0.00 0.00 0.00 0.00 0.00 0.00 0.00 0.00 0.00 0.00 0.00 0.00 0.00 0.00 0.00 0.00 0.00 0.00 0.00 0.00 0.00 0.00 0.00 0.00 0.00 0.00 0.00 0.00 0.00 0.00 0.00 0.00 0.00 0.00 0.00 0.06 0.09 0.07 0.05 0.00 0.00 0.00 0.00 0.00 0.00 0.04 0.02 0.00 0.00
0.00 0.00 0.00 0.00 0.00 0.00 0.00 0.00 0.00 0.00 0.00 0.00 0.00 0.00 0.00 0.00 0.00 0.00 0.00 0.00 0.00 0.00 0.00 0.00 0.01 0.00 0.00 0.00 0.00 0.00 0.00 0.00 0.00 0.00 0.00 0.04 0.09 0.10 0.07 0.03 0.00 0.00 0.01 0.01 0.01 0.02 0.00 0.00 0.00
0.00 0.00 0.00 0.00 0.00 0.00 0.00 0.00 0.00 0.00 0.00 0.00 0.00 0.00 0.00 0.00 0.00 0.00 0.00 0.00 0.00 0.00 0.00 0.00 0.01 0.00 0.00 0.00 0.00 0.00 0.00 0.00 0.00 0.00 0.00 0.02 0.09 0.11 0.08 0.03 0.01 0.04 0.05 0.03 0.03 0.03 0.00 0.00 0.00
0.00 0.00 0.00 0.00 0.00 0.00 0.00 0.00 0.00 0.00 0.00 0.00 0.00 0.00 0.00 0.00 0.00 0.00 0.00 0.00 0.00 0.00 0.00 0.00 0.00 0.02 0.00 0.00 0.00 0.02 0.05 0.06 0.02 0.01 0.01 0.02 0.10 0.08 0.07 0.06 0.07 0.08 0.09 0.06 0.04 0.04 0.02 0.00 0.00
0.00 0.00 0.00 0.00 0.00 0.00 0.00 0.00 0.00 0.00 0.00 0.00 0.00 0.00 0.00 0.00 0.00 0.00 0.00 0.00 0.00 0.00 0.00 0.00 0.00 0.00 0.00 0.02 0.02 0.06 0.08 0.11 0.13 0.13 0.11 0.09 0.10 0.06 0.05 0.02 0.06 0.07 0.08 0.06 0.04 0.03 0.01 0.00 0.00
0.00 0.00 0.00 0.00 0.00 0.00 0.00 0.00 0.00 0.00 0.00 0.00 0.00 0.00 0.00 0.00 0.00 0.00 0.00 0.00 0.00 0.00 0.00 0.01 0.00 0.00 0.00 0.01 0.02 0.02 0.09 0.13 0.11 0.16 0.20 0.19 0.13 0.18 0.15 0.04 0.06 0.10 0.08 0.06 0.05 0.06 0.02 0.00 0.00
0.00 0.00 0.00 0.00 0.00 0.00 0.00 0.00 0.00 0.00 0.00 0.00 0.00 0.00 0.00 0.00 0.00 0.00 0.00 0.00 0.00 0.00 0.01 0.04 0.04 0.03 0.01 0.01 0.00 0.00 0.02 0.06 0.11 0.15 0.16 0.20 0.31 0.33 0.45 0.44 0.27 0.22 0.15 0.11 0.08 0.06 0.05 0.00 0.00
0.00 0.00 0.00 0.00 0.00 0.00 0.00 0.00 0.00 0.00 0.00 0.00 0.00 0.00 0.00 0.00 0.00 0.00 0.00 0.00 0.00 0.00 0.01 0.04 0.04 0.07 0.03 0.01 0.00 0.00 0.00 0.02 0.06 0.10 0.14 0.15 0.23 0.29 0.32 0.33 0.46 0.41 0.35 0.15 0.06 0.03 0.02 0.00 0.00
0.00 0.00 0.00 0.00 0.00 0.00 0.00 0.00 0.00 0.00 0.00 0.00 0.00 0.00 0.00 0.00 0.00 0.00 0.00 0.00 0.00 0.00 0.00 0.07 0.08 0.08 0.08 0.17 0.20 0.03 0.05 0.04 0.04 0.05 0.09 0.15 0.15 0.20 0.24 0.24 0.29 0.40 0.45 0.39 0.32 0.20 0.16 0.12 0.07
0.00 0.00 0.00 0.00 0.00 0.00 0.00 0.00 0.00 0.00 0.00 0.00 0.00 0.00 0.00 0.00 0.00 0.00 0.00 0.00 0.00 0.00 0.00 0.04 0.08 0.08 0.11 0.18 0.54 0.32 0.27 0.32 0.22 0.10 0.16 0.21 0.18 0.13 0.12 0.16 0.19 0.20 0.32 0.41 0.44 0.39 0.33 0.28 0.24
0.00 0.00 0.00 0.00 0.00 0.00 0.00 0.00 0.00 0.00 0.00 0.00 0.00 0.00 0.00 0.00 0.00 0.00 0.00 0.00 0.00 0.00 0.00 0.00 0.01 0.08 0.19 0.28 0.41 0.35 0.53 0.62 0.59 0.30 0.16 0.40 0.39 0.34 0.25 0.20 0.21 0.22 0.27 0.35 0.45 0.53 0.42 0.33 0.37
0.00 0.00 0.00 0.00 0.00 0.00 0.00 0.00 0.00 0.00 0.00 0.00 0.00 0.00 0.00 0.00 0.00 0.00 0.00 0.00 0.00 0.00 0.00 0.00 0.00 0.00 0.05 0.13 0.27 0.31 0.34 0.60 0.82 0.79 0.52 0.42 0.54 0.43 0.44 0.39 0.31 0.31 0.36 0.35 0.43 0.53 0.50 0.41 0.44
0.00 0.00 0.00 0.00 0.00 0.00 0.00 0.00 0.00 0.00 0.00 0.00 0.00 0.00 0.00 0.00 0.00 0.00 0.00 0.00 0.00 0.00 0.00 0.00 0.00 0.00 0.00 0.01 0.08 0.24 0.30 0.39 0.49 0.52 0.70 0.87 0.82 0.84 0.67 0.37 0.28 0.46 0.53 0.48 0.53 0.61 0.82 0.91 0.69
0.00 0.00 0.00 0.00 0.00 0.00 0.00 0.00 0.00 0.00 0.00 0.00 0.00 0.00 0.00 0.00 0.00 0.00 0.00 0.00 0.00 0.00 0.00 0.00 0.00 0.00 0.00 0.00 0.00 0.02 0.08 0.16 0.15 0.23 0.37 0.66 1.17 1.42 1.13 0.93 0.90 0.80 0.88 1.05 1.35 1.44 1.42 1.02 0.80
0.00 0.00 0.00 0.00 0.00 0.00 0.00 0.00 0.00 0.00 0.00 0.00 0.00 0.00 0.00 0.00 0.00 0.00 0.00 0.00 0.00 0.00 0.00 0.00 0.00 0.00 0.00 0.00 0.00 0.00 0.00 0.03 0.05 0.08 0.30 0.40 0.53 0.70 0.93 1.04 0.99 1.05 1.00 0.86 0.76 0.69 0.75 0.85 0.63
0.00 0.00 0.00 0.00 0.00 0.00 0.00 0.00 0.00 0.00 0.00 0.00 0.00 0.00 0.00 0.00 0.00 0.00 0.00 0.00 0.00 0.00 0.00 0.00 0.00 0.00 0.00 0.00 0.00 0.00 0.00 0.00 0.05 0.07 0.06 0.24 0.30 0.44 0.53 0.88 1.54 1.33 0.72 0.50 0.70 0.87 0.70 0.47 0.52
0.00 0.00 0.00 0.00 0.00 0.00 0.00 0.00 0.00 0.00 0.00 0.00 0.00 0.00 0.00 0.00 0.00 0.00 0.00 0.00 0.00 0.00 0.00 0.00 0.00 0.00 0.00 0.00 0.00 0.00 0.00 0.00 0.00 0.03 0.09 0.09 0.11 0.17 0.37 0.43 0.62 0.99 1.01 0.82 0.70 0.79 0.86 0.70 0.68
0.00 0.00 0.00 0.00 0.00 0.00 0.00 0.00 0.00 0.00 0.00 0.00 0.00 0.00 0.00 0.00 0.00 0.00 0.00 0.00 0.00 0.00 0.00 0.00 0.00 0.00 0.00 0.00 0.00 0.00 0.00 0.00 0.00 0.00 0.01 0.04 0.09 0.14 0.19 0.26 0.30 0.49 0.95 0.88 0.58 0.49 0.66 0.74 0.76
0.00 0.00 0.00 0.00 0.00 0.00 0.00 0.00 0.00 0.00 0.00 0.00 0.00 0.00 0.00 0.00 0.00 0.00 0.00 0.00 0.00 0.00 0.00 0.00 0.00 0.00 0.00 0.00 0.00 0.00 0.00 0.00 0.00 0.00 0.00 0.01 0.10 0.18 0.24 0.26 0.29 0.37 0.39 0.62 0.61 0.51 0.49 0.54 0.56
0.00 0.00 0.00 0.00 0.00 0.00 0.00 0.00 0.00 0.00 0.00 0.00 0.00 0.00 0.00 0.00 0.00 0.00 0.00 0.00 0.00 0.00 0.00 0.00 0.00 0.00 0.00 0.00 0.00 0.00 0.00 0.00 0.00 0.00 0.00 0.01 0.02 0.12 0.30 0.37 0.44 0.56 0.80 0.40 0.69 0.72 0.67 0.62 0.52
0.00 0.00 0.00 0.00 0.00 0.00 0.00 0.00 0.00 0.00 0.00 0.00 0.00 0.00 0.00 0.00 0.00 0.00 0.00 0.00 0.00 0.00 0.00 0.00 0.00 0.00 0.00 0.00 0.00 0.00 0.00 0.00 0.00 0.00 0.00 0.02 0.05 0.04 0.08 0.13 0.22 0.29 0.49 0.69 0.77 1.02 0.90 0.94 0.78
0.00 0.00 0.00 0.00 0.00 0.00 0.00 0.00 0.00 0.00 0.00 0.00 0.00 0.00 0.00 0.00 0.00 0.00 0.00 0.00 0.00 0.00 0.00 0.00 0.00 0.00 0.00 0.00 0.00 0.00 0.00 0.00 0.01 0.01 0.01 0.03 0.06 0.07 0.03 0.13 0.14 0.13 0.11 0.27 0.60 0.91 1.15 1.47 1.58
0.00 0.00 0.00 0.00 0.00 0.00 0.00 0.00 0.00 0.00 0.00 0.00 0.00 0.00 0.00 0.00 0.00 0.00 0.00 0.00 0.00 0.00 0.00 0.00 0.00 0.00 0.00 0.00 0.00 0.00 0.00 0.02 0.03 0.02 0.03 0.03 0.06 0.07 0.08 0.09 0.10 0.11 0.18 0.28 0.36 0.48 0.56 0.67 1.04
0.00 0.00 0.00 0.01 0.00 0.00 0.00 0.00 0.00 0.00 0.00 0.00 0.00 0.00 0.00 0.00 0.00 0.00 0.00 0.00 0.00 0.00 0.00 0.01 0.01 0.01 0.01 0.01 0.01 0.01 0.01 0.04 0.04 0.04 0.04 0.05 0.05 0.11 0.14 0.15 0.15 0.19 0.20 0.26 0.29 0.31 0.37 0.43 0.46
0.00 0.00 0.00 0.00 0.00 0.00 0.00 0.00 0.00 0.00 0.01 0.01 0.00 0.00 0.00 0.00 0.00 0.00 0.00 0.00 0.00 0.01 0.01 0.02 0.02 0.04 0.06 0.03 0.02 0.03 0.04 0.08 0.11 0.12 0.12 0.12 0.11 0.14 0.26 0.35 0.34 0.35 0.33 0.35 0.39 0.36 0.32 0.44 0.38
0.00 0.00 0.00 0.00 0.00 0.01 0.01 0.02 0.02 0.01 0.00 0.00 0.00 0.00 0.00 0.00 0.00 0.00 0.00 0.00 0.01 0.03 0.05 0.16 0.22 0.19 0.09 0.03 0.03 0.07 0.16 0.24 0.23 0.24 0.22 0.20 0.17 0.22 0.24 0.37 0.65 0.54 0.61 0.59 0.49 0.49 0.38 0.35 0.41
0.00 0.00 0.00 0.00 0.00 0.01 0.03 0.03 0.00 0.00 0.00 0.00 0.00 0.00 0.00 0.00 0.00 0.01 0.04 0.05 0.10 0.15 0.23 0.34 0.17 0.11 0.07 0.08 0.10 0.23 0.33 0.34 0.29 0.33 0.34 0.35 0.38 0.39 0.41 0.45 0.45 0.44 0.37 0.47 0.40 0.30 0.32 0.31 0.37

GFSSGP_prec_precacc24_144.txt.gz
Total_Precipitation_Accumulation
0.00 0.00 0.00 0.00 0.00 0.00 0.00 0.00 0.00 0.00 0.00 0.00 0.00 0.00 0.00 0.00 0.00 0.06 0.01 0.00 0.00 0.00 0.00 0.00 0.00 0.00 0.00 0.00 0.00 0.00 0.00 0.00 0.00 0.00 0.00 0.00 0.00 0.00 0.00 0.00 0.00 0.01 0.01 0.00 0.00 0.00 0.00 0.02 0.01
0.00 0.00 0.00 0.00 0.00 0.00 0.00 0.00 0.00 0.00 0.00 0.00 0.00 0.00 0.00 0.00 0.00 0.00 0.00 0.00 0.00 0.00 0.00 0.00 0.00 0.00 0.00 0.00 0.00 0.00 0.00 0.00 0.00 0.00 0.00 0.00 0.00 0.00 0.00 0.00 0.00 0.01 0.01 0.00 0.00 0.00 0.02 0.01 0.00
0.00 0.00 0.00 0.00 0.00 0.00 0.00 0.00 0.00 0.00 0.00 0.00 0.00 0.00 0.00 0.00 0.00 0.00 0.00 0.00 0.00 0.00 0.00 0.00 0.00 0.00 0.00 0.00 0.00 0.00 0.00 0.00 0.00 0.00 0.00 0.00 0.03 0.02 0.03 0.01 0.00 0.00 0.00 0.00 0.00 0.01 0.03 0.00 0.00
0.00 0.00 0.00 0.00 0.00 0.00 0.00 0.00 0.00 0.00 0.00 0.00 0.00 0.00 0.00 0.00 0.00 0.00 0.00 0.00 0.00 0.00 0.00 0.00 0.00 0.00 0.00 0.00 0.00 0.00 0.00 0.00 0.00 0.00 0.00 0.12 0.15 0.14 0.10 0.04 0.01 0.00 0.00 0.00 0.00 0.01 0.01 0.00 0.00
0.00 0.00 0.00 0.00 0.00 0.00 0.00 0.00 0.00 0.00 0.00 0.00 0.00 0.00 0.00 0.00 0.00 0.00 0.00 0.00 0.00 0.00 0.00 0.00 0.01 0.00 0.00 0.00 0.00 0.00 0.00 0.00 0.00 0.00 0.00 0.05 0.11 0.14 0.12 0.06 0.02 0.02 0.03 0.01 0.01 0.01 0.00 0.00 0.00
0.00 0.00 0.00 0.00 0.00 0.00 0.00 0.00 0.00 0.00 0.00 0.00 0.00 0.00 0.00 0.00 0.00 0.00 0.00 0.00 0.00 0.00 0.00 0.00 0.01 0.00 0.00 0.00 0.00 0.00 0.00 0.00 0.00 0.00 0.00 0.02 0.10 0.12 0.10 0.05 0.05 0.08 0.09 0.07 0.03 0.03 0.00 0.00 0.00
0.00 0.00 0.00 0.00 0.00 0.00 0.00 0.00 0.00 0.00 0.00 0.00 0.00 0.00 0.00 0.00 0.00 0.00 0.00 0.00 0.00 0.00 0.00 0.00 0.00 0.02 0.00 0.00 0.00 0.02 0.05 0.06 0.02 0.01 0.01 0.03 0.11 0.08 0.07 0.07 0.10 0.10 0.09 0.08 0.04 0.04 0.02 0.00 0.00
0.00 0.00 0.00 0.00 0.00 0.00 0.00 0.00 0.00 0.00 0.00 0.00 0.00 0.00 0.00 0.00 0.00 0.00 0.00 0.00 0.00 0.00 0.00 0.00 0.00 0.00 0.00 0.02 0.02 0.06 0.08 0.11 0.13 0.13 0.11 0.10 0.12 0.08 0.05 0.03 0.06 0.08 0.08 0.07 0.05 0.04 0.02 0.00 0.00
0.00 0.00 0.00 0.00 0.00 0.00 0.00 0.00 0.00 0.00 0.00 0.00 0.00 0.00 0.00 0.00 0.00 0.00 0.00 0.00 0.00 0.00 0.00 0.01 0.00 0.00 0.00 0.01 0.02 0.02 0.09 0.13 0.11 0.16 0.20 0.20 0.15 0.25 0.31 0.20 0.21 0.16 0.15 0.16 0.13 0.11 0.05 0.00 0.00
0.00 0.00 0.00 0.00 0.00 0.00 0.00 0.00 0.00 0.00 0.00 0.00 0.00 0.00 0.00 0.00 0.00 0.00 0.00 0.00 0.00 0.00 0.01 0.03 0.03 0.02 0.00 0.01 0.00 0.00 0.02 0.06 0.11 0.15 0.16 0.20 0.32 0.37 0.63 0.67 0.59 0.52 0.38 0.25 0.13 0.10 0.07 0.00 0.00
0.00 0.00 0.00 0.00 0.00 0.00 0.00 0.00 0.00 0.00 0.00 0.00 0.00 0.00 0.00 0.00 0.00 0.00 0.00 0.00 0.00 0.00 0.00 0.03 0.03 0.04 0.02 0.01 0.00 0.00 0.00 0.02 0.06 0.10 0.14 0.15 0.23 0.28 0.33 0.36 0.59 0.59 0.66 0.36 0.17 0.04 0.05 0.06 0.01
0.00 0.00 0.00 0.00 0.00 0.00 0.00 0.00 0.00 0.00 0.00 0.00 0.00 0.00 0.00 0.00 0.00 0.00 0.00 0.00 0.00 0.00 0.00 0.03 0.07 0.06 0.06 0.14 0.10 0.02 0.05 0.04 0.04 0.05 0.09 0.15 0.15 0.20 0.24 0.23 0.28 0.40 0.55 0.62 0.55 0.41 0.35 0.37 0.16
0.00 0.00 0.00 0.00 0.00 0.00 0.00 0.00 0.00 0.00 0.00 0.00 0.00 0.00 0.00 0.00 0.00 0.00 0.00 0.00 0.00 0.00 0.00 0.01 0.03 0.03 0.04 0.12 0.32 0.22 0.25 0.32 0.22 0.10 0.16 0.21 0.18 0.13 0.12 0.16 0.19 0.20 0.31 0.42 0.47 0.51 0.62 0.70 0.63
0.00 0.00 0.00 0.00 0.00 0.00 0.00 0.00 0.00 0.00 0.00 0.00 0.00 0.00 0.00 0.00 0.00 0.00 0.00 0.00 0.00 0.00 0.00 0.00 0.00 0.01 0.05 0.14 0.26 0.29 0.45 0.59 0.58 0.30 0.16 0.40 0.39 0.34 0.25 0.20 0.21 0.22 0.27 0.34 0.44 0.54 0.67 0.79 1.16
0.00 0.00 0.00 0.00 0.00 0.00 0.00 0.00 0.00 0.00 0.00 0.00 0.00 0.00 0.00 0.00 0.00 0.00 0.00 0.00 0.00 0.00 0.00 0.00 0.00 0.00 0.00 0.02 0.10 0.17 0.25 0.53 0.77 0.78 0.52 0.42 0.54 0.43 0.44 0.39 0.31 0.31 0.36 0.35 0.42 0.51 0.50 0.42 0.50
0.00 0.00 0.00 0.00 0.00 0.00 0.00 0.00 0.00 0.00 0.00 0.00 0.00 0.00 0.00 0.00 0.00 0.00 0.00 0.00 0.00 0.00 0.00 0.00 0.00 0.00 0.00 0.00 0.01 0.05 0.16 0.31 0.47 0.50 0.69 0.87 0.82 0.84 0.67 0.37 0.28 0.46 0.53 0.48 0.52 0.60 0.81 0.90 0.68
0.00 0.00 0.00 0.00 0.00 0.00 0.00 0.00 0.00 0.00 0.00 0.00 0.00 0.00 0.00 0.00 0.00 0.00 0.00 0.00 0.00 0.00 0.00 0.00 0.00 0.00 0.00 0.00 0.00 0.00 0.03 0.09 0.10 0.22 0.36 0.66 1.17 1.42 1.13 0.92 0.90 0.80 0.88 1.05 1.35 1.43 1.40 1.01 0.80
0.00 0.00 0.00 0.00 0.00 0.00 0.00 0.00 0.00 0.00 0.00 0.00 0.00 0.00 0.00 0.00 0.00 0.00 0.00 0.00 0.00 0.00 0.00 0.00 0.00 0.00 0.00 0.00 0.00 0.00 0.00 0.03 0.03 0.06 0.30 0.40 0.53 0.70 0.93 1.04 0.99 1.05 1.00 0.85 0.76 0.69 0.75 0.84 0.62
0.00 0.00 0.00 0.00 0.00 0.00 0.00 0.00 0.00 0.00 0.00 0.00 0.00 0.00 0.00 0.00 0.00 0.00 0.00 0.00 0.00 0.00 0.00 0.00 0.00 0.00 0.00 0.00 0.00 0.00 0.00 0.00 0.05 0.07 0.05 0.22 0.29 0.44 0.52 0.88 1.54 1.33 0.72 0.50 0.70 0.87 0.69 0.46 0.50
0.00 0.00 0.00 0.00 0.00 0.00 0.00 0.00 0.00 0.00 0.00 0.00 0.00 0.00 0.00 0.00 0.00 0.00 0.00 0.00 0.00 0.00 0.00 0.00 0.00 0.00 0.00 0.00 0.00 0.00 0.00 0.00 0.00 0.03 0.08 0.09 0.11 0.17 0.37 0.43 0.62 0.99 1.01 0.81 0.70 0.78 0.85 0.69 0.66
0.00 0.00 0.00 0.00 0.00 0.00 0.00 0.00 0.00 0.00 0.00 0.00 0.00 0.00 0.00 0.00 0.00 0.00 0.00 0.00 0.00 0.00 0.00 0.00 0.00 0.00 0.00 0.00 0.00 0.00 0.00 0.00 0.00 0.00 0.00 0.03 0.08 0.10 0.14 0.25 0.30 0.49 0.95 0.88 0.58 0.49 0.66 0.73 0.74
0.00 0.00 0.00 0.00 0.00 0.00 0.00 0.00 0.00 0.00 0.00 0.00 0.00 0.00 0.00 0.00 0.00 0.00 0.00 0.00 0.00 0.00 0.00 0.00 0.00 0.00 0.00 0.00 0.00 0.00 0.00 0.00 0.00 0.00 0.00 0.01 0.09 0.15 0.16 0.19 0.27 0.37 0.36 0.62 0.61 0.51 0.49 0.53 0.55
0.00 0.00 0.00 0.00 0.00 0.00 0.00 0.00 0.00 0.00 0.00 0.00 0.00 0.00 0.00 0.00 0.00 0.00 0.00 0.00 0.00 0.00 0.00 0.00 0.00 0.00 0.00 0.00 0.00 0.00 0.00 0.00 0.00 0.00 0.00 0.00 0.01 0.07 0.13 0.25 0.35 0.47 0.58 0.33 0.69 0.72 0.67 0.61 0.52
0.00 0.00 0.00 0.00 0.00 0.00 0.00 0.00 0.00 0.00 0.00 0.00 0.00 0.00 0.00 0.00 0.00 0.00 0.00 0.00 0.00 0.00 0.00 0.00 0.00 0.00 0.00 0.00 0.00 0.00 0.00 0.00 0.00 0.00 0.00 0.00 0.00 0.00 0.02 0.06 0.12 0.18 0.34 0.57 0.73 0.98 0.90 0.94 0.78
0.00 0.00 0.00 0.00 0.00 0.00 0.00 0.00 0.00 0.00 0.00 0.00 0.00 0.00 0.00 0.00 0.00 0.00 0.00 0.00 0.00 0.00 0.00 0.00 0.00 0.00 0.00 0.00 0.00 0.00 0.00 0.00 0.01 0.01 0.02 0.02 0.02 0.02 0.01 0.05 0.07 0.08 0.06 0.26 0.56 0.82 1.12 1.47 1.58
0.00 0.00 0.00 0.00 0.00 0.00 0.00 0.00 0.00 0.00 0.00 0.00 0.00 0.00 0.00 0.00 0.00 0.00 0.00 0.00 0.00 0.00 0.00 0.00 0.00 0.00 0.00 0.00 0.00 0.00 0.00 0.01 0.03 0.03 0.03 0.04 0.04 0.04 0.03 0.04 0.05 0.08 0.13 0.26 0.35 0.48 0.56 0.65 1.03
0.00 0.00 0.00 0.01 0.00 0.00 0.00 0.00 0.00 0.00 0.00 0.00 0.00 0.00 0.00 0.00 0.00 0.00 0.00 0.00 0.00 0.00 0.00 0.01 0.01 0.01 0.00 0.01 0.01 0.01 0.01 0.04 0.04 0.04 0.05 0.06 0.06 0.07 0.06 0.06 0.06 0.10 0.16 0.23 0.29 0.31 0.37 0.41 0.45
0.00 0.00 0.00 0.00 0.00 0.00 0.00 0.00 0.00 0.00 0.00 0.01 0.00 0.00 0.00 0.00 0.00 0.00 0.00 0.00 0.00 0.00 0.00 0.02 0.02 0.04 0.05 0.03 0.02 0.03 0.04 0.08 0.11 0.12 0.14 0.14 0.14 0.15 0.13 0.11 0.12 0.14 0.24 0.31 0.36 0.36 0.32 0.43 0.38
0.00 0.00 0.00 0.00 0.00 0.00 0.00 0.00 0.00 0.00 0.00 0.00 0.00 0.00 0.00 0.00 0.00 0.00 0.00 0.00 0.00 0.01 0.04 0.16 0.21 0.18 0.09 0.03 0.03 0.07 0.15 0.23 0.23 0.24 0.24 0.24 0.23 0.22 0.19 0.20 0.21 0.22 0.41 0.52 0.49 0.52 0.41 0.37 0.42
0.00 0.00 0.00 0.00 0.00 0.00 0.00 0.01 0.00 0.00 0.00 0.00 0.00 0.00 0.00 0.00 0.00 0.00 0.01 0.03 0.06 0.09 0.20 0.31 0.12 0.07 0.05 0.05 0.09 0.21 0.31 0.30 0.25 0.29 0.30 0.28 0.30 0.28 0.27 0.30 0.27 0.23 0.25 0.42 0.41 0.34 0.38 0.37 0.41

GFSSGP_prec_precacc24_147.txt.gz
Total_Precipitation_Accumulation
0.00 0.00 0.00 0.00 0.00 0.00 0.00 0.00 0.00 0.00 0.00 0.00 0.00 0.00 0.00 0.00 0.00 0.10 0.35 0.18 0.03 0.00 0.00 0.00 0.00 0.00 0.00 0.00 0.00 0.00 0.00 0.00 0.00 0.00 0.00 0.00 0.00 0.00 0.00 0.00 0.00 0.01 0.01 0.00 0.00 0.00 0.00 0.02 0.01
0.00 0.00 0.00 0.00 0.00 0.00 0.00 0.00 0.00 0.00 0.00 0.00 0.00 0.00 0.00 0.00 0.00 0.01 0.08 0.10 0.00 0.00 0.00 0.00 0.00 0.00 0.00 0.00 0.00 0.00 0.00 0.00 0.00 0.00 0.00 0.00 0.00 0.00 0.00 0.00 0.00 0.01 0.02 0.00 0.00 0.00 0.02 0.01 0.00
0.00 0.00 0.00 0.00 0.00 0.00 0.00 0.00 0.00 0.00 0.00 0.00 0.00 0.00 0.00 0.00 0.00 0.03 0.05 0.02 0.01 0.01 0.00 0.00 0.00 0.00 0.00 0.00 0.00 0.00 0.00 0.00 0.00 0.00 0.00 0.00 0.04 0.04 0.06 0.02 0.00 0.00 0.01 0.01 0.02 0.01 0.02 0.00 0.00
0.00 0.00 0.00 0.00 0.00 0.00 0.00 0.00 0.00 0.00 0.00 0.00 0.00 0.00 0.00 0.00 0.00 0.00 0.00 0.00 0.00 0.00 0.00 0.00 0.00 0.00 0.00 0.00 0.00 0.00 0.00 0.00 0.00 0.00 0.00 0.13 0.15 0.15 0.11 0.05 0.04 0.02 0.01 0.02 0.01 0.01 0.01 0.00 0.00
0.00 0.00 0.00 0.00 0.00 0.00 0.00 0.00 0.00 0.00 0.00 0.00 0.00 0.00 0.00 0.00 0.00 0.00 0.00 0.00 0.00 0.00 0.00 0.00 0.01 0.00 0.00 0.00 0.00 0.00 0.00 0.00 0.00 0.00 0.00 0.05 0.11 0.14 0.12 0.06 0.04 0.07 0.06 0.03 0.01 0.02 0.00 0.00 0.00
0.00 0.00 0.00 0.00 0.00 0.00 0.00 0.00 0.00 0.00 0.00 0.00 0.00 0.00 0.00 0.01 0.01 0.01 0.00 0.00 0.00 0.00 0.00 0.00 0.01 0.00 0.00 0.00 0.00 0.00 0.00 0.00 0.00 0.00 0.00 0.02 0.10 0.12 0.10 0.07 0.09 0.12 0.13 0.10 0.03 0.03 0.00 0.00 0.00
0.00 0.00 0.00 0.00 0.00 0.00 0.00 0.00 0.00 0.00 0.00 0.00 0.00 0.00 0.00 0.00 0.01 0.00 0.00 0.00 0.00 0.00 0.00 0.00 0.00 0.02 0.00 0.00 0.00 0.02 0.05 0.06 0.02 0.01 0.01 0.03 0.11 0.08 0.07 0.08 0.12 0.11 0.12 0.10 0.06 0.04 0.02 0.00 0.00
0.00 0.00 0.00 0.00 0.00 0.00 0.00 0.00 0.00 0.00 0.00 0.00 0.00 0.00 0.00 0.00 0.00 0.00 0.00 0.00 0.00 0.00 0.00 0.00 0.00 0.00 0.00 0.02 0.02 0.06 0.08 0.11 0.13 0.13 0.11 0.10 0.12 0.09 0.09 0.07 0.09 0.09 0.07 0.05 0.07 0.06 0.03 0.00 0.00
0.00 0.00 0.00 0.00 0.00 0.00 0.00 0.00 0.00 0.00 0.00 0.00 0.00 0.00 0.00 0.00 0.00 0.00 0.00 0.00 0.00 0.00 0.00 0.01 0.00 0.00 0.00 0.01 0.02 0.02 0.09 0.13 0.11 0.16 0.20 0.20 0.15 0.25 0.32 0.22 0.23 0.18 0.15 0.15 0.14 0.13 0.07 0.03 0.00
0.00 0.00 0.00 0.00 0.00 0.00 0.00 0.00 0.00 0.00 0.00 0.00 0.00 0.00 0.00 0.00 0.00 0.00 0.00 0.00 0.00 0.00 0.01 0.03 0.03 0.02 0.00 0.01 0.00 0.00 0.02 0.06 0.11 0.15 0.16 0.20 0.32 0.37 0.63 0.68 0.60 0.53 0.38 0.25 0.13 0.11 0.13 0.13 0.03
0.00 0.00 0.00 0.00 0.00 0.00 0.00 0.00 0.00 0.00 0.00 0.00 0.00 0.00 0.00 0.00 0.00 0.00 0.00 0.00 0.00 0.00 0.00 0.03 0.02 0.03 0.02 0.00 0.00 0.00 0.00 0.02 0.06 0.10 0.14 0.15 0.23 0.28 0.33 0.36 0.59 0.60 0.69 0.38 0.17 0.04 0.10 0.19 0.10
0.00 0.00 0.00 0.00 0.00 0.00 0.00 0.00 0.00 0.00 0.00 0.00 0.00 0.00 0.00 0.00 0.00 0.00 0.00 0.00 0.00 0.00 0.00 0.02 0.04 0.04 0.05 0.04 0.02 0.01 0.04 0.04 0.04 0.05 0.09 0.15 0.15 0.20 0.24 0.23 0.28 0.40 0.55 0.62 0.56 0.43 0.43 0.50 0.27
0.00 0.00 0.00 0.00 0.00 0.00 0.00 0.00 0.00 0.00 0.00 0.00 0.00 0.00 0.00 0.00 0.00 0.00 0.00 0.00 0.00 0.00 0.00 0.01 0.02 0.00 0.01 0.07 0.11 0.12 0.20 0.26 0.21 0.10 0.16 0.21 0.18 0.13 0.12 0.16 0.19 0.20 0.31 0.42 0.47 0.52 0.63 0.80 0.81
0.00 0.00 0.00 0.00 0.00 0.00 0.00 0.00 0.00 0.00 0.00 0.00 0.00 0.00 0.00 0.00 0.00 0.00 0.00 0.00 0.00 0.00 0.00 0.00 0.00 0.00 0.01 0.02 0.04 0.09 0.27 0.40 0.50 0.29 0.16 0.40 0.39 0.34 0.25 0.20 0.21 0.22 0.27 0.34 0.44 0.54 0.67 0.79 1.15
0.00 0.00 0.00 0.00 0.00 0.00 0.00 0.00 0.00 0.00 0.00 0.00 0.00 0.00 0.00 0.00 0.00 0.00 0.00 0.00 0.00 0.00 0.00 0.00 0.00 0.00 0.00 0.00 0.00 0.00 0.04 0.16 0.36 0.62 0.50 0.42 0.54 0.43 0.44 0.39 0.31 0.31 0.36 0.35 0.42 0.51 0.50 0.41 0.49
0.00 0.00 0.00 0.00 0.00 0.00 0.00 0.00 0.00 0.00 0.00 0.00 0.00 0.00 0.00 0.00 0.00 0.00 0.00 0.00 0.00 0.00 0.00 0.00 0.00 0.00 0.00 0.00 0.00 0.00 0.01 0.05 0.16 0.29 0.52 0.80 0.80 0.84 0.67 0.37 0.28 0.46 0.53 0.48 0.52 0.60 0.80 0.90 0.68
0.00 0.00 0.00 0.00 0.00 0.00 0.00 0.00 0.00 0.00 0.00 0.00 0.00 0.00 0.00 0.00 0.00 0.00 0.00 0.00 0.00 0.00 0.00 0.00 0.00 0.00 0.00 0.00 0.00 0.00 0.00 0.00 0.03 0.06 0.15 0.41 0.93 1.32 1.10 0.92 0.90 0.80 0.88 1.05 1.35 1.43 1.40 1.00 0.80
0.00 0.00 0.00 0.00 0.00 0.00 0.00 0.00 0.00 0.00 0.00 0.00 0.00 0.00 0.00 0.00 0.00 0.00 0.00 0.00 0.00 0.00 0.00 0.00 0.00 0.00 0.00 0.00 0.00 0.00 0.00 0.00 0.00 0.01 0.06 0.14 0.30 0.53 0.77 0.99 0.97 1.05 0.99 0.85 0.76 0.69 0.74 0.84 0.62
0.00 0.00 0.00 0.00 0.00 0.00 0.00 0.00 0.00 0.00 0.00 0.00 0.00 0.00 0.00 0.00 0.00 0.00 0.00 0.00 0.00 0.00 0.00 0.00 0.00 0.00 0.00 0.00 0.00 0.00 0.00 0.00 0.00 0.00 0.01 0.04 0.10 0.22 0.40 0.81 1.49 1.29 0.70 0.50 0.70 0.87 0.69 0.46 0.50
0.00 0.00 0.00 0.00 0.00 0.00 0.00 0.00 0.00 0.00 0.00 0.00 0.00 0.00 0.00 0.00 0.00 0.00 0.00 0.00 0.00 0.00 0.00 0.00 0.00 0.00 0.00 0.00 0.00 0.00 0.00 0.00 0.00 0.00 0.00 0.00 0.02 0.06 0.18 0.28 0.53 0.95 0.98 0.80 0.70 0.78 0.85 0.68 0.66
0.00 0.00 0.00 0.00 0.00 0.00 0.00 0.00 0.00 0.00 0.00 0.00 0.00 0.00 0.00 0.00 0.00 0.00 0.00 0.00 0.00 0.00 0.00 0.00 0.00 0.00 0.00 0.00 0.00 0.00 0.00 0.00 0.00 0.00 0.00 0.00 0.00 0.00 0.05 0.14 0.18 0.41 0.92 0.87 0.58 0.48 0.65 0.70 0.74
0.00 0.00 0.00 0.00 0.00 0.00 0.00 0.00 0.00 0.00 0.00 0.00 0.00 0.00 0.00 0.00 0.00 0.00 0.00 0.00 0.00 0.00 0.00 0.00 0.00 0.00 0.00 0.00 0.00 0.00 0.00 0.00 0.00 0.00 0.00 0.00 0.00 0.00 0.00 0.02 0.11 0.16 0.29 0.59 0.60 0.48 0.43 0.47 0.55
0.00 0.00 0.00 0.00 0.00 0.00 0.00 0.00 0.00 0.00 0.00 0.00 0.00 0.00 0.00 0.00 0.00 0.00 0.00 0.00 0.00 0.00 0.00 0.00 0.00 0.00 0.00 0.00 0.00 0.00 0.00 0.00 0.00 0.00 0.00 0.00 0.00 0.00 0.00 0.01 0.05 0.15 0.24 0.16 0.46 0.66 0.59 0.58 0.51
0.00 0.00 0.00 0.00 0.00 0.00 0.00 0.00 0.00 0.00 0.00 0.00 0.00 0.00 0.00 0.00 0.00 0.00 0.00 0.00 0.00 0.00 0.00 0.00 0.00 0.00 0.00 0.00 0.00 0.00 0.00 0.00 0.00 0.00 0.00 0.00 0.00 0.00 0.00 0.01 0.01 0.03 0.11 0.25 0.22 0.38 0.55 0.67 0.63
0.00 0.00 0.00 0.00 0.00 0.00 0.00 0.00 0.00 0.00 0.00 0.00 0.00 0.00 0.00 0.00 0.00 0.00 0.00 0.00 0.00 0.00 0.00 0.00 0.00 0.00 0.00 0.00 0.00 0.00 0.00 0.00 0.01 0.01 0.02 0.02 0.02 0.02 0.02 0.02 0.02 0.02 0.03 0.08 0.19 0.30 0.50 0.72 1.25
0.00 0.00 0.00 0.00 0.00 0.00 0.00 0.00 0.00 0.00 0.00 0.00 0.00 0.00 0.00 0.00 0.00 0.00 0.00 0.00 0.00 0.00 0.00 0.00 0.00 0.00 0.00 0.00 0.00 0.00 0.00 0.01 0.03 0.03 0.04 0.04 0.05 0.05 0.04 0.04 0.03 0.03 0.04 0.05 0.08 0.15 0.28 0.38 0.75
0.00 0.00 0.00 0.00 0.00 0.00 0.00 0.00 0.00 0.00 0.00 0.00 0.00 0.00 0.00 0.00 0.00 0.00 0.00 0.00 0.00 0.00 0.00 0.01 0.01 0.00 0.00 0.01 0.01 0.01 0.01 0.04 0.04 0.04 0.05 0.06 0.07 0.09 0.09 0.07 0.07 0.06 0.06 0.06 0.07 0.09 0.17 0.26 0.26
0.00 0.00 0.00 0.00 0.00 0.00 0.00 0.00 0.00 0.00 0.00 0.00 0.00 0.00 0.00 0.00 0.00 0.00 0.00 0.00 0.00 0.00 0.00 0.01 0.01 0.03 0.05 0.03 0.02 0.03 0.04 0.07 0.11 0.12 0.15 0.15 0.17 0.21 0.17 0.13 0.13 0.12 0.13 0.12 0.12 0.12 0.15 0.31 0.31
0.00 0.00 0.00 0.00 0.00 0.00 0.00 0.00 0.00 0.00 0.00 0.00 0.00 0.00 0.00 0.00 0.00 0.00 0.00 0.00 0.00 0.00 0.03 0.14 0.20 0.17 0.08 0.02 0.02 0.06 0.14 0.23 0.22 0.23 0.23 0.24 0.25 0.26 0.23 0.22 0.22 0.24 0.24 0.24 0.23 0.19 0.17 0.20 0.30
0.00 0.00 0.00 0.00 0.00 0.00 0.00 0.00 0.00 0.00 0.00 0.00 0.00 0.00 0.00 0.00 0.00 0.00 0.00 0.00 0.01 0.04 0.14 0.23 0.10 0.05 0.02 0.03 0.08 0.20 0.30 0.30 0.24 0.29 0.28 0.26 0.29 0.27 0.26 0.28 0.24 0.23 0.24 0.24 0.24 0.25 0.25 0.25 0.35